[[{"header":{"parameterUnit":"m.s-1","parameterCategory":1,"la1":31.0,"la2":29.5877,"lo1":-88.7671,"lo2":-86.6584,"dy":0.0162,"dx":0.0185,"nx":115,"ny":88,"refTime":"2026-04-22T12:00:00:Z","depth":0,"parameterNumber":2,"parameterNumberName":"U-component_of_WINDS"},"data":[0.0,0.0,0.0,0.0,0.0,0.0,0.0,0.0,0.0,0.0,0.0,0.0,0.0,0.0,0.0,0.0,0.0,0.0,0.0,0.0,0.0,0.0,0.0,0.0,0.0,0.0,0.0,0.0,0.0,0.0,0.0,0.0,0.0,0.0,0.0,0.0,0.0,0.0,0.0,0.0,0.0,0.0,0.0,0.0,0.0,0.0,0.0,0.0,0.0,0.0,0.0,0.0,0.0,0.0,0.0,0.0,0.0,0.0,0.0,0.0,0.0,0.0,0.0,0.0,0.0,0.0,0.0,0.0,0.0,0.0,0.0,0.0,0.0,0.0,0.0,0.0,0.0,0.0,0.0,0.0,0.0,0.0,0.0,0.0,0.0,0.0,0.0,0.0,0.0,0.0,0.0,0.0,0.0,0.0,0.0,0.0,0.0,0.0,0.0,0.0,0.0,0.0,0.0,0.0,0.0,0.0,0.0,0.0,0.0,0.0,0.0,0.0,0.0,0.0,0.0,0.0,0.0,0.0,0.0,0.0,0.0,0.0,0.0,0.0,0.0,0.0,0.0,0.0,0.0,0.0,0.0,0.0,0.0,0.0,0.0,0.0,0.0,0.0,0.0,0.0,0.0,0.0,0.0,0.0,0.0,0.0,0.0,0.0,0.0,0.0,0.0,0.0,0.0,0.0,0.0,0.0,0.0,0.0,0.0,0.0,0.0,0.0,0.0,0.0,0.0,0.0,0.0,0.0,0.0,0.0,0.0,0.0,0.0,0.0,0.0,0.0,0.0,0.0,0.0,0.0,0.0,0.0,0.0,0.0,0.0,0.0,0.0,0.0,0.0,0.0,0.0,0.0,0.0,0.0,0.0,0.0,0.0,0.0,0.0,0.0,0.0,0.0,0.0,0.0,0.0,0.0,0.0,0.0,0.0,0.0,0.0,0.0,0.0,0.0,0.0,0.0,0.0,0.0,0.0,0.0,0.0,0.0,0.0,0.0,0.0,0.0,0.0,0.0,0.0,0.0,0.0,0.0,0.0,0.0,0.0,0.0,0.0,0.0,0.0,0.0,0.0,0.0,0.0,0.0,0.0,0.0,0.0,0.0,0.0,0.0,0.0,0.0,0.0,0.0,0.0,0.0,0.0,0.0,0.0,0.0,0.0,0.0,0.0,0.0,0.0,0.0,0.0,0.0,0.0,0.0,0.0,0.0,0.0,0.0,0.0,0.0,0.0,0.0,0.0,0.0,0.0,0.0,0.0,0.0,0.0,0.0,0.0,0.0,0.0,0.0,0.0,0.0,0.0,0.0,0.0,0.0,0.0,0.0,0.0,0.0,0.0,0.0,0.0,0.0,0.0,0.0,0.0,0.0,0.0,0.0,0.0,0.0,0.0,0.0,0.0,0.0,0.0,0.0,0.0,0.0,0.0,0.0,0.0,0.0,0.0,0.0,0.0,0.0,0.0,0.0,0.0,0.0,0.0,0.0,0.0,0.0,0.0,0.0,0.0,0.0,0.0,0.0,0.0,0.0,0.0,0.0,0.0,0.0,0.0,0.0,0.0,0.0,0.0,0.0,0.0,0.0,0.0,0.0,0.0,0.0,0.0,0.0,0.0,0.0,0.0,0.0,0.0,0.0,0.0,0.0,0.0,0.0,0.0,0.0,0.0,0.0,0.0,0.0,0.0,0.0,0.0,0.0,0.0,0.0,0.0,0.0,0.0,0.0,0.0,0.0,0.0,0.0,0.0,0.0,0.0,0.0,0.0,0.0,0.0,0.0,0.0,0.0,0.0,0.0,0.0,0.0,0.0,0.0,0.0,0.0,0.0,0.0,0.0,0.0,0.0,0.0,0.0,0.0,0.0,0.0,0.0,0.0,0.0,0.0,0.0,0.0,0.0,0.0,0.0,0.0,0.0,0.0,0.0,0.0,0.0,0.0,0.0,0.0,0.0,0.0,0.0,0.0,0.0,0.0,0.0,0.0,0.0,0.0,0.0,0.0,0.0,0.0,0.0,0.0,0.0,0.0,0.0,0.0,0.0,0.0,0.0,0.0,0.0,0.0,0.0,0.0,0.0,0.0,0.0,0.0,0.0,0.0,0.0,0.0,0.0,0.0,0.0,0.0,0.0,0.0,0.0,0.0,0.0,0.0,0.0,0.0,0.0,0.0,0.0,0.0,0.0,0.0,0.0,0.0,0.0,0.0,0.0,0.0,0.0,0.0,0.0,0.0,0.0,0.0,0.0,0.0,0.0,0.0,0.0,0.0,0.0,0.0,0.0,0.0,0.0,0.0,0.0,0.0,0.0,0.0,0.0,0.0,0.0,0.0,0.0,0.0,0.0,0.0,0.0,0.0,0.0,0.0,0.0,0.0,0.0,0.0,0.0,0.0,0.0,0.0,0.0,0.0,0.0,0.0,0.0,0.0,0.0,0.0,0.0,0.0,0.0,0.0,0.0,0.0,0.0,0.0,0.0,0.0,0.0,0.0,0.0,0.0,0.0,0.0,0.0,0.0,0.0,0.0,0.0,0.0,0.0,0.0,0.0,0.0,0.0,0.0,0.0,0.0,0.0,0.0,0.0,0.0,0.0,0.0,0.0,0.0,0.0,0.0,0.0,0.0,0.0,0.0,0.0,0.0,0.0,0.0,0.0,0.0,0.0,0.0,0.0,0.0,0.0,0.0,0.0,0.0,0.0,0.0,0.0,0.0,0.0,0.0,0.0,0.0,0.0,0.0,0.0,0.0,0.0,0.0,0.0,0.0,0.0,0.0,0.0,0.0,0.0,0.0,0.0,0.0,0.0,0.0,0.0,0.0,0.0,0.0,0.0,0.0,0.0,0.0,0.0,0.0,0.0,0.0,0.0,0.0,0.0,0.0,0.0,0.0,0.0,0.0,0.0,0.0,0.0,0.0,0.0,0.0,0.0,0.0,0.0,0.0,0.0,0.0,0.0,0.0,0.0,0.0,0.0,0.0,0.0,0.0,0.0,0.0,0.0,0.0,0.0,0.0,0.0,0.0,0.0,0.0,0.0,0.0,0.0,0.0,0.0,0.0,0.0,0.0,0.0,0.0,0.0,0.0,0.0,0.0,0.0,0.0,0.0,0.0,0.0,0.0,0.0,0.0,0.0,0.0,0.0,0.0,0.0,0.0,0.0,0.0,0.0,0.0,0.0,0.0,0.0,0.0,0.0,0.0,0.0,0.0,0.0,0.0,0.0,0.0,0.0,0.0,0.0,0.0,0.0,0.0,0.0,0.0,0.0,0.0,0.0,0.0,0.0,0.0,0.0,0.0,0.0,0.0,0.0,0.0,0.0,0.0,0.0,0.0,0.0,0.0,0.0,0.0,0.0,0.0,0.0,0.0,0.0,0.0,0.0,0.0,0.0,0.0,0.0,0.0,0.0,0.0,0.0,0.0,0.0,0.0,0.0,0.0,0.0,0.0,0.0,0.0,0.0,0.0,0.0,0.0,0.0,0.0,0.0,0.0,0.0,0.0,0.0,0.0,0.0,0.0,0.0,0.0,0.0,0.0,0.0,0.0,0.0,0.0,0.0,0.0,0.0,0.0,0.0,0.0,0.0,0.0,0.0,0.0,0.0,0.0,0.0,0.0,0.0,0.0,0.0,0.0,0.0,0.0,0.0,0.0,0.0,0.0,0.0,0.0,0.0,0.0,0.0,0.0,0.0,0.0,0.0,0.0,0.0,0.0,0.0,0.0,0.0,0.0,0.0,0.0,0.0,0.0,0.0,0.0,0.0,0.0,0.0,0.0,0.0,0.0,0.0,0.0,0.0,0.0,0.0,0.0,0.0,0.0,0.0,0.0,0.0,0.0,0.0,0.0,0.0,0.0,0.0,0.0,0.0,0.0,0.0,0.0,0.0,0.0,0.0,0.0,0.0,0.0,0.0,0.0,0.0,0.0,0.0,0.0,0.0,0.0,0.0,0.0,0.0,0.0,0.0,0.0,0.0,0.0,0.0,0.0,0.0,0.0,0.0,0.0,0.0,0.0,0.0,0.0,0.0,0.0,0.0,0.0,0.0,0.0,0.0,0.0,0.0,0.0,0.0,0.0,0.0,0.0,0.0,0.0,0.0,0.0,0.0,0.0,0.0,0.0,0.0,0.0,0.0,0.0,0.0,0.0,0.0,0.0,0.0,0.0,0.0,0.0,0.0,0.0,0.0,0.0,0.0,0.0,0.0,0.0,0.0,0.0,0.0,0.0,0.0,0.0,0.0,0.0,0.0,0.0,0.0,0.0,0.0,0.0,0.0,0.0,0.0,0.0,-1.4001,0.0,0.0,0.0,0.0,0.0,0.0,0.0,0.0,0.0,0.0,0.0,0.0,0.0,0.0,0.0,0.0,0.0,0.0,0.0,0.0,0.0,0.0,0.0,0.0,0.0,0.0,0.0,0.0,0.0,0.0,0.0,0.0,0.0,0.0,0.0,0.0,0.0,0.0,0.0,0.0,0.0,0.0,0.0,0.0,0.0,0.0,0.0,0.0,0.0,0.0,0.0,0.0,0.0,0.0,0.0,0.0,0.0,0.0,0.0,0.0,0.0,0.0,0.0,0.0,0.0,0.0,0.0,0.0,0.0,0.0,0.0,0.0,0.0,0.0,0.0,0.0,0.0,0.0,0.0,0.0,0.0,0.0,0.0,0.0,0.0,0.0,0.0,0.0,0.0,0.0,0.0,0.0,0.0,0.0,0.0,0.0,0.0,0.0,0.0,0.0,0.0,0.0,0.0,0.0,0.0,0.0,0.0,0.0,0.0,0.0,-1.5905,-1.6285,-1.5915,-1.5145,-1.3977,0.0,0.0,0.0,0.0,0.0,0.0,0.0,0.0,0.0,0.0,0.0,0.0,0.0,0.0,0.0,0.0,0.0,0.0,0.0,0.0,0.0,0.0,0.0,0.0,0.0,0.0,0.0,0.0,0.0,0.0,0.0,0.0,0.0,0.0,0.0,0.0,0.0,0.0,0.0,0.0,0.0,0.0,0.0,0.0,0.0,0.0,0.0,0.0,0.0,0.0,0.0,0.0,0.0,0.0,0.0,0.0,0.0,0.0,0.0,0.0,0.0,0.0,0.0,0.0,0.0,0.0,0.0,0.0,0.0,0.0,0.0,0.0,0.0,0.0,0.0,0.0,0.0,0.0,0.0,0.0,0.0,0.0,0.0,0.0,0.0,0.0,0.0,0.0,0.0,0.0,0.0,0.0,0.0,0.0,0.0,0.0,0.0,0.0,0.0,0.0,0.0,0.0,0.0,0.0,0.0,0.0,0.0,0.0,0.0,0.0,0.0,0.0,-1.6554,-1.5905,-1.4358,0.0,0.0,0.0,0.0,0.0,0.0,0.0,0.0,0.0,0.0,0.0,0.0,0.0,0.0,0.0,0.0,0.0,0.0,0.0,0.0,0.0,0.0,0.0,0.0,0.0,0.0,0.0,0.0,0.0,0.0,0.0,0.0,0.0,0.0,0.0,0.0,0.0,0.0,0.0,0.0,0.0,0.0,0.0,0.0,0.0,0.0,0.0,0.0,0.0,0.0,0.0,0.0,0.0,0.0,0.0,0.0,0.0,0.0,0.0,0.0,0.0,0.0,0.0,0.0,0.0,0.0,0.0,0.0,0.0,0.0,0.0,0.0,0.0,0.0,0.0,0.0,0.0,0.0,0.0,0.0,0.0,0.0,0.0,0.0,0.0,0.0,0.0,0.0,0.0,0.0,0.0,0.0,0.0,0.0,0.0,0.0,0.0,0.0,0.0,0.0,0.0,0.0,0.0,0.0,0.0,0.0,0.0,0.0,0.0,0.0,-1.5996,-1.6642,-1.7294,0.0,-1.5569,0.0,0.0,0.0,0.0,0.0,0.0,0.0,0.0,0.0,0.0,0.0,0.0,0.0,0.0,0.0,0.0,0.0,0.0,0.0,0.0,0.0,0.0,0.0,0.0,0.0,0.0,0.0,0.0,0.0,0.0,0.0,0.0,0.0,0.0,0.0,0.0,0.0,0.0,0.0,0.0,0.0,0.0,0.0,0.0,0.0,0.0,0.0,0.0,0.0,0.0,0.0,0.0,0.0,0.0,0.0,0.0,0.0,0.0,0.0,0.0,0.0,0.0,0.0,0.0,0.0,0.0,0.0,0.0,0.0,0.0,0.0,0.0,0.0,0.0,0.0,0.0,0.0,0.0,0.0,0.0,0.0,0.0,0.0,0.0,0.0,0.0,0.0,0.0,0.0,0.0,0.0,0.0,0.0,0.0,0.0,0.0,0.0,0.0,0.0,0.0,0.0,0.0,0.0,0.0,0.0,0.0,0.0,0.0,0.0,0.0,-1.7033,-1.7337,-1.6796,-1.6221,0.0,0.0,0.0,0.0,0.0,0.0,0.0,0.0,0.0,0.0,0.0,0.0,0.0,0.0,0.0,0.0,0.0,0.0,0.0,0.0,0.0,0.0,0.0,0.0,0.0,0.0,0.0,0.0,0.0,0.0,0.0,0.0,0.0,0.0,0.0,0.0,0.0,0.0,0.0,0.0,0.0,0.0,0.0,0.0,0.0,0.0,0.0,0.0,0.0,0.0,0.0,0.0,0.0,0.0,0.0,0.0,0.0,0.0,0.0,0.0,0.0,0.0,0.0,0.0,0.0,0.0,0.0,0.0,0.0,0.0,0.0,0.0,0.0,0.0,0.0,0.0,0.0,0.0,0.0,0.0,0.0,0.0,0.0,0.0,0.0,0.0,0.0,0.0,0.0,0.0,0.0,0.0,0.0,0.0,0.0,0.0,0.0,0.0,0.0,0.0,0.0,0.0,0.0,0.0,0.0,0.0,0.0,0.0,0.0,0.0,-1.7913,-1.7901,-1.8036,-1.6853,-1.5917,-1.5325,0.0,0.0,0.0,0.0,0.0,0.0,0.0,0.0,0.0,0.0,0.0,0.0,0.0,0.0,0.0,0.0,0.0,0.0,0.0,0.0,0.0,0.0,0.0,0.0,0.0,0.0,0.0,0.0,0.0,0.0,0.0,0.0,0.0,0.0,0.0,0.0,0.0,0.0,0.0,0.0,0.0,0.0,0.0,0.0,0.0,0.0,0.0,0.0,0.0,0.0,0.0,0.0,0.0,0.0,0.0,0.0,0.0,0.0,0.0,0.0,0.0,0.0,0.0,0.0,0.0,0.0,0.0,0.0,0.0,0.0,0.0,0.0,0.0,0.0,0.0,0.0,0.0,0.0,0.0,0.0,0.0,0.0,0.0,0.0,0.0,0.0,0.0,0.0,0.0,0.0,0.0,0.0,0.0,0.0,0.0,0.0,0.0,0.0,0.0,0.0,0.0,0.0,0.0,0.0,0.0,0.0,0.0,0.0,0.0,-1.8504,-1.8132,-1.8838,-1.8082,-1.6701,0.0,0.0,0.0,0.0,0.0,0.0,0.0,0.0,0.0,0.0,0.0,0.0,0.0,0.0,0.0,0.0,0.0,0.0,0.0,0.0,0.0,0.0,0.0,0.0,0.0,0.0,0.0,0.0,0.0,0.0,0.0,0.0,0.0,0.0,0.0,0.0,0.0,0.0,0.0,0.0,0.0,0.0,0.0,0.0,0.0,0.0,0.0,0.0,0.0,0.0,0.0,0.0,0.0,0.0,0.0,0.0,0.0,0.0,0.0,0.0,0.0,0.0,0.0,0.0,0.0,0.0,0.0,0.0,0.0,0.0,0.0,0.0,0.0,0.0,0.0,0.0,0.0,0.0,0.0,0.0,0.0,0.0,0.0,0.0,0.0,0.0,0.0,0.0,0.0,0.0,0.0,0.0,0.0,0.0,0.0,0.0,0.0,0.0,0.0,0.0,0.0,0.0,0.0,0.0,0.0,0.0,0.0,0.0,0.0,-1.8732,-1.8155,-1.8623,-2.0209,-1.7805,-1.6221,0.0,0.0,0.0,0.0,0.0,0.0,0.0,0.0,0.0,0.0,0.0,0.0,0.0,0.0,0.0,0.0,0.0,0.0,0.0,0.0,0.0,0.0,0.0,0.0,0.0,0.0,0.0,0.0,0.0,0.0,0.0,0.0,0.0,0.0,0.0,0.0,0.0,0.0,0.0,0.0,0.0,0.0,0.0,0.0,0.0,0.0,0.0,0.0,0.0,0.0,0.0,0.0,0.0,0.0,0.0,0.0,0.0,0.0,0.0,0.0,0.0,0.0,0.0,0.0,0.0,0.0,0.0,0.0,0.0,0.0,0.0,0.0,0.0,0.0,0.0,0.0,0.0,0.0,0.0,0.0,0.0,0.0,0.0,0.0,0.0,0.0,0.0,0.0,0.0,0.0,0.0,0.0,0.0,0.0,0.0,0.0,0.0,0.0,0.0,0.0,0.0,0.0,0.0,0.0,0.0,0.0,0.0,0.0,0.0,-1.8858,0.0,-1.941,0.0,-1.7642,-1.5984,0.0,0.0,0.0,0.0,0.0,0.0,0.0,0.0,0.0,0.0,0.0,0.0,0.0,0.0,0.0,0.0,0.0,0.0,0.0,0.0,0.0,0.0,0.0,0.0,0.0,0.0,0.0,0.0,0.0,0.0,0.0,0.0,0.0,0.0,0.0,0.0,0.0,0.0,0.0,0.0,0.0,0.0,0.0,0.0,0.0,0.0,0.0,0.0,0.0,0.0,0.0,0.0,0.0,0.0,0.0,0.0,0.0,0.0,0.0,0.0,0.0,0.0,0.0,0.0,0.0,0.0,0.0,0.0,0.0,0.0,0.0,0.0,0.0,0.0,0.0,0.0,0.0,0.0,0.0,0.0,0.0,0.0,0.0,0.0,0.0,0.0,0.0,0.0,0.0,0.0,0.0,0.0,0.0,0.0,0.0,0.0,0.0,0.0,0.0,0.0,0.0,0.0,0.0,0.0,0.0,0.0,0.0,0.0,-1.9219,-2.0333,-2.1154,-2.0418,-1.8008,-1.7834,-1.6076,0.0,0.0,0.0,0.0,0.0,0.0,0.0,0.0,0.0,0.0,0.0,0.0,0.0,0.0,0.0,0.0,0.0,0.0,0.0,0.0,0.0,0.0,0.0,0.0,0.0,0.0,0.0,0.0,0.0,0.0,0.0,0.0,0.0,0.0,0.0,0.0,0.0,0.0,0.0,0.0,0.0,0.0,0.0,0.0,0.0,0.0,0.0,0.0,0.0,0.0,0.0,0.0,0.0,0.0,0.0,0.0,0.0,0.0,0.0,0.0,0.0,0.0,0.0,0.0,0.0,0.0,0.0,0.0,0.0,0.0,0.0,0.0,0.0,0.0,0.0,0.0,0.0,0.0,0.0,0.0,0.0,0.0,0.0,0.0,0.0,0.0,0.0,0.0,0.0,0.0,0.0,0.0,0.0,0.0,0.0,0.0,0.0,0.0,0.0,0.0,0.0,0.0,0.0,0.0,0.0,0.0,0.0,0.0,0.0,-2.0424,-2.0475,-2.0888,-2.1515,-1.8652,-1.6745,0.0,0.0,0.0,0.0,0.0,0.0,0.0,0.0,0.0,0.0,0.0,0.0,0.0,0.0,0.0,0.0,0.0,0.0,0.0,0.0,0.0,0.0,0.0,0.0,0.0,0.0,0.0,0.0,0.0,0.0,0.0,0.0,0.0,0.0,0.0,0.0,0.0,0.0,0.0,0.0,0.0,0.0,0.0,0.0,0.0,0.0,0.0,0.0,0.0,0.0,0.0,0.0,0.0,0.0,0.0,0.0,0.0,0.0,0.0,0.0,0.0,0.0,0.0,0.0,0.0,0.0,0.0,0.0,0.0,0.0,0.0,0.0,0.0,0.0,0.0,0.0,0.0,0.0,0.0,0.0,0.0,0.0,0.0,0.0,0.0,0.0,0.0,0.0,0.0,0.0,0.0,0.0,0.0,0.0,0.0,0.0,0.0,0.0,0.0,0.0,0.0,0.0,0.0,0.0,0.0,0.0,0.0,0.0,0.0,-2.269,-2.2439,-2.2514,-2.297,-1.9576,-1.7614,-1.7343,0.0,0.0,0.0,0.0,0.0,0.0,0.0,0.0,0.0,0.0,0.0,0.0,0.0,0.0,0.0,0.0,0.0,0.0,0.0,0.0,0.0,0.0,0.0,0.0,0.0,0.0,0.0,0.0,0.0,0.0,0.0,0.0,0.0,0.0,0.0,0.0,0.0,0.0,0.0,0.0,0.0,0.0,0.0,0.0,0.0,0.0,0.0,0.0,0.0,0.0,0.0,0.0,0.0,0.0,0.0,0.0,0.0,0.0,0.0,0.0,0.0,0.0,0.0,0.0,0.0,0.0,0.0,0.0,0.0,0.0,0.0,0.0,0.0,0.0,0.0,0.0,0.0,0.0,0.0,0.0,0.0,0.0,0.0,0.0,0.0,0.0,0.0,0.0,0.0,0.0,0.0,0.0,0.0,0.0,0.0,0.0,0.0,0.0,0.0,0.0,0.0,0.0,0.0,0.0,0.0,0.0,0.0,0.0,-2.6588,-2.6527,-2.5279,-2.2835,-2.0764,-1.8797,0.0,0.0,0.0,0.0,0.0,0.0,0.0,0.0,0.0,0.0,0.0,0.0,0.0,0.0,0.0,0.0,0.0,0.0,0.0,0.0,0.0,0.0,0.0,0.0,0.0,0.0,0.0,0.0,0.0,0.0,0.0,0.0,0.0,0.0,0.0,0.0,0.0,0.0,0.0,0.0,0.0,0.0,0.0,0.0,0.0,0.0,0.0,0.0,0.0,0.0,0.0,0.0,0.0,0.0,0.0,0.0,0.0,0.0,0.0,0.0,0.0,0.0,0.0,0.0,0.0,0.0,0.0,0.0,0.0,0.0,0.0,0.0,0.0,0.0,0.0,0.0,0.0,0.0,0.0,0.0,0.0,0.0,0.0,0.0,0.0,0.0,0.0,0.0,0.0,0.0,0.0,0.0,0.0,0.0,0.0,0.0,0.0,0.0,0.0,0.0,0.0,0.0,0.0,0.0,0.0,0.0,0.0,0.0,0.0,-2.813,-2.9317,-2.9067,-2.725,-2.3762,-2.1158,0.0,0.0,0.0,0.0,0.0,0.0,0.0,0.0,0.0,0.0,0.0,0.0,0.0,0.0,0.0,0.0,0.0,0.0,0.0,0.0,0.0,0.0,0.0,0.0,0.0,0.0,0.0,0.0,0.0,0.0,0.0,0.0,0.0,0.0,0.0,0.0,0.0,0.0,0.0,0.0,0.0,0.0,0.0,0.0,0.0,0.0,0.0,0.0,0.0,0.0,0.0,0.0,0.0,0.0,0.0,0.0,0.0,0.0,0.0,0.0,0.0,0.0,0.0,0.0,0.0,0.0,0.0,0.0,0.0,0.0,0.0,0.0,0.0,0.0,0.0,0.0,0.0,0.0,0.0,0.0,0.0,0.0,0.0,0.0,0.0,0.0,0.0,0.0,0.0,0.0,0.0,0.0,0.0,0.0,0.0,0.0,0.0,0.0,0.0,0.0,0.0,0.0,0.0,0.0,0.0,0.0,0.0,0.0,-2.7348,-2.995,-3.1414,-3.1562,-3.0415,-2.6419,-2.3276,0.0,0.0,0.0,0.0,0.0,0.0,0.0,0.0,0.0,0.0,0.0,0.0,0.0,0.0,0.0,0.0,0.0,0.0,0.0,0.0,0.0,0.0,0.0,0.0,0.0,0.0,0.0,0.0,0.0,0.0,0.0,0.0,0.0,0.0,0.0,0.0,0.0,0.0,0.0,0.0,0.0,0.0,0.0,0.0,0.0,0.0,0.0,0.0,0.0,0.0,0.0,0.0,0.0,0.0,0.0,0.0,0.0,0.0,0.0,0.0,0.0,0.0,0.0,0.0,0.0,0.0,0.0,0.0,0.0,0.0,0.0,0.0,0.0,0.0,0.0,0.0,0.0,0.0,0.0,0.0,0.0,0.0,0.0,0.0,0.0,0.0,0.0,0.0,0.0,0.0,0.0,0.0,0.0,0.0,0.0,0.0,0.0,0.0,0.0,0.0,0.0,0.0,0.0,0.0,0.0,0.0,0.0,0.0,-2.8595,-3.1623,-3.2965,-3.3237,-3.2341,-2.8586,-2.5072,0.0,0.0,0.0,0.0,0.0,0.0,0.0,0.0,0.0,0.0,0.0,0.0,0.0,0.0,0.0,0.0,0.0,0.0,0.0,0.0,0.0,0.0,0.0,0.0,0.0,0.0,0.0,0.0,0.0,0.0,0.0,0.0,0.0,0.0,0.0,0.0,0.0,0.0,0.0,0.0,0.0,0.0,0.0,0.0,0.0,0.0,0.0,0.0,0.0,0.0,0.0,0.0,0.0,0.0,0.0,0.0,0.0,0.0,0.0,0.0,0.0,0.0,0.0,0.0,0.0,0.0,0.0,0.0,0.0,0.0,0.0,0.0,0.0,0.0,0.0,0.0,0.0,0.0,0.0,0.0,0.0,0.0,0.0,0.0,0.0,0.0,0.0,0.0,0.0,0.0,0.0,0.0,0.0,0.0,0.0,0.0,0.0,0.0,0.0,0.0,0.0,0.0,0.0,0.0,0.0,0.0,0.0,0.0,-3.0384,-3.1691,-3.3951,-3.4523,-3.3186,-2.9329,-2.5937,0.0,0.0,0.0,0.0,0.0,0.0,0.0,0.0,0.0,0.0,0.0,0.0,0.0,0.0,0.0,0.0,0.0,0.0,0.0,0.0,0.0,0.0,0.0,0.0,0.0,0.0,0.0,0.0,0.0,0.0,0.0,0.0,0.0,0.0,0.0,0.0,0.0,0.0,0.0,0.0,0.0,0.0,0.0,0.0,0.0,0.0,0.0,0.0,-1.1244,0.0,0.0,0.0,0.0,0.0,0.0,0.0,0.0,0.0,0.0,0.0,0.0,0.0,0.0,0.0,0.0,0.0,0.0,0.0,0.0,0.0,0.0,0.0,0.0,0.0,0.0,0.0,0.0,0.0,0.0,0.0,0.0,0.0,0.0,0.0,0.0,0.0,0.0,0.0,0.0,0.0,0.0,0.0,0.0,0.0,0.0,0.0,0.0,0.0,0.0,0.0,0.0,0.0,0.0,0.0,0.0,0.0,0.0,0.0,-3.1247,-3.3,-3.4711,-3.489,-3.3347,-3.0197,-2.7029,0.0,0.0,0.0,0.0,0.0,0.0,0.0,0.0,0.0,0.0,0.0,0.0,0.0,0.0,0.0,0.0,0.0,0.0,0.0,0.0,0.0,0.0,0.0,0.0,0.0,0.0,0.0,0.0,0.0,0.0,0.0,0.0,0.0,0.0,0.0,0.0,0.0,0.0,0.0,0.0,0.0,0.0,0.0,0.0,0.0,0.0,0.0,0.0,0.0,0.0,0.0,0.0,0.0,0.0,0.0,0.0,0.0,0.0,0.0,0.0,0.0,0.0,0.0,0.0,0.0,0.0,0.0,0.0,0.0,0.0,0.0,0.0,0.0,0.0,0.0,0.0,0.0,0.0,0.0,0.0,0.0,0.0,0.0,0.0,0.0,0.0,0.0,0.0,0.0,0.0,0.0,0.0,0.0,0.0,0.0,0.0,0.0,0.0,0.0,0.0,0.0,0.0,0.0,0.0,0.0,0.0,0.0,-2.9132,-3.1588,-3.4392,-3.5211,-3.489,-3.3419,-3.0931,-2.8031,-2.4744,0.0,0.0,0.0,0.0,0.0,0.0,0.0,0.0,0.0,0.0,0.0,0.0,0.0,0.0,0.0,0.0,0.0,0.0,0.0,0.0,0.0,0.0,0.0,0.0,0.0,0.0,0.0,0.0,0.0,0.0,0.0,0.0,0.0,0.0,0.0,0.0,0.0,0.0,-1.2669,-1.4174,0.0,0.0,0.0,0.0,0.0,0.0,0.0,0.0,-1.2662,0.0,0.0,0.0,0.0,0.0,0.0,0.0,0.0,0.0,0.0,0.0,0.0,0.0,0.0,0.0,0.0,0.0,0.0,0.0,0.0,0.0,0.0,0.0,0.0,0.0,0.0,0.0,0.0,0.0,0.0,0.0,0.0,0.0,0.0,0.0,0.0,0.0,0.0,0.0,0.0,0.0,0.0,0.0,0.0,0.0,0.0,0.0,0.0,0.0,0.0,0.0,0.0,0.0,0.0,0.0,0.0,-2.8571,-2.9881,-3.1796,-3.4426,-3.5233,-3.489,-3.3419,-3.0931,-2.8236,-2.5279,0.0,0.0,0.0,0.0,0.0,0.0,0.0,0.0,0.0,0.0,0.0,0.0,0.0,0.0,0.0,0.0,0.0,0.0,0.0,0.0,0.0,0.0,0.0,0.0,0.0,0.0,0.0,0.0,0.0,0.0,0.0,0.0,0.0,0.0,0.0,0.0,0.0,0.0,0.0,-1.6864,-1.8031,0.0,0.0,0.0,0.0,0.0,0.0,0.0,0.0,-1.353,0.0,0.0,0.0,0.0,0.0,0.0,0.0,0.0,0.0,0.0,0.0,0.0,0.0,0.0,0.0,0.0,0.0,0.0,0.0,0.0,0.0,0.0,0.0,0.0,0.0,0.0,0.0,0.0,0.0,0.0,0.0,0.0,0.0,0.0,0.0,0.0,0.0,0.0,0.0,0.0,0.0,0.0,0.0,0.0,0.0,0.0,0.0,0.0,0.0,0.0,0.0,0.0,0.0,0.0,0.0,-2.8825,-3.064,-3.2647,-3.4979,-3.5414,-3.489,-3.3419,-3.0645,-2.795,0.0,0.0,0.0,0.0,0.0,0.0,0.0,0.0,0.0,0.0,0.0,0.0,0.0,0.0,0.0,0.0,0.0,0.0,0.0,0.0,0.0,0.0,0.0,0.0,0.0,0.0,0.0,0.0,0.0,0.0,0.0,0.0,0.0,0.0,0.0,0.0,0.0,0.0,0.0,0.0,-1.7659,-1.8535,-1.911,0.0,0.0,0.0,0.0,0.0,0.0,-1.5475,-1.4515,0.0,0.0,0.0,0.0,0.0,0.0,0.0,0.0,0.0,0.0,0.0,0.0,0.0,0.0,0.0,0.0,0.0,0.0,0.0,0.0,0.0,0.0,0.0,0.0,0.0,0.0,0.0,0.0,0.0,0.0,0.0,0.0,0.0,0.0,0.0,0.0,0.0,0.0,0.0,0.0,0.0,0.0,0.0,0.0,0.0,0.0,0.0,0.0,0.0,0.0,0.0,0.0,0.0,0.0,0.0,-2.8908,-3.1024,-3.322,-3.5481,-3.5616,-3.4829,-3.3237,-3.0422,-2.7731,0.0,0.0,0.0,0.0,0.0,0.0,0.0,0.0,0.0,0.0,0.0,0.0,0.0,0.0,0.0,0.0,0.0,0.0,0.0,0.0,0.0,0.0,0.0,0.0,0.0,0.0,0.0,0.0,0.0,0.0,0.0,0.0,0.0,0.0,0.0,0.0,0.0,0.0,0.0,0.0,0.0,-1.911,-2.0221,-1.9152,0.0,0.0,0.0,0.0,-1.8138,-1.6853,0.0,0.0,0.0,0.0,0.0,0.0,0.0,0.0,0.0,0.0,0.0,0.0,0.0,0.0,0.0,0.0,0.0,0.0,0.0,0.0,0.0,0.0,0.0,0.0,0.0,0.0,0.0,0.0,0.0,0.0,0.0,0.0,0.0,0.0,0.0,0.0,0.0,0.0,0.0,0.0,0.0,0.0,0.0,0.0,0.0,0.0,0.0,0.0,0.0,0.0,0.0,0.0,0.0,0.0,0.0,0.0,-2.8857,-3.0514,-3.2713,-3.543,-3.5616,-3.4634,-3.2657,-3.057,-2.7966,0.0,0.0,0.0,0.0,0.0,0.0,0.0,0.0,0.0,0.0,0.0,0.0,0.0,0.0,0.0,0.0,0.0,0.0,0.0,0.0,0.0,0.0,0.0,0.0,0.0,0.0,0.0,0.0,0.0,0.0,0.0,0.0,0.0,0.0,0.0,0.0,0.0,0.0,0.0,0.0,0.0,-2.1353,-2.022,-1.9875,-1.9499,0.0,0.0,-1.8894,-1.9625,-1.8714,0.0,0.0,0.0,0.0,0.0,0.0,0.0,0.0,0.0,0.0,0.0,0.0,0.0,0.0,0.0,0.0,0.0,0.0,0.0,0.0,0.0,0.0,0.0,0.0,0.0,0.0,0.0,0.0,0.0,0.0,0.0,0.0,0.0,0.0,0.0,0.0,0.0,0.0,0.0,0.0,0.0,0.0,0.0,0.0,0.0,0.0,0.0,0.0,0.0,0.0,0.0,0.0,0.0,0.0,0.0,-2.5338,-2.8925,-3.1275,-3.3474,-3.5515,-3.5616,-3.4611,-3.2551,-3.0293,-2.7491,0.0,0.0,0.0,0.0,0.0,0.0,0.0,0.0,0.0,0.0,0.0,0.0,0.0,0.0,0.0,0.0,0.0,0.0,0.0,0.0,0.0,0.0,0.0,0.0,0.0,0.0,0.0,0.0,0.0,0.0,0.0,0.0,0.0,0.0,0.0,0.0,0.0,0.0,0.0,0.0,0.0,0.0,-2.0964,-2.1116,0.0,0.0,0.0,-2.0775,-2.0703,0.0,0.0,0.0,0.0,0.0,0.0,0.0,0.0,0.0,0.0,0.0,0.0,0.0,0.0,0.0,0.0,0.0,0.0,0.0,0.0,0.0,0.0,0.0,0.0,0.0,0.0,0.0,0.0,0.0,0.0,0.0,0.0,0.0,0.0,0.0,0.0,0.0,0.0,0.0,0.0,0.0,0.0,0.0,0.0,0.0,0.0,0.0,0.0,0.0,0.0,0.0,0.0,0.0,0.0,0.0,0.0,0.0,-2.8976,-3.1901,-3.4095,-3.5532,-3.5616,-3.4611,-3.2551,-3.0185,0.0,0.0,0.0,0.0,0.0,0.0,0.0,0.0,0.0,0.0,0.0,0.0,0.0,0.0,0.0,0.0,0.0,0.0,0.0,0.0,0.0,0.0,0.0,0.0,0.0,0.0,0.0,-0.8349,0.0,0.0,0.0,0.0,0.0,0.0,0.0,0.0,0.0,0.0,0.0,0.0,0.0,0.0,-2.1513,-2.1577,-2.2289,-2.2471,0.0,0.0,-2.2598,-2.1867,-2.1606,-2.0801,0.0,0.0,0.0,0.0,0.0,0.0,0.0,0.0,0.0,0.0,0.0,0.0,0.0,0.0,0.0,0.0,0.0,0.0,0.0,0.0,0.0,0.0,0.0,0.0,0.0,0.0,0.0,0.0,0.0,0.0,0.0,0.0,0.0,0.0,0.0,0.0,0.0,0.0,0.0,0.0,0.0,0.0,0.0,0.0,0.0,0.0,0.0,0.0,0.0,0.0,0.0,0.0,0.0,0.0,0.0,-2.8976,-3.1901,-3.4095,-3.5549,-3.5616,-3.4611,-3.2551,-3.0581,-2.7678,0.0,0.0,0.0,0.0,0.0,0.0,0.0,0.0,0.0,0.0,0.0,0.0,0.0,0.0,0.0,0.0,0.0,0.0,0.0,0.0,0.0,0.0,0.0,0.0,0.0,0.0,0.0,0.0,0.0,0.0,0.0,0.0,0.0,0.0,0.0,0.0,0.0,0.0,0.0,0.0,0.0,-2.2056,-2.1584,-2.3141,-2.415,0.0,0.0,-2.4101,-2.3359,-2.2863,-2.1675,-1.8949,0.0,0.0,0.0,0.0,0.0,0.0,0.0,0.0,0.0,0.0,0.0,0.0,0.0,0.0,0.0,0.0,0.0,0.0,0.0,0.0,0.0,0.0,0.0,0.0,0.0,0.0,0.0,0.0,0.0,0.0,0.0,0.0,0.0,0.0,0.0,0.0,0.0,0.0,0.0,0.0,0.0,0.0,0.0,0.0,0.0,0.0,0.0,0.0,0.0,0.0,0.0,0.0,0.0,-2.598,-2.8976,-3.1884,-3.4112,-3.5532,-3.5616,-3.4829,-3.3218,-3.0857,-2.7918,0.0,0.0,0.0,0.0,0.0,0.0,0.0,0.0,0.0,0.0,0.0,0.0,0.0,0.0,0.0,0.0,0.0,0.0,0.0,0.0,0.0,0.0,0.0,0.0,0.0,0.0,0.0,0.0,-1.1277,-1.1681,-1.1692,0.0,0.0,0.0,0.0,0.0,0.0,0.0,0.0,0.0,0.0,-2.2623,-2.2832,-2.4177,0.0,0.0,-2.4544,-2.4932,-2.4203,-2.3711,-2.2795,-2.0851,-1.9337,0.0,0.0,0.0,0.0,0.0,0.0,0.0,0.0,0.0,0.0,0.0,0.0,0.0,0.0,0.0,0.0,0.0,0.0,0.0,0.0,0.0,0.0,0.0,0.0,0.0,0.0,0.0,0.0,0.0,0.0,0.0,0.0,0.0,0.0,0.0,0.0,0.0,0.0,0.0,0.0,0.0,0.0,0.0,0.0,0.0,0.0,0.0,0.0,0.0,0.0,0.0,0.0,-2.5963,-2.8976,-3.1918,-3.4134,-3.5588,-3.5616,-3.5032,-3.3866,-3.1289,-2.8437,0.0,0.0,0.0,0.0,0.0,0.0,0.0,0.0,0.0,0.0,0.0,0.0,0.0,0.0,0.0,0.0,0.0,0.0,0.0,0.0,0.0,0.0,0.0,0.0,0.0,0.0,0.0,0.0,-1.2519,-1.2726,-1.2531,0.0,0.0,0.0,0.0,0.0,0.0,0.0,0.0,0.0,0.0,-2.298,-2.3732,-2.503,-2.5563,-2.4512,-2.5246,-2.5592,-2.4643,-2.4441,-2.3781,-2.1911,0.0,0.0,0.0,0.0,0.0,0.0,0.0,0.0,0.0,0.0,0.0,0.0,0.0,0.0,0.0,0.0,0.0,0.0,0.0,0.0,0.0,0.0,0.0,0.0,0.0,0.0,0.0,0.0,0.0,0.0,-1.8805,0.0,0.0,0.0,0.0,0.0,0.0,0.0,0.0,0.0,0.0,0.0,0.0,0.0,0.0,0.0,0.0,0.0,0.0,0.0,0.0,0.0,0.0,-2.5997,-2.8976,-3.1918,-3.4112,-3.5549,-3.56,-3.5222,-3.4418,-3.1921,-2.9291,-2.6512,0.0,0.0,0.0,0.0,0.0,0.0,0.0,0.0,0.0,0.0,0.0,0.0,0.0,0.0,0.0,0.0,0.0,0.0,0.0,0.0,0.0,0.0,0.0,0.0,0.0,0.0,-1.2741,-1.2801,-1.2576,0.0,0.0,0.0,0.0,0.0,0.0,0.0,0.0,0.0,0.0,-2.1436,-2.3047,-2.3971,-2.5572,-2.6454,-2.5966,-2.6333,-2.6167,-2.478,-2.5085,-2.4561,0.0,0.0,0.0,0.0,0.0,0.0,0.0,0.0,0.0,0.0,0.0,0.0,0.0,0.0,0.0,0.0,0.0,0.0,0.0,0.0,0.0,0.0,0.0,0.0,0.0,0.0,0.0,-2.4776,-2.3226,0.0,0.0,0.0,0.0,0.0,0.0,0.0,0.0,0.0,0.0,0.0,-2.8914,-2.8545,0.0,0.0,0.0,0.0,0.0,0.0,0.0,0.0,0.0,0.0,0.0,0.0,-2.6962,-2.9061,-3.2391,-3.4392,-3.4931,-3.5362,-3.5061,-3.3925,-3.1769,-2.8522,-2.4158,0.0,0.0,0.0,0.0,0.0,0.0,0.0,0.0,0.0,0.0,0.0,0.0,0.0,0.0,0.0,0.0,0.0,0.0,0.0,0.0,0.0,0.0,0.0,0.0,0.0,-1.3406,0.0,0.0,0.0,0.0,0.0,0.0,0.0,0.0,0.0,0.0,0.0,-1.9647,-2.2053,-2.2832,-2.3576,-2.4665,-2.5707,-2.6311,0.0,0.0,0.0,0.0,0.0,0.0,0.0,0.0,0.0,0.0,0.0,0.0,0.0,0.0,-2.0412,-1.6959,-1.5747,-1.5375,-1.5866,0.0,0.0,0.0,0.0,0.0,0.0,0.0,0.0,0.0,0.0,0.0,0.0,0.0,0.0,-2.7963,0.0,-2.6059,0.0,0.0,0.0,0.0,0.0,0.0,0.0,0.0,-3.0624,-3.1311,-3.1166,-3.0785,-3.0057,0.0,-2.8556,-2.6641,0.0,0.0,0.0,0.0,0.0,0.0,0.0,0.0,-2.7842,-3.0161,-3.3026,-3.4638,-3.4994,-3.5388,-3.4969,-3.3601,-3.1437,-2.8317,-2.4184,-2.2134,-2.0438,0.0,0.0,0.0,0.0,0.0,0.0,0.0,0.0,0.0,0.0,0.0,0.0,0.0,0.0,0.0,0.0,0.0,0.0,0.0,0.0,0.0,0.0,0.0,-1.4814,0.0,0.0,0.0,0.0,0.0,0.0,0.0,0.0,0.0,-1.8768,-1.983,-2.1504,-2.3997,-2.4354,-2.4788,-2.5787,0.0,0.0,0.0,0.0,0.0,0.0,0.0,-2.4859,-2.4715,-2.4641,-2.4328,-2.3417,-2.3752,-2.4002,-2.3477,0.0,0.0,-1.9684,-1.8437,-1.7997,-1.8211,-1.8257,-1.8398,-1.8894,-1.9198,-1.9355,0.0,0.0,0.0,0.0,0.0,0.0,0.0,0.0,-3.1579,-3.0928,0.0,-2.8991,0.0,0.0,0.0,0.0,0.0,0.0,0.0,0.0,-3.4114,-3.4821,-3.3503,-3.2897,-3.2587,-3.2542,-3.2497,-3.115,-2.8569,-2.4868,0.0,0.0,0.0,0.0,0.0,0.0,-2.8617,-3.2181,-3.3779,-3.4906,-3.5555,-3.558,-3.4919,-3.3508,-3.0992,-2.8655,-2.6666,-2.4672,-2.2478,-1.9962,-1.9121,0.0,0.0,0.0,0.0,0.0,0.0,0.0,0.0,0.0,0.0,0.0,0.0,0.0,0.0,0.0,0.0,0.0,0.0,0.0,0.0,-1.5979,0.0,0.0,0.0,0.0,0.0,0.0,0.0,0.0,0.0,0.0,-2.0899,-2.1711,-2.3086,-2.5227,0.0,0.0,0.0,0.0,-2.7814,-2.7295,-2.7174,-2.7118,-2.6945,-2.7014,-2.6766,-2.591,0.0,0.0,-2.4872,-2.5204,-2.5221,-2.3833,-2.4203,-2.4321,-2.3545,-2.2682,-2.204,-2.141,-2.1241,-2.1275,-2.1343,-2.1786,-2.2243,-3.6941,0.0,0.0,0.0,0.0,-3.5025,-3.5826,-3.739,-3.6606,-3.5165,-3.3231,-3.2855,0.0,0.0,0.0,0.0,0.0,0.0,-3.3508,-3.4289,-3.4623,-3.5056,-3.5642,-3.4984,-3.4397,-3.3933,-3.3934,-3.3051,-3.136,-2.978,-2.6611,-2.209,0.0,0.0,0.0,0.0,-3.0234,-3.2276,-3.4257,-3.4915,-3.4139,-3.4622,-3.4026,-3.2217,-3.0497,-2.8871,-2.7345,-2.5839,-2.4253,-2.2547,-2.0976,0.0,0.0,0.0,0.0,0.0,0.0,0.0,0.0,0.0,0.0,0.0,0.0,0.0,0.0,0.0,0.0,0.0,0.0,0.0,-1.598,-1.6488,-1.6741,0.0,0.0,0.0,0.0,0.0,0.0,0.0,0.0,0.0,-2.4462,-2.4518,-2.4837,0.0,0.0,-2.599,-2.6589,-2.6869,-2.711,-2.7366,0.0,0.0,0.0,-2.65,-2.5796,-2.5672,-2.6509,-2.7145,-2.7073,-2.714,-2.7029,-2.6573,-2.6285,-2.5828,-2.5118,-2.4374,-2.3831,-2.3594,-2.356,-2.3575,-2.356,-2.3746,-2.3712,-4.1979,-3.8819,-3.7375,-3.75,-3.8582,-3.8167,-3.8853,-4.0263,-3.9505,-3.8287,-3.6791,-3.6286,-3.4419,-3.1665,-3.1117,0.0,0.0,0.0,-3.52,-3.6308,-3.5799,-3.5949,-3.6515,-3.6125,-3.5534,-3.4906,-3.4891,-3.4337,-3.329,-3.2901,-3.0273,-2.5659,0.0,0.0,-2.6438,-2.917,-3.159,-3.3558,-3.4902,-3.5162,-3.4353,-3.3954,-3.3189,-3.1997,-3.0437,-2.9217,-2.8408,-2.6841,-2.5375,-2.4036,-2.2637,-2.0722,0.0,0.0,0.0,0.0,0.0,0.0,0.0,0.0,0.0,0.0,0.0,-1.2164,-1.0223,0.0,0.0,0.0,-1.4649,-1.6398,-1.797,-1.8216,0.0,0.0,0.0,0.0,0.0,0.0,0.0,-2.379,-2.4184,-2.4844,-2.6436,-2.6848,-2.7177,-2.7581,-2.7568,-2.7679,-2.7983,0.0,-2.8176,-2.8324,-2.8032,-2.7916,-2.823,-2.7356,-2.6655,-2.6738,-2.7294,-2.7842,-2.8114,-2.8246,-2.8256,-2.7975,-2.775,-2.7368,-2.6607,-2.6116,-2.5472,-2.4677,-2.4508,-2.4508,-2.4508,-2.4508,-2.4355,-4.5723,-4.4332,-4.1893,-4.0771,-4.0636,-4.0636,-4.095,-4.1399,-4.0816,-4.0516,-4.0382,-3.9185,-3.7584,-3.5731,-3.4469,0.0,0.0,-3.6378,-3.6972,-3.7473,-3.7439,-3.7105,-3.66,-3.6507,-3.6178,-3.5579,-3.5534,-3.5175,-3.4593,-3.4578,-3.332,-3.0864,-2.9397,-2.923,-3.0211,-3.0977,-3.276,-3.5554,-3.5521,-3.5459,-3.541,-3.3516,-3.2474,-3.24,-3.0591,-2.9577,-2.9472,-2.7619,-2.6004,-2.4739,-2.4014,-2.2188,-1.9151,0.0,0.0,0.0,0.0,0.0,0.0,0.0,0.0,0.0,0.0,0.0,0.0,0.0,0.0,0.0,-1.7311,0.0,-2.032,-2.0618,0.0,0.0,0.0,-2.0497,-2.1589,-2.1922,-2.2859,-2.4909,0.0,0.0,0.0,0.0,-2.9656,-2.9581,-3.0058,-3.0428,-3.0428,-3.031,-3.0236,-2.9579,-2.9577,-2.9565,-2.9342,-2.8855,-2.8333,-2.8222,-2.8463,-2.8428,-2.8361,-2.8686,-2.8788,-2.8349,-2.8603,-2.8702,-2.801,-2.7756,-2.7181,-2.5218,-2.4778,-2.4728,-2.4762,-2.4795,-2.4778,-4.7339,-4.6501,-4.5379,-4.4047,-4.2641,-4.2602,-4.2447,-4.2156,-4.2006,-4.1662,-4.113,-4.0816,-3.9858,-3.8457,-3.8282,-3.8098,-3.7887,-3.8608,-3.8699,-3.8282,-3.7662,-3.733,-3.7165,-3.6716,-3.6402,-3.6222,-3.5744,-3.5429,-3.5265,-3.5265,-3.4666,-3.359,-3.3171,-3.2416,-3.1327,-3.2372,-3.3794,-3.5507,-3.5491,-3.5026,-3.4015,-3.3006,-3.2031,-3.1013,-3.0093,-2.934,-2.8831,-2.7395,-2.6228,-2.5367,-2.4238,-2.2823,-2.1066,-1.939,0.0,0.0,0.0,0.0,0.0,0.0,0.0,0.0,0.0,-1.595,-1.3498,0.0,-1.7175,0.0,-1.8508,-1.9984,-2.1254,-2.1424,0.0,0.0,-2.298,-2.3718,-2.4964,-2.5185,-2.5768,-2.7242,-2.7843,-2.8359,-2.8944,-2.9766,-3.0278,-3.0262,-3.0003,-2.9833,-2.9791,-2.9833,-2.978,-2.9663,-2.9666,-2.96,-2.9554,-2.9038,-2.8445,-2.7906,-2.8189,-2.8473,-2.8444,-2.8465,-2.859,-2.8804,-2.8557,-2.8443,-2.863,-2.8247,-2.7705,-2.7097,-2.6573,-2.6183,-2.6183,-2.615,-2.5998,-4.8596,-4.7713,-4.7354,-4.6381,-4.505,-4.4411,-4.4003,-4.3698,-4.3399,-4.2851,-4.2222,-4.1677,-4.098,-4.0299,-4.0066,-3.9775,-3.9421,-3.9535,-3.9333,-3.893,-3.8512,-3.8138,-3.7838,-3.7494,-3.7045,-3.6477,-3.6118,-3.5789,-3.5519,-3.5489,-3.531,-3.4936,-3.4936,-3.4406,-3.3404,-3.3743,-3.4451,-3.5475,-3.5488,-3.4996,-3.3963,-3.329,-3.2302,-3.0972,-3.0073,-2.9307,-2.8622,-2.729,-2.6288,-2.563,-2.4612,-2.3475,-2.2209,-2.0797,-1.96,0.0,0.0,0.0,0.0,0.0,0.0,0.0,0.0,0.0,0.0,0.0,-1.8923,0.0,-2.1046,0.0,-2.3637,-2.3829,-2.4305,-2.527,-2.5614,-2.6184,-2.7224,-2.7321,-2.7701,-2.8718,-2.9185,-2.9579,-2.9953,-3.0552,-3.0956,-3.0928,-3.0672,-3.0447,-3.0447,-3.0462,-3.0447,-3.0447,-3.0447,-3.0328,-3.0058,-2.9205,-2.8472,-2.815,-2.8057,-2.8091,-2.81,-2.8256,-2.8519,-2.8804,-2.8981,-2.8971,-2.8758,-2.8848,-2.8682,-2.801,-2.7548,-2.7114,-2.6776,-2.6708,-2.6539,-4.9568,-4.8521,-4.8356,-4.7967,-4.7324,-4.6082,-4.5499,-4.5394,-4.4736,-4.4022,-4.3349,-4.2073,-4.1542,-4.1497,-4.0831,-4.0531,-4.0487,-3.9843,-3.9544,-3.9544,-3.9418,-3.9095,-3.8527,-3.8437,-3.7808,-3.6746,-3.6567,-3.6226,-3.5639,-3.5534,-3.5489,-3.5489,-3.5489,-3.5489,-3.5474,-3.4906,-3.4906,-3.5489,-3.5489,-3.5175,-3.4518,-3.3844,-3.2871,-3.1525,-3.0268,-2.9262,-2.8472,-2.726,-2.6288,-2.563,-2.5023,-2.4193,-2.3017,-2.2328,-2.1335,0.0,-1.9405,0.0,0.0,0.0,0.0,0.0,0.0,0.0,0.0,-2.0262,-2.1073,-2.2593,-2.4081,-2.5401,-2.639,-2.6717,-2.7091,-2.7645,-2.7809,-2.8124,-2.8742,-2.8846,-2.9101,-2.9744,-3.0313,-3.0642,-3.0657,-3.1152,-3.1496,-3.1451,-3.1421,-3.1376,-3.1466,-3.1421,-3.1391,-3.1496,-3.1496,-3.1137,-3.0522,-2.9579,-2.8846,-2.8607,-2.818,-2.7705,-2.765,-2.8027,-2.84,-2.8575,-2.9259,-2.9589,-2.8596,-2.9231,-2.9365,-2.8323,-2.7862,-2.7475,-2.7029,-2.6759,-2.6708,-5.0046,-4.9717,-4.8716,-4.8207,-4.8027,-4.7264,-4.6636,-4.6082,-4.5409,-4.4736,-4.4032,-4.2746,-4.2216,-4.2156,-4.1527,-4.119,-4.116,-4.0516,-4.0217,-4.0187,-3.9679,-3.9313,-3.92,-3.8661,-3.8272,-3.7973,-3.6985,-3.6432,-3.6297,-3.5774,-3.5489,-3.5489,-3.5489,-3.5489,-3.5489,0.0,0.0,0.0,-3.5489,-3.516,-3.4518,-3.3844,-3.2871,-3.1525,-3.0268,0.0,-2.7839,-2.7006,-2.6288,-2.5644,-2.5472,0.0,0.0,0.0,0.0,0.0,0.0,0.0,0.0,0.0,0.0,0.0,-2.3528,-2.2736,-2.15,-2.3266,-2.4642,-2.498,-2.624,-2.71,-2.7334,-2.789,-2.8263,-2.8397,-2.8903,-2.9445,-3.0058,-3.0133,-3.0402,-3.1047,-3.1241,-3.1301,-3.1286,-3.1451,-3.1496,-3.1496,-3.1496,-3.1496,-3.1496,-3.1496,-3.1496,-3.1496,-3.1496,-3.1256,-3.0612,-3.0268,-2.9684,-2.8906,-2.8532,-2.8229,-2.7775,-2.7705,-2.7984,-2.8383,-2.8685,-2.898,-2.9064,-2.8925,-2.8671,-2.8324,-2.775,-2.7378,-2.7528,-2.7114,-2.6708,-5.048,0.0,-4.9523,-4.888,0.0,-4.7923,-4.7414,-4.6728,-4.6097,-4.5259,-4.4272,-4.3614,-4.315,-4.2806,-4.2186,-4.1901,-4.1856,-4.0846,-4.0412,-4.0367,-3.9723,-3.9388,-3.9373,-3.9065,-3.8721,-3.8362,-3.7419,-3.6791,-3.6495,-3.5833,-3.5489,-3.5489,-3.5489,-3.5489,-3.5489,-3.5489,-3.5489,-3.5489,-3.5489,-3.534,-3.4981,-3.4337,-3.335,-3.2034,0.0,0.0,0.0,0.0,0.0,0.0,0.0,0.0,0.0,0.0,0.0,-2.4133,-2.414,-2.4253,-2.4605,-2.4934,-2.5398,-2.6019,-2.6393,-2.5899,-2.4238,-2.5944,-2.7096,-2.7111,-2.8019,-2.8723,-2.9037,-2.934,-2.9669,-2.9986,-3.0342,-3.0687,-3.0913,-3.0987,-3.1122,-3.1406,-3.1496,-3.1496,-3.1496,-3.1496,-3.1496,-3.1496,-3.1496,-3.1525,-3.1496,-3.1496,-3.1496,-3.1496,-3.1496,-3.1391,-3.1076,-3.0672,-3.0357,-2.9669,-2.9295,-2.8831,-2.8214,-2.8083,-2.8106,-2.8124,-2.8286,-2.8559,-2.8504,-2.8651,-2.8752,-2.8458,-2.804,-2.7806,-2.7964,-2.7207,-2.6427,-5.0868,-5.036,-5.0226,-4.9583,-4.8611,-4.8386,-4.7923,-4.7264,0.0,0.0,0.0,-4.4377,-4.3958,-4.326,-4.2776,-4.2575,-4.25,-4.1294,-4.0681,-4.0546,-3.9903,-3.9493,-3.9388,-3.9388,-3.9125,-3.8542,-3.7898,-3.7255,-3.6641,-3.5998,-3.5624,-3.5519,-3.5489,-3.5489,-3.5489,-3.5489,-3.5489,-3.5489,-3.5489,-3.5489,-3.5489,-3.4831,-3.3963,-3.2886,-3.1974,-3.0688,-2.9011,-2.8319,-2.7645,-2.6976,-2.6542,-2.6258,-2.6138,-2.6138,-2.6333,-2.6746,-2.6896,-2.721,-2.7735,-2.7899,-2.8004,-2.8094,-2.8712,-2.8562,-2.723,-2.8248,-2.8936,-2.8936,-2.9639,-3.0313,-3.0806,-3.0986,-3.124,-3.1809,-3.1854,-3.1854,-3.1854,-3.1854,-3.1884,-3.1854,-3.1914,-3.1854,-3.1914,-3.1914,-3.1839,-3.1854,-3.1959,-3.1839,-3.1824,-3.169,-3.1496,-3.1496,-3.1496,-3.1496,-3.1421,-3.1077,-3.0657,-3.0432,-3.0028,-2.9562,-2.8966,-2.8682,-2.8382,-2.7955,-2.8124,-2.8091,-2.7785,-2.8345,-2.8896,-2.8439,-2.8272,-2.8126,-2.7921,-2.7077,-2.6268,-5.1154,-5.1035,-5.042,-5.0091,-4.9822,-4.876,-4.7923,-4.7264,-4.6606,-4.5846,-4.5125,-4.4556,-4.3902,-4.3305,-4.3185,-4.3155,-4.311,-4.2417,-4.1826,0.0,-4.0561,-3.9963,-3.9403,-3.9388,-3.9328,-3.923,-3.8571,-3.7913,-3.7285,-3.6641,-3.6073,-3.5564,-3.5489,-3.5489,-3.5489,-3.5489,-3.5489,-3.5489,-3.5489,-3.5489,-3.5489,-3.4831,-3.4429,-3.4174,-3.2482,-3.1107,-3.0268,-2.9639,-2.9022,-2.8382,-2.8771,-2.8757,-2.8233,-2.8143,-2.7949,-2.754,-2.8019,-2.8368,-2.8487,-2.8992,-2.9547,-3.0073,-3.0688,-3.0539,-2.9325,-2.9819,-3.0238,-3.0283,-3.1345,-3.2123,-3.2258,-3.2677,-3.2991,-3.314,-3.32,-3.3215,-3.3155,-3.314,-3.314,-3.3125,-3.3215,-3.317,-3.311,-3.3125,-3.311,-3.317,-3.3006,-3.3155,-3.2946,-3.2213,-3.1585,-3.1496,-3.1496,-3.1496,-3.1481,-3.1451,-3.1107,-3.0597,-3.0477,-3.0178,-2.9549,-2.9071,-2.8682,-2.8457,-2.8147,-2.7801,-2.764,-2.771,-2.7894,-2.781,-2.7767,-2.758,-2.7148,-2.6745,-2.6436,-5.1229,-5.1184,-5.0853,-5.0524,-5.0091,-4.8835,-4.7923,-4.7294,-4.6995,-4.6471,-4.5813,-4.514,-4.4481,-4.3813,-4.3454,-4.3305,-4.326,-4.2671,-4.2246,-4.1886,-4.0876,-4.0232,-3.9933,-3.9553,-3.9388,-3.9343,-3.8706,-3.8227,-3.7883,-3.6956,-3.6342,-3.6028,-3.5684,-3.5489,-3.5489,-3.5489,-3.5489,-3.5489,-3.5489,-3.5489,-3.5489,-3.5205,-3.4861,-3.4518,-3.3559,-3.2632,-3.1629,-3.1315,-3.0702,-2.9669,-2.9924,-2.9804,-2.9175,-2.9157,-2.9146,-2.9175,-2.946,-2.9953,-3.0687,-3.133,-3.1824,-3.2123,-3.2407,-3.2362,-3.1764,-3.1958,-3.2123,-3.2138,-3.2721,-3.3036,-3.3051,-3.332,-3.3499,-3.3499,-3.3499,-3.3499,-3.3499,-3.3499,-3.3499,-3.3499,-3.3499,-3.3499,-3.3499,-3.3499,-3.3499,-3.3499,-3.3499,-3.3514,-3.3529,-3.3021,-3.2452,-3.2093,-3.175,-3.1525,-3.1496,-3.1496,-3.1361,-3.1062,-3.1032,-3.0791,-3.0238,-2.9774,-2.937,-2.8742,-2.8334,-2.8019,-2.772,-2.7585,-2.7585,-2.7585,-2.7585,-2.742,-2.718,-2.6896,-2.6537,-5.1229,-5.1229,-5.1229,-5.0779,-5.0091,-4.9,-4.8132,-4.7549,-4.7369,-4.7025,-4.6486,-4.5828,-4.508,-4.4302,-4.3738,-4.3439,-4.3245,-4.2806,-4.253,-4.2306,-4.1347,-4.0696,-4.0367,-3.9858,-3.9574,-3.9343,-3.8871,-3.8556,-3.8287,-3.7375,-3.6795,-3.6447,-3.5818,-3.5489,-3.5489,-3.5489,-3.5489,-3.5489,-3.5489,-3.5489,-3.5489,-3.5489,-3.525,-3.4756,-3.4578,-3.4024,-3.3021,-3.2811,-3.2258,-3.127,-3.118,-3.0956,-3.0507,-3.049,-3.0687,-3.112,-3.118,-3.1629,-3.2632,-3.32,-3.3499,-3.3499,-3.3634,-3.3709,-3.3724,-3.3858,-3.3799,-3.3574,-3.3604,-3.3724,-3.3739,-3.3903,-3.3948,-3.3948,-3.3948,-3.4038,-3.3963,-3.3948,-3.3963,-3.3948,-3.3948,-3.3993,-3.3948,-3.3948,-3.4008,-3.4038,-3.3948,-3.3948,-3.3948,-3.3844,-3.3469,-3.2991,-3.2258,-3.1705,-3.1555,-3.1496,-3.1496,-3.1496,-3.1466,-3.1227,-3.0836,-3.0642,-3.0208,-2.928,-2.8771,-2.8427,-2.7944,-2.769,-2.7615,-2.7585,-2.7585,-2.7585,-2.7525,-2.721,-2.6763,-5.1229,-5.1229,-5.1229,-5.0794,-5.0136,-4.9479,-4.879,-4.8132,-4.7578,-4.7279,-4.7115,-4.6531,-4.5529,-4.4381,-4.4242,-4.3843,-4.3349,-4.323,-4.2925,-4.247,-4.2276,-4.1564,-4.0516,-4.0322,-3.9993,-3.9448,-3.9334,-3.8975,-3.8467,-3.8257,-3.7599,-3.6537,-3.5833,-3.5519,-3.5489,-3.5489,-3.5489,-3.5489,-3.5489,-3.5489,-3.5489,-3.5489,-3.5474,-3.5415,-3.4833,-3.4459,-3.4247,-3.3724,-3.335,-3.323,-3.3185,-3.317,-3.308,-3.3095,-3.314,-3.317,-3.317,-3.329,-3.341,-3.3469,-3.3559,-3.3544,-3.4114,-3.4414,-3.4444,-3.4951,-3.4771,-3.3948,-3.4068,-3.4399,-3.4444,-3.4891,-3.5175,-3.513,-3.5175,-3.5325,-3.522,-3.5325,-3.5325,-3.5325,-3.516,-3.5295,-3.516,-3.5145,-3.5205,-3.51,-3.507,-3.507,-3.5055,-3.4696,-3.4354,-3.4053,-3.326,-3.2273,-3.1795,-3.1525,-3.16,-3.157,-3.1511,-3.1421,-3.1227,-3.0868,-3.0387,-3.0058,-2.9385,-2.8771,-2.8457,-2.8053,-2.769,-2.772,-2.769,-2.7585,-2.7585,-2.7495,-2.724,-5.1573,-5.1229,-5.1229,-5.0794,-5.0196,-4.9927,-4.9254,-4.8282,-4.8012,-4.7668,-4.7294,-4.7025,-4.6381,-4.5454,-4.4691,-4.4152,-4.3858,-4.3469,-4.3155,-4.291,-4.259,-4.2111,-4.1572,-4.0726,-4.0247,-3.9963,-3.9619,-3.926,-3.8975,-3.8586,-3.7734,-3.6596,-3.6207,-3.5893,-3.5534,-3.5489,-3.5489,-3.5489,-3.5489,-3.5489,-3.5489,-3.5489,-3.5489,-3.5474,-3.5235,-3.5085,-3.507,-3.4816,-3.4487,-3.4128,-3.4099,-3.3888,-3.3514,-3.3499,-3.3499,-3.3514,-3.3904,-3.4114,-3.4099,-3.4457,-3.4681,-3.4681,-3.4921,-3.5085,-3.51,-3.5355,-3.525,-3.4861,-3.4936,-3.5085,-3.51,-3.534,-3.5489,-3.5489,-3.5489,-3.5489,-3.5489,-3.5489,-3.5489,-3.5489,-3.5489,-3.5489,-3.5489,-3.5489,-3.5489,-3.5489,-3.5489,-3.5489,-3.5474,-3.525,-3.4968,-3.4563,-3.3993,-3.3455,-3.2781,-3.2303,-3.2138,-3.2019,-3.175,-3.1511,-3.1436,-3.1331,-3.0987,-3.0612,-3.0028,-2.9505,-2.9262,-2.8996,-2.8708,-2.8393,-2.7779,-2.7585,-2.7585,-2.7585,-2.7435,-5.1813,-5.1274,-5.1229,-5.0898,-5.045,-5.0255,-4.9657,-4.882,-4.8446,-4.8012,-4.7578,-4.7384,-4.704,-4.6471,-4.5379,-4.4676,-4.4272,-4.3783,-4.3469,-4.326,-4.2836,-4.2575,-4.2306,-4.1467,-4.0741,-4.0367,-3.9933,-3.9568,-3.9379,-3.8721,-3.7913,-3.7124,-3.6671,-3.6252,-3.5818,-3.5639,-3.5489,-3.5489,-3.5489,-3.5489,-3.5489,-3.5489,-3.5489,-3.5489,-3.5489,-3.5489,-3.5489,-3.5489,-3.528,-3.4833,-3.4756,-3.4547,-3.4098,-3.4053,-3.4053,-3.4068,-3.4487,-3.4756,-3.4771,-3.522,-3.5489,-3.5489,-3.5489,-3.5489,-3.5489,-3.5489,-3.5489,-3.5459,-3.5489,-3.5474,-3.5489,-3.5489,-3.5489,-3.5489,-3.5489,-3.5489,-3.5489,-3.5489,-3.5489,-3.5489,-3.5489,-3.5489,-3.5489,-3.5489,-3.5489,-3.5489,-3.5489,-3.5489,-3.5489,-3.5474,-3.5295,-3.4863,-3.4756,-3.4367,-3.3649,-3.2871,-3.2572,-3.2348,-3.1944,-3.1511,-3.1496,-3.1496,-3.1466,-3.0972,-3.0731,-3.0387,-2.9894,-2.9714,-2.949,-2.8936,-2.8378,-2.7944,-2.7974,-2.7794,-2.7615,-5.1813,-5.1259,-5.1229,-5.1184,-5.1124,-5.048,-5.0166,-4.9897,-4.8835,-4.8282,-4.8117,-4.7563,-4.7294,-4.7189,-4.6456,-4.5514,-4.4466,-4.4287,-4.3873,-4.3379,-4.3245,-4.294,-4.241,-4.2321,-4.1662,-4.0621,-4.0352,-3.9978,-3.9358,-3.8751,-3.8377,-3.8212,-3.7165,-3.6507,-3.6327,-3.5833,-3.5519,-3.5519,-3.5489,-3.5489,-3.5489,-3.5489,-3.5489,-3.5489,-3.5489,-3.5489,-3.5489,-3.5489,-3.5459,-3.5444,-3.5415,-3.5385,-3.537,-3.5355,-3.5325,-3.534,-3.54,-3.5429,-3.5415,-3.5459,-3.5489,-3.5489,-3.5489,-3.5489,-3.5489,-3.5489,-3.5489,-3.5489,-3.5489,-3.5489,-3.5489,-3.5489,-3.5489,-3.5489,-3.5489,-3.5489,-3.5489,-3.5489,-3.5489,-3.5489,-3.5489,-3.5489,-3.5489,-3.5489,-3.5489,-3.5489,-3.5489,-3.5489,-3.5489,-3.5489,-3.5444,-3.5415,-3.5295,-3.5011,-3.3799,-3.3245,-3.2811,-3.2497,-3.2198,-3.154,-3.1511,-3.1481,-3.1451,-3.1331,-3.0943,-3.0642,-3.0402,-3.0118,-2.9774,-2.9355,-2.8966,-2.8637,-2.8562,-2.8019,-2.7839,-5.2202,-5.1229,-5.1229,-5.1229,-5.1199,-5.096,-5.0584,-5.0121,-4.9299,-4.8656,-4.8222,-4.7593,-4.7309,-4.7309,-4.707,-4.6456,-4.5559,-4.4721,-4.4182,-4.3873,-4.3499,-4.3155,-4.2985,-4.262,-4.2201,-4.1662,-4.0801,-4.0053,-3.9433,-3.917,-3.8811,-3.8407,-3.7958,-3.733,-3.6596,-3.6252,-3.5938,-3.5549,-3.5489,-3.5489,-3.5489,-3.5489,-3.5489,-3.5489,-3.5489,-3.5489,-3.5489,-3.5489,-3.5489,-3.5489,-3.5489,-3.5489,-3.5489,-3.5489,-3.5489,-3.5489,-3.5489,-3.5489,-3.5489,-3.5489,-3.5489,-3.5489,-3.5489,-3.5489,-3.5489,-3.5489,-3.5489,-3.5489,-3.5489,-3.5489,-3.5489,-3.5489,-3.5489,-3.5489,-3.5489,-3.5489,-3.5489,-3.5489,-3.5489,-3.5489,-3.5489,-3.5489,-3.5489,-3.5489,-3.5489,-3.5489,-3.5489,-3.5489,-3.5489,-3.5489,-3.5489,-3.5489,-3.5489,-3.534,-3.4966,-3.4233,-3.3664,-3.3125,-3.2617,-3.2004,-3.175,-3.163,-3.157,-3.1466,-3.1122,-3.1047,-3.0911,-3.0612,-3.0253,-3.0073,-2.9669,-2.9295,-2.9235,-2.8813,-2.8543,-5.2217,-5.1304,-5.1229,-5.1229,-5.1229,-5.1229,-5.0975,-5.0435,-4.9853,-4.9209,-4.8551,-4.7908,-4.7519,-4.7324,-4.7309,-4.7085,-4.6546,-4.5484,-4.4736,-4.4246,-4.3853,-4.3499,-4.3245,-4.2895,-4.2605,-4.2216,-4.104,-4.0068,-3.9448,-3.9388,-3.9134,-3.8751,-3.8512,-3.7973,-3.718,-3.6716,-3.6237,-3.5863,-3.5624,-3.5489,-3.5489,-3.5489,-3.5489,-3.5489,-3.5489,-3.5489,-3.5489,-3.5489,-3.5489,-3.5489,-3.5489,-3.5489,-3.5489,-3.5489,-3.5489,-3.5489,-3.5489,-3.5489,-3.5489,-3.5489,-3.5489,-3.5489,-3.5489,-3.5489,-3.5489,-3.5489,-3.5489,-3.5489,-3.5489,-3.5489,-3.5489,-3.5489,-3.5489,-3.5489,-3.5489,-3.5489,-3.5489,-3.5489,-3.5489,-3.5489,-3.5489,-3.5489,-3.5489,-3.5489,-3.5489,-3.5489,-3.5489,-3.5489,-3.5489,-3.5489,-3.5489,-3.5489,-3.5489,-3.5489,-3.531,-3.4876,-3.4429,-3.3873,-3.326,-3.2602,-3.2079,-3.1914,-3.172,-3.1585,-3.1496,-3.1496,-3.1346,-3.1062,-3.0898,-3.0776,-3.0357,-2.9894,-2.9789,-2.9654,-2.925,-5.1858,-5.1304,-5.1229,-5.1229,-5.1229,-5.1229,-5.1167,-5.105,-5.042,-4.9793,-4.9224,-4.8536,-4.7893,-4.7444,-4.7339,-4.7279,-4.71,-4.6501,-4.5603,-4.4571,-4.4317,-4.3888,-4.3394,-4.326,-4.291,-4.2366,-4.1055,-4.0113,-3.9508,-3.9433,-3.9343,-3.9224,-3.8751,-3.8407,-3.8317,-3.721,-3.6567,-3.6327,-3.5878,-3.5549,-3.5489,-3.5489,-3.5489,-3.5489,-3.5489,-3.5489,-3.5489,-3.5489,-3.5489,-3.5489,-3.5489,-3.5489,-3.5489,-3.5489,-3.5489,-3.5489,-3.5489,-3.5489,-3.5489,-3.5489,-3.5489,-3.5489,-3.5489,-3.5489,-3.5489,-3.5489,-3.5489,-3.5489,-3.5489,-3.5489,-3.5489,-3.5489,-3.5489,-3.5489,-3.5489,-3.5489,-3.5489,-3.5489,-3.5489,-3.5489,-3.5489,-3.5489,-3.5489,-3.5489,-3.5489,-3.5489,-3.5489,-3.5489,-3.5489,-3.5489,-3.5489,-3.5489,-3.5489,-3.5489,-3.5489,-3.5429,-3.5026,-3.4577,-3.3918,-3.329,-3.2796,-3.2512,-3.2183,-3.1989,-3.1555,-3.1525,-3.1496,-3.1256,-3.1301,-3.1137,-3.0761,-3.0507,-3.0447,-3.0268,-2.9684,-5.2486,-5.1858,-5.1409,-5.1229,-5.1229,-5.1229,-5.1229,-5.1154,-5.0465,-5.0076,-4.9763,-4.8775,-4.8162,-4.7908,-4.7534,-4.7309,-4.7294,-4.7055,-4.6516,-4.5663,-4.4751,-4.4212,-4.3958,-4.3499,-4.2985,-4.2366,-4.1504,-4.0741,-4.0127,-3.9612,-3.9388,-3.9313,-3.92,-3.8841,-3.8422,-3.7973,-3.7434,-3.6537,-3.6297,-3.5983,-3.5549,-3.5504,-3.5504,-3.5489,-3.5489,-3.5489,-3.5489,-3.5489,-3.5489,-3.5489,-3.5489,-3.5489,-3.5489,-3.5489,-3.5489,-3.5489,-3.5489,-3.5489,-3.5489,-3.5489,-3.5489,-3.5489,-3.5489,-3.5489,-3.5489,-3.5519,-3.5519,-3.5519,-3.5504,-3.5489,-3.5489,-3.5489,-3.5564,-3.5504,-3.5489,-3.5489,-3.5489,-3.5489,-3.5489,-3.5489,-3.5489,-3.5489,-3.5489,-3.5489,-3.5489,-3.5489,-3.5489,-3.5489,-3.5489,-3.5489,-3.5489,-3.5489,-3.5489,-3.5489,-3.5489,-3.5489,-3.5295,-3.5011,-3.4532,-3.3933,-3.3455,-3.314,-3.2826,-3.2348,-3.1899,-3.163,-3.1585,-3.1496,-3.1496,-3.1496,-3.1197,-3.1092,-3.1137,-3.0793,-3.0255,-5.3025,-5.2172,-5.1753,-5.1439,-5.1244,-5.1229,-5.1229,-5.1154,-5.0734,-5.042,-5.0031,-4.9389,-4.8716,-4.8282,-4.7833,-4.7534,-4.7339,-4.7309,-4.71,-4.6516,-4.5289,-4.4571,-4.4272,-4.3604,-4.3,-4.244,-4.1976,-4.1399,-4.0756,-4.0127,-3.9798,-3.9768,-3.9523,-3.9215,-3.8766,-3.8497,-3.7928,-3.7255,-3.6956,-3.6522,-3.6013,-3.5878,-3.5759,-3.5549,-3.5489,-3.5489,-3.5489,-3.5489,-3.5489,-3.5489,-3.5489,-3.5489,-3.5489,-3.5489,-3.5489,-3.5489,-3.5489,-3.5489,-3.5489,-3.5489,-3.5489,-3.5489,-3.5489,-3.5489,-3.5549,-3.5669,-3.5863,-3.5878,-3.6118,-3.6207,-3.6222,-3.6237,-3.6207,-3.6222,-3.5759,-3.5534,-3.5489,-3.5489,-3.5489,-3.5489,-3.5489,-3.5489,-3.5489,-3.5489,-3.5489,-3.5489,-3.5489,-3.5489,-3.5489,-3.5489,-3.5489,-3.5489,-3.5489,-3.5489,-3.5489,-3.5489,-3.5489,-3.5325,-3.51,-3.4547,-3.4069,-3.3888,-3.3649,-3.2991,-3.2452,-3.2123,-3.2019,-3.163,-3.1496,-3.1496,-3.1615,-3.1421,-3.1331,-3.1376,-3.0943,-5.3458,-5.2366,-5.2217,-5.1828,-5.1334,-5.1244,-5.1229,-5.1214,-5.1184,-5.0808,-5.0345,-5.0091,-4.9464,-4.8566,-4.8267,-4.7878,-4.7399,-4.7309,-4.7294,-4.6905,-4.5948,-4.5035,-4.4302,-4.3604,-4.3045,-4.2566,-4.2396,-4.2021,-4.1429,-4.0771,-4.0427,-4.0277,-3.9813,-3.9439,-3.926,-3.8751,-3.8437,-3.8167,-3.7719,-3.7165,-3.6582,-3.6537,-3.6297,-3.5744,-3.5744,-3.5759,-3.5804,-3.5818,-3.5669,-3.5519,-3.5489,-3.5489,-3.5489,-3.5489,-3.5504,-3.5609,-3.5564,-3.5684,-3.5639,-3.5818,-3.5789,-3.5804,-3.5818,-3.5609,-3.5848,-3.6267,-3.6522,-3.6567,-3.6956,-3.7285,-3.7255,-3.724,-3.7255,-3.7225,-3.6417,-3.5848,-3.5594,-3.5609,-3.5624,-3.5534,-3.5489,-3.5489,-3.5489,-3.5489,-3.5489,-3.5489,-3.5489,-3.5489,-3.5489,-3.5489,-3.5489,-3.5489,-3.5489,-3.5489,-3.5489,-3.5489,-3.5489,-3.5444,-3.534,-3.5026,-3.4608,-3.4474,-3.4262,-3.3619,-3.3066,-3.2736,-3.2497,-3.2183,-3.1989,-3.2079,-3.1974,-3.166,-3.157,-3.1645,-3.1452,-5.4012,-5.3578,-5.2621,-5.2097,-5.1858,-5.1439,-5.1229,-5.1229,-5.1229,-5.1109,-5.0823,-5.039,-4.9823,-4.906,-4.855,-4.7938,-4.7474,-4.7309,-4.7309,-4.7174,-4.6471,-4.5394,-4.4377,-4.3618,-4.3215,-4.3015,-4.2611,-4.2321,-4.2096,-4.1482,-4.092,-4.0412,-4.0277,-3.9888,-3.9439,-3.9245,-3.8871,-3.8452,-3.8257,-3.7808,-3.7285,-3.718,-3.709,-3.6956,-3.6866,-3.6866,-3.6896,-3.6911,-3.6417,-3.5564,-3.5489,-3.5489,-3.5579,-3.5594,-3.5804,-3.6148,-3.6237,-3.6432,-3.6776,-3.6851,-3.6866,-3.6911,-3.6776,-3.6896,-3.6911,-3.706,-3.7165,-3.7195,-3.7345,-3.7449,-3.7434,-3.7464,-3.7449,-3.7375,-3.712,-3.6731,-3.6327,-3.6222,-3.6058,-3.5624,-3.5564,-3.5594,-3.5564,-3.5564,-3.5534,-3.5519,-3.5489,-3.5489,-3.5489,-3.5489,-3.5489,-3.5489,-3.5489,-3.5489,-3.5489,-3.5489,-3.5489,-3.5489,-3.5459,-3.5415,-3.504,-3.4833,-3.4593,-3.4204,-3.3649,-3.326,-3.323,-3.3095,-3.2976,-3.2662,-3.2482,-3.2243,-3.2049,-3.2004,-3.175,-5.4476,-5.4117,-5.3054,-5.2441,-5.2127,-5.1498,-5.1229,-5.1229,-5.1229,-5.1229,-5.1124,-5.0808,-5.024,-4.9643,-4.9,-4.8327,-4.7743,-4.7414,-4.7309,-4.7189,-4.6606,-4.5574,-4.4496,-4.3883,-4.3574,-4.326,-4.2955,-4.2791,-4.2656,-4.2156,-4.1632,-4.1265,-4.095,-4.0487,-3.9903,-3.9813,-3.9484,-3.8945,-3.8796,-3.8497,-3.7883,-3.7823,-3.7614,-3.7494,-3.7404,-3.7404,-3.7389,-3.7389,-3.7015,-3.6462,-3.6327,-3.6312,-3.6312,-3.6312,-3.6507,-3.6866,-3.6866,-3.7045,-3.73,-3.7404,-3.7404,-3.7389,-3.7404,-3.7404,-3.7449,-3.7629,-3.7823,-3.7823,-3.8063,-3.8227,-3.8257,-3.8257,-3.8242,-3.8302,-3.8242,-3.7868,-3.7,-3.6881,-3.6701,-3.6417,-3.6297,-3.6163,-3.5968,-3.5923,-3.5774,-3.5594,-3.5489,-3.5489,-3.5489,-3.5504,-3.5489,-3.5489,-3.5489,-3.5489,-3.5489,-3.5489,-3.5489,-3.5489,-3.5489,-3.5489,-3.5242,-3.5021,-3.5043,-3.4743,-3.4218,-3.3903,-3.3903,-3.3754,-3.338,-3.314,-3.3021,-3.287,-3.2676,-3.1926,-3.1706,-5.485,-5.4251,-5.3488,-5.283,-5.2247,-5.1543,-5.1229,-5.1229,-5.1229,-5.1229,-5.1214,-5.1214,-5.0704,-5.0166,-4.9583,-4.8955,-4.8237,-4.7713,-4.7429,-4.7189,-4.6696,-4.5843,-4.4855,-4.4541,-4.4052,-4.3574,-4.3409,-4.3305,-4.315,-4.2686,-4.2455,-4.2141,-4.1722,-4.116,-4.0576,-4.0397,-4.0068,-3.9604,-3.9349,-3.905,-3.8601,-3.8482,-3.8287,-3.7958,-3.7853,-3.7804,-3.7759,-3.7734,-3.7659,-3.7629,-3.7509,-3.73,-3.733,-3.736,-3.7449,-3.7494,-3.7524,-3.7569,-3.7674,-3.7808,-3.7719,-3.7778,-3.7764,-3.7629,-3.7868,-3.8242,-3.8497,-3.8497,-3.9065,-3.9185,-3.9194,-3.9284,-3.9209,-3.9134,-3.929,-3.8745,-3.7938,-3.7554,-3.7479,-3.7419,-3.7375,-3.7105,-3.6791,-3.6537,-3.6387,-3.6282,-3.6088,-3.6028,-3.5953,-3.5863,-3.5714,-3.5489,-3.5489,-3.5489,-3.5489,-3.5489,-3.5489,-3.5489,-3.5489,-3.5424,-3.5133,-3.5047,-3.5317,-3.522,-3.4801,-3.4592,-3.4577,-3.4307,-3.3716,-3.3317,-3.3047,-3.3166,-3.3175,-3.1977,-3.1371,-5.5119,-5.488,-5.3683,-5.3099,-5.28,-5.1738,-5.1229,-5.1229,-5.1229,-5.1229,-5.1229,-5.1229,-5.0808,-5.0211,-5.0032,-4.9404,-4.8401,-4.8057,-4.7833,-4.7309,-4.7204,-4.6666,-4.5873,-4.5409,-4.4751,-4.4242,-4.4067,-4.3798,-4.3364,-4.318,-4.2851,-4.244,-4.2291,-4.1871,-4.1257,-4.0756,-4.0367,-4.0113,-3.9709,-3.9409,-3.926,-3.9155,-3.905,-3.8871,-3.885,-3.891,-3.8975,-3.899,-3.899,-3.8736,-3.8063,-3.7569,-3.7569,-3.7524,-3.7734,-3.8078,-3.8197,-3.8407,-3.8826,-3.8835,-3.896,-3.882,-3.8811,-3.899,-3.8955,-3.9,-3.917,-3.9179,-3.9298,-3.9388,-3.9388,-3.9388,-3.9388,-3.9388,-3.9373,-3.9284,-3.896,-3.8482,-3.8033,-3.7644,-3.7509,-3.7375,-3.7255,-3.7225,-3.7105,-3.7,-3.6851,-3.6731,-3.6507,-3.6282,-3.5998,-3.5729,-3.5504,-3.5504,-3.5424,-3.5279,-3.4953,-3.4839,-3.4839,-3.4872,-3.4576,-3.4658,-3.4773,-3.5085,-3.54,-3.5138,-3.4445,-3.4259,-3.3593,-3.3321,-3.3025,-3.2967,-3.2672,-3.171,-3.145,-5.5194,-5.5074,-5.4087,-5.3473,-5.3054,-5.2112,-5.1498,-5.1259,-5.1229,-5.1229,-5.1229,-5.1229,-5.102,-5.0629,-5.03,-4.9673,-4.8775,-4.8057,-4.7638,-4.7354,-4.7294,-4.7115,-4.686,-4.6367,-4.5783,-4.49,-4.4421,-4.4092,-4.3823,-4.3479,-4.311,-4.2851,-4.2791,-4.2462,-4.1976,-4.1497,-4.119,-4.0786,-4.0217,-3.9873,-3.9858,-3.9523,-3.9388,-3.9388,-3.9388,-3.9388,-3.9343,-3.9358,-3.9373,-3.9209,-3.8701,-3.8332,-3.8362,-3.8332,-3.8542,-3.8781,-3.8871,-3.9005,-3.9313,-3.9388,-3.9343,-3.9403,-3.9388,-3.9388,-3.9388,-3.9388,-3.9388,-3.9388,-3.9388,-3.9388,-3.9388,-3.9388,-3.9388,-3.9388,-3.9403,-3.9388,-3.9328,-3.908,-3.8781,-3.8422,-3.8387,-3.8197,-3.8048,-3.7913,-3.7614,-3.7404,-3.7285,-3.715,-3.6941,-3.6686,-3.6357,-3.6058,-3.5684,-3.5487,-3.5359,-3.4986,-3.4293,-3.4007,-3.3685,-3.3636,-3.3463,-3.3685,-3.3973,-3.4211,-3.438,-3.4061,-3.3522,-3.3449,-3.3345,-3.3009,-3.2723,-3.2583,-3.2257,-3.1623,-3.1694,-5.5194,-5.5134,-5.4476,-5.3817,-5.3144,-5.2471,-5.1798,-5.1274,-5.1229,-5.1229,-5.1229,-5.1229,-5.1184,-5.1079,-5.0676,-5.0017,-4.909,-4.8132,-4.7563,-4.7324,-4.7309,-4.7264,-4.7174,-4.7025,-4.6651,-4.5589,-4.5065,-4.4676,-4.4197,-4.3753,-4.3439,-4.3305,-4.3275,-4.2985,-4.2596,-4.2381,-4.2036,-4.1527,-4.0891,-4.0546,-4.0427,-3.9963,-3.9634,-3.9388,-3.9388,-3.9388,-3.9388,-3.9388,-3.9388,-3.9388,-3.9388,-3.9388,-3.9388,-3.9388,-3.9388,-3.9358,-3.9298,-3.9328,-3.9358,-3.9403,-3.9418,-3.9478,-3.9553,-3.9657,-3.9732,-3.9903,-3.9918,-3.9873,-3.9903,-3.9903,-3.9702,-3.9903,-3.9858,-3.9783,-3.9709,-3.9574,-3.9544,-3.9478,-3.932,-3.9269,-3.9029,-3.8841,-3.8691,-3.8542,-3.8167,-3.7853,-3.7749,-3.7599,-3.7404,-3.721,-3.6956,-3.6537,-3.6178,-3.52,-3.4964,-3.4654,-3.3988,-3.3255,-3.2784,-3.2607,-3.2486,-3.2571,-3.2784,-3.2925,-3.2947,-3.282,-3.2713,-3.2558,-3.2486,-3.2429,-3.21,-3.1653,-3.1512,-3.1486,-3.1721,-5.5194,-5.5134,-5.4491,-5.3817,-5.3144,-5.2486,-5.1843,-5.1289,-5.1229,-5.1229,-5.1229,-5.1229,-5.1229,-5.1169,-5.1154,-5.0406,-4.9359,-4.8416,-4.7803,-4.7429,-4.7339,-4.7309,-4.7309,-4.7294,-4.71,-4.6905,-4.6232,-4.5424,-4.4631,-4.4182,-4.3798,-4.3424,-4.3305,-4.3155,-4.3,-4.2686,-4.2455,-4.2171,-4.1564,-4.1235,-4.0904,-4.0412,-3.9824,-3.9533,-3.954,-3.9582,-3.9544,-3.9448,-3.9388,-3.9388,-3.9388,-3.9433,-3.9523,-3.9523,-3.9508,-3.9493,-3.9568,-3.9679,-3.9664,-3.9529,-3.9717,-4.0068,-4.0232,-4.0531,-4.0816,-4.0965,-4.0816,-4.0876,-4.0905,-4.098,-4.1055,-4.0861,-4.0995,-4.0943,-4.0546,-4.0247,-4.0142,-3.9903,-3.9553,-3.9553,-3.9478,-3.9358,-3.9155,-3.902,-3.8841,-3.8661,-3.8596,-3.8422,-3.8182,-3.7988,-3.7778,-3.727,-3.6731,-3.5524,-3.4462,-3.4128,-3.3638,-3.2706,-3.2155,-3.1842,-3.1683,-3.1499,-3.1559,-3.1792,-3.2069,-3.2249,-3.2069,-3.1742,-3.1573,-3.1439,-3.1057,-3.0646,-3.0746,-3.0884,-3.0846,-5.5194,-5.5149,-5.4835,-5.4117,-5.3234,-5.286,-5.2127,-5.1304,-5.1229,-5.1229,-5.1229,-5.1229,-5.1229,-5.1229,-5.1229,-5.0646,-4.9748,-4.8686,-4.8147,-4.7788,-4.7489,-4.7309,-4.7309,-4.7309,-4.7309,-4.7219,-4.6905,-4.6322,-4.5349,-4.4586,-4.4227,-4.3813,-4.3499,-4.3305,-4.326,-4.3045,-4.2865,-4.2701,-4.2237,-4.1579,-4.1023,-4.0358,-3.9806,-3.9706,-4.007,-4.0405,-4.0442,-4.0442,-4.0457,-4.0457,-4.0442,-4.0427,-4.0412,-4.0382,-4.0262,-4.0068,-4.0202,-4.0412,-4.0427,-4.0442,-4.0621,-4.0831,-4.0905,-4.1025,-4.128,-4.1377,-4.1497,-4.1452,-4.1437,-4.1422,-4.1377,-4.1467,-4.1422,-4.1377,-4.1085,-4.095,-4.0831,-4.0591,-4.0277,-3.9933,-3.9694,-3.9523,-3.9373,-3.9313,-3.9358,-3.9388,-3.9388,-3.9185,-3.8871,-3.8616,-3.8347,-3.7625,-3.6823,-3.5251,-3.4044,-3.3513,-3.3043,-3.2185,-3.1638,-3.1354,-3.0999,-3.0837,-3.071,-3.0771,-3.1095,-3.1476,-3.1057,-3.0595,-3.052,-3.052,-3.0355,-3.0216,-3.0254,-3.0254,-3.0279,-5.5194,-5.5194,-5.5194,-5.4416,-5.3294,-5.3174,-5.2426,-5.1394,-5.1229,-5.1229,-5.1229,-5.1229,-5.1229,-5.1229,-5.1139,-5.0779,-5.0136,-4.909,-4.8656,-4.8147,-4.7788,-4.7504,-4.7324,-4.7309,-4.7309,-4.7294,-4.7249,-4.6965,-4.6127,-4.5334,-4.4781,-4.4377,-4.3828,-4.3499,-4.3499,-4.3319,-4.3349,-4.314,-4.2841,-4.1942,-4.0807,-4.031,-3.9736,-3.9396,-4.0412,-4.0808,-4.0305,-4.0212,-4.0474,-4.0657,-4.0855,-4.1014,-4.1331,-4.1542,-4.1324,-4.0965,-4.1242,-4.1377,-4.1377,-4.1332,-4.1302,-4.1587,-4.1602,-4.1654,-4.1848,-4.1998,-4.1878,-4.1758,-4.1833,-4.1908,-4.1983,-4.1833,-4.1848,-4.1818,-4.1758,-4.1617,-4.1557,-4.1309,-4.0965,-4.0561,-4.0068,-3.9717,-3.951,-3.9388,-3.9388,-3.9388,-3.9388,-3.9388,-3.9125,-3.8945,-3.857,-3.7771,-3.6685,-3.4955,-3.37,-3.2831,-3.2269,-3.1474,-3.119,-3.097,-3.0584,-3.0225,-3.0227,-3.0292,-3.0139,-3.0381,-2.9882,-2.9779,-2.9998,-3.0062,-2.9895,-2.9856,-2.996,-2.9998,-2.9998,-5.5194,-5.5194,-5.5194,-5.4416,-5.3279,-5.3174,-5.2441,-5.1304,-5.1229,-5.1229,-5.1229,-5.1229,-5.1229,-5.1229,-5.1229,-5.0794,-5.03,-4.9912,-4.9314,-4.8611,-4.8207,-4.7803,-4.7414,-4.7309,-4.7309,-4.7309,-4.7309,-4.6935,-4.6456,-4.6055,-4.5693,-4.5155,-4.4571,-4.4197,-4.4167,-4.3503,-4.3319,-4.329,-4.316,-4.2191,-4.0862,-4.1186,-4.0196,-3.9178,-3.9213,-3.9673,-3.9109,-3.9082,-3.9203,-3.9899,-3.996,-4.0417,-4.1254,-4.1991,-4.2201,-4.2021,-4.1767,-4.1437,-4.1557,-4.1609,-4.1803,-4.2162,-4.2276,-4.259,-4.2731,-4.2841,-4.2895,-4.3065,-4.303,-4.2925,-4.2811,-4.2961,-4.3035,-4.2821,-4.2491,-4.2327,-4.2246,-4.2058,-4.1713,-4.1065,-4.0482,-3.9981,-3.9638,-3.951,-3.9388,-3.9388,-3.9388,-3.9352,-3.9096,-3.867,-3.7981,-3.7003,-3.6363,-3.4777,-3.3432,-3.2542,-3.1965,-3.1077,-3.0962,-3.0859,-3.0645,-3.0407,-3.0168,-3.0185,-2.993,-2.9792,-2.9779,-2.9779,-2.9779,-2.9779,-2.9779,-2.9779,-2.9818,-2.9779,-2.9779,-5.5194,-5.5194,-5.5194,-5.4416,-5.3298,-5.3174,-5.2426,-5.1409,-5.1229,-5.1229,-5.1229,-5.1229,-5.1229,-5.1229,-5.1229,-5.1079,-5.0704,-5.0375,-4.9956,-4.9224,-4.8701,-4.8162,-4.7848,-4.7504,-4.7309,-4.7309,-4.7294,-4.7234,-4.683,-4.6429,-4.6112,-4.5843,-4.5229,-4.4855,-4.4728,-4.354,-4.3482,-4.3183,-4.2289,-4.0647,-3.9712,-3.9615,-3.9376,-3.8148,-3.9142,-3.9255,-3.9043,-3.9055,-3.9226,-3.99,-4.0274,-4.0903,-4.1634,-4.2337,-4.291,-4.288,-4.2671,-4.2521,-4.2521,-4.2423,-4.2611,-4.2761,-4.291,-4.303,-4.326,-4.3305,-4.3305,-4.329,-4.329,-4.3305,-4.3305,-4.3305,-4.3305,-4.3185,-4.3015,-4.297,-4.2806,-4.2677,-4.2335,-4.1656,-4.0935,-4.0367,-3.9894,-3.9704,-3.9558,-3.943,-3.9231,-3.8966,-3.836,-3.7539,-3.6722,-3.5727,-3.522,-3.4607,-3.3338,-3.2266,-3.2079,-3.1465,-3.1314,-3.1198,-3.1047,-3.0821,-3.062,-3.0294,-3.0043,-2.993,-2.9842,-2.9779,-2.9779,-2.9779,-2.9779,-2.9779,-2.9779,-2.9779,-2.9779,-5.5194,-5.5194,-5.5194,-5.4401,-5.3204,-5.3174,-5.2441,-5.1289,-5.1229,-5.1229,-5.1229,-5.1229,-5.1229,-5.1229,-5.1229,-5.1199,-5.1169,-5.0659,-5.036,-4.9867,-4.9314,-4.8656,-4.8222,-4.7758,-4.7489,-4.7324,-4.7309,-4.7264,-4.713,-4.6875,-4.6621,-4.6516,-4.5888,-4.5603,-4.5156,-4.4347,-4.3936,-4.4292,-4.2206,-4.0423,-3.9315,-3.8854,-3.8411,-3.8204,-3.868,-3.9316,-3.9064,-3.8876,-3.8863,-3.9497,-3.992,-4.0364,-4.1041,-4.161,-4.1998,-4.2106,-4.2181,-4.2547,-4.2683,-4.2832,-4.325,-4.3305,-4.3305,-4.323,-4.3275,-4.3305,-4.3305,-4.3305,-4.3305,-4.3305,-4.3305,-4.3305,-4.3305,-4.3305,-4.3245,-4.329,-4.322,-4.2892,-4.2465,-4.1737,-4.1134,-4.0697,-4.0267,-4.0003,-3.9768,-3.9497,-3.915,-3.8624,-3.7711,-3.6674,-3.592,-3.509,-3.4847,-3.44,-3.3389,-3.2412,-3.2118,-3.1926,-3.1775,-3.1637,-3.1562,-3.1386,-3.1173,-3.0783,-3.0344,-3.0193,-3.0193,-2.998,-2.9779,-2.9779,-2.9779,-2.9779,-2.9779,-2.9779,-2.9779,-5.5194,-5.5194,-5.5194,-5.4431,-5.3204,-5.3174,-5.2426,-5.1334,-5.1244,-5.1229,-5.1229,-5.1229,-5.1229,-5.1229,-5.1229,-5.1229,-5.1214,-5.1169,-5.0795,-5.0375,-5.0001,-4.9344,-4.8775,-4.8312,-4.7923,-4.7474,-4.7444,-4.7429,-4.7294,-4.7204,-4.716,-4.7145,-4.6431,-4.6279,-4.5868,-4.5154,-4.4089,-4.397,-4.2295,-4.1199,-4.0206,-3.9496,-3.861,-3.7325,-3.7572,-3.7769,-3.6781,-3.7096,-3.7588,-3.8436,-3.8903,-3.9427,-4.026,-4.0712,-4.0984,-4.1156,-4.1609,-4.2002,-4.2349,-4.3027,-4.3325,-4.3334,-4.3424,-4.3589,-4.3648,-4.3439,-4.3349,-4.3529,-4.3678,-4.3479,-4.3389,-4.3295,-4.3307,-4.285,-4.2702,-4.271,-4.2707,-4.279,-4.235,-4.1778,-4.1037,-4.0251,-3.9887,-3.9422,-3.9664,-3.9441,-3.8336,-3.7836,-3.6953,-3.5993,-3.544,-3.4856,-3.4692,-3.4181,-3.339,-3.286,-3.2646,-3.2596,-3.2491,-3.2328,-3.219,-3.1976,-3.1625,-3.1336,-3.0934,-3.0733,-3.0495,-3.0269,-3.0055,-2.9867,-2.9779,-2.9779,-2.9779,-2.9779,-2.9779,-5.5194,-5.5194,-5.5194,-5.4655,-5.3788,-5.3354,-5.265,-5.1843,-5.1394,-5.1229,-5.1229,-5.1229,-5.1229,-5.1229,-5.1229,-5.1229,-5.1229,-5.1229,-5.102,-5.0765,-5.033,-4.9897,-4.9419,-4.8985,-4.8566,-4.8042,-4.7893,-4.7623,-4.7339,-4.7313,-4.6668,-4.6432,-4.6504,-4.6894,-4.6582,-4.5229,-4.3581,-4.1676,-4.1046,-4.0345,-3.9278,-3.8916,-3.8286,-3.764,-3.764,-3.7868,-3.7484,-3.7423,-3.7688,-3.8069,-3.8681,-3.919,-3.9704,-4.0237,-4.0552,-4.0597,-4.1149,-4.169,-4.2509,-4.3346,-4.4052,-4.4496,-4.4556,-4.4456,-4.4255,-4.4441,-4.4526,-4.4556,-4.4273,-4.3867,-4.3403,-4.3277,-4.3094,-4.2337,-4.198,-4.2062,-4.2101,-4.221,-4.1465,-4.0558,-3.9782,-3.8993,-3.8824,-3.8627,-3.9075,-3.9294,-3.8102,-3.6933,-3.6098,-3.543,-3.4931,-3.4523,-3.4299,-3.4082,-3.3366,-3.3199,-3.3136,-3.3124,-3.3124,-3.2867,-3.2591,-3.2277,-3.1964,-3.1725,-3.1512,-3.1248,-3.0947,-3.0583,-3.0306,-3.0043,-2.988,-2.9779,-2.9779,-2.9779,-2.9779,-5.5194,-5.5194,-5.5194,-5.4805,-5.4177,-5.3683,-5.298,-5.2202,-5.1723,-5.1379,-5.1229,-5.1229,-5.1229,-5.1229,-5.1229,-5.1229,-5.1229,-5.1229,-5.1229,-5.1035,-5.0719,-5.039,-5.0106,-4.9763,-4.9224,-4.873,-4.8506,-4.8267,-4.7272,-4.7288,-4.6552,-4.599,-4.5945,-4.6101,-4.5693,-4.4746,-4.248,-4.06,-3.9628,-3.9817,-3.9005,-3.8323,-3.8087,-3.7914,-3.7988,-3.7975,-3.7864,-3.7839,-3.7877,-3.822,-3.8623,-3.9084,-3.9516,-3.9897,-4.0388,-4.0575,-4.09,-4.1453,-4.232,-4.3856,-4.4672,-4.505,-4.5155,-4.5004,-4.4842,-4.4702,-4.4242,-4.3789,-4.389,-4.382,-4.2918,-4.2631,-4.243,-4.1695,-4.1753,-4.1801,-4.1531,-4.1418,-4.0274,-3.9186,-3.873,-3.8631,-3.8352,-3.8291,-3.8276,-3.8357,-3.724,-3.6201,-3.5522,-3.4912,-3.4512,-3.4147,-3.3875,-3.3631,-3.3388,-3.3275,-3.3174,-3.3124,-3.3124,-3.3124,-3.2842,-3.2554,-3.2441,-3.2378,-3.2127,-3.1763,-3.1449,-3.116,-3.0683,-3.0181,-3.0018,-2.9854,-2.9779,-2.9779,-2.9779,-5.5194,-5.5194,-5.5194,-5.482,-5.4296,-5.4192,-5.3443,-5.2456,-5.2157,-5.1798,-5.1349,-5.1274,-5.1229,-5.1229,-5.1229,-5.1229,-5.1229,-5.1229,-5.1229,-5.1154,-5.1079,-5.0719,-5.0296,-4.986,-4.9286,-4.9298,-4.8681,-4.7887,-4.7012,-4.6854,-4.6104,-4.5073,-4.4505,-4.4166,-4.3654,-4.3571,-4.334,-4.2972,-4.1271,-4.0591,-3.9985,-3.8877,-3.8403,-3.8291,-3.8304,-3.8341,-3.8341,-3.8341,-3.8366,-3.8441,-3.8465,-3.87,-3.8712,-3.8686,-3.8796,-3.8721,-3.9533,-3.996,-4.026,-4.3357,-4.4722,-4.4982,-4.4846,-4.4615,-4.3806,-4.3501,-4.3411,-4.3121,-4.2502,-4.2119,-4.1718,-4.1627,-4.1562,-4.1172,-4.114,-4.1031,-4.067,-4.0483,-3.9402,-3.8684,-3.8706,-3.8714,-3.8333,-3.803,-3.7748,-3.7297,-3.6255,-3.5527,-3.5097,-3.4817,-3.4575,-3.4286,-3.401,-3.396,-3.3796,-3.3413,-3.3224,-3.3162,-3.3124,-3.3124,-3.3124,-3.2948,-3.291,-3.2973,-3.2679,-3.2265,-3.2001,-3.1763,-3.1223,-3.0696,-3.0156,-2.993,-2.9854,-2.9779,-2.9792,-5.5194,-5.5194,-5.5194,-5.5074,-5.4805,-5.4386,-5.3922,-5.3399,-5.2636,-5.2067,-5.1798,-5.1454,-5.1229,-5.1229,-5.1229,-5.1229,-5.1229,-5.1229,-5.1229,-5.1229,-5.1229,-5.0452,-4.9916,-4.9626,-4.8885,-4.7618,-4.7127,-4.7045,-4.5735,-4.5965,-4.5106,-4.3966,-4.3122,-4.2363,-4.2239,-4.2155,-4.191,-4.1043,-4.0311,-4.0032,-4.0007,-3.9424,-3.9057,-3.9044,-3.9032,-3.9019,-3.8994,-3.8969,-3.8969,-3.8981,-3.8981,-3.9007,-3.9007,-3.9019,-3.9044,-3.9082,-3.9726,-4.0188,-4.1037,-4.305,-4.3973,-4.4052,-4.4117,-4.3953,-4.3458,-4.3486,-4.3162,-4.2766,-4.2281,-4.2025,-4.1833,-4.1641,-4.1311,-4.0047,-3.9698,-3.9504,-3.9313,-3.93,-3.8843,-3.839,-3.8296,-3.8329,-3.8121,-3.7921,-3.7658,-3.732,-3.6501,-3.5945,-3.5458,-3.5319,-3.5082,-3.4763,-3.45,-3.4474,-3.4299,-3.3909,-3.3671,-3.3646,-3.3413,-3.3124,-3.3124,-3.3224,-3.3124,-3.3074,-3.2918,-3.2767,-3.2516,-3.2227,-3.175,-3.1235,-3.0771,-3.0281,-3.008,-2.9942,-2.9792,-5.5194,-5.5194,-5.5194,-5.5194,-5.5119,-5.473,-5.4446,-5.4057,-5.3025,-5.2426,-5.2127,-5.1738,-5.1424,-5.1304,-5.1229,-5.1229,-5.1229,-5.1229,-5.1229,-5.1229,-5.1229,-5.0716,-5.021,-4.965,-4.9194,-4.7539,-4.6927,-4.6732,-4.5248,-4.5102,-4.4302,-4.3086,-4.2052,-4.1834,-4.1647,-4.1466,-4.1132,-4.0488,-4.0168,-3.999,-3.9825,-3.9622,-3.9634,-3.9622,-3.9622,-3.9647,-3.9672,-3.9697,-3.9697,-3.9697,-3.9697,-3.9697,-3.9697,-3.9697,-3.9697,-3.9697,-3.9788,-4.0147,-4.0917,-4.1376,-4.1972,-4.2034,-4.2821,-4.3204,-4.2965,-4.2698,-4.2353,-4.2137,-4.2301,-4.1811,-4.118,-4.1032,-4.0564,-3.9334,-3.9259,-3.9121,-3.9095,-3.9171,-3.9019,-3.8579,-3.8353,-3.8241,-3.8078,-3.7762,-3.7602,-3.7278,-3.686,-3.6383,-3.5931,-3.5768,-3.5655,-3.5366,-3.5064,-3.5014,-3.4793,-3.45,-3.4299,-3.4198,-3.3872,-3.3495,-3.3395,-3.3533,-3.3319,-3.3119,-3.3006,-3.2943,-3.2943,-3.2679,-3.2252,-3.1876,-3.1512,-3.0997,-3.0444,-3.0269,-3.0193,-5.5194,-5.5194,-5.5194,-5.5194,-5.5179,-5.5134,-5.4805,-5.4221,-5.3518,-5.2875,-5.2306,-5.2276,-5.1858,-5.1364,-5.1259,-5.1073,-5.1073,-5.1073,-5.1026,-5.112,-5.1073,-5.0917,-5.0698,-5.0368,-4.8948,-4.8744,-4.7962,-4.5983,-4.4956,-4.4598,-4.3704,-4.2792,-4.2335,-4.2036,-4.1774,-4.1651,-4.1279,-4.0779,-4.0526,-4.0362,-4.0187,-3.9885,-3.9885,-3.9848,-3.9772,-3.971,-3.9697,-3.9697,-3.9697,-3.9697,-3.9697,-3.9697,-3.9697,-3.9697,-3.9697,-3.9697,-3.9697,-3.9788,-3.9942,-4.0275,-4.0224,-4.0655,-4.2079,-4.2271,-4.1985,-4.1492,-4.1219,-4.0743,-4.0554,-4.0275,-3.989,-3.9942,-3.9929,-3.9597,-3.9609,-3.961,-3.961,-3.9522,-3.9346,-3.9094,-3.8944,-3.8781,-3.8479,-3.8153,-3.7939,-3.7713,-3.7425,-3.6948,-3.6521,-3.6254,-3.6107,-3.6056,-3.578,-3.5545,-3.5307,-3.5052,-3.4818,-3.4738,-3.4537,-3.4236,-3.4098,-3.3884,-3.3721,-3.3508,-3.3237,-3.3099,-3.3074,-3.2998,-3.278,-3.2441,-3.2139,-3.1625,-3.1047,-3.1009,-3.0959,-5.5194,-5.5194,-5.5194,-5.5194,-5.5194,-5.5194,-5.5074,-5.482,-5.4206,-5.3773,-5.3578,-5.2591,-5.2112,-5.1887,-5.1439,-5.0695,-5.0493,-5.0493,-5.035,-5.0445,-5.0698,-5.043,-4.9824,-4.8999,-4.7656,-4.6487,-4.5502,-4.4928,-4.3894,-4.3657,-4.3577,-4.2871,-4.2715,-4.2534,-4.2484,-4.2472,-4.1869,-4.1379,-4.1166,-4.094,-4.0701,-4.0438,-4.035,-4.0237,-3.9973,-3.9898,-3.9848,-3.9835,-3.981,-3.9735,-3.971,-3.9697,-3.9697,-3.9697,-3.9697,-3.9697,-3.9697,-3.9749,-3.9697,-3.971,-3.9772,-3.9923,-4.0991,-4.0798,-4.0466,-4.0415,-4.03,-4.0017,-3.9885,-3.9948,-3.9835,-3.976,-3.9735,-3.971,-3.971,-3.9697,-3.9697,-3.9647,-3.9496,-3.9459,-3.932,-3.9245,-3.8931,-3.873,-3.853,-3.8316,-3.8002,-3.7525,-3.7061,-3.6769,-3.6443,-3.638,-3.6292,-3.5981,-3.5881,-3.5629,-3.5408,-3.5232,-3.5102,-3.4889,-3.4625,-3.4399,-3.4173,-3.3847,-3.3458,-3.3262,-3.3124,-3.3036,-3.2973,-3.3023,-3.2717,-3.219,-3.1763,-3.1712,-3.1625,-5.5194,-5.5194,-5.5194,-5.5194,-5.5078,-5.4575,-5.4575,-5.5003,-5.476,-5.4476,-5.4087,-5.3084,-5.2456,-5.2082,-5.1481,-5.0855,-5.0287,-5.0793,-5.0807,-5.0603,-5.0176,-5.0287,-4.9421,-4.8024,-4.6991,-4.5502,-4.4481,-4.4071,-4.3197,-4.2986,-4.2961,-4.3004,-4.2986,-4.2986,-4.2924,-4.2823,-4.2597,-4.2133,-4.1794,-4.158,-4.1304,-4.0987,-4.0849,-4.0764,-4.0438,-4.0337,-4.03,-4.03,-4.0224,-4.0074,-4.0011,-3.9885,-3.9798,-3.9697,-3.9697,-3.9735,-3.9973,-4.0036,-4.0111,-4.0325,-4.0325,-4.0413,-4.0614,-4.0679,-4.0656,-4.0658,-4.0417,-4.0187,-4.0249,-4.0262,-4.0036,-3.9835,-3.9785,-3.9722,-3.971,-3.9697,-3.9697,-3.9697,-3.9685,-3.9685,-3.9659,-3.9647,-3.9509,-3.9308,-3.9057,-3.8743,-3.8442,-3.8103,-3.7588,-3.7147,-3.6719,-3.643,-3.6417,-3.6317,-3.6182,-3.6081,-3.5931,-3.5793,-3.5755,-3.5516,-3.5203,-3.4856,-3.4663,-3.4186,-3.3658,-3.347,-3.3363,-3.3174,-3.3099,-3.3149,-3.3162,-3.2759,-3.2403,-3.2378,-3.2277,-5.5084,-5.4962,-5.4911,-5.4626,-5.4641,-5.3346,-5.3504,-5.4779,-5.4516,-5.4634,-5.4137,-5.3164,-5.2284,-5.1713,-5.0844,-5.011,-4.9664,-4.9873,-4.9824,-5.0665,-4.9421,-4.9259,-4.9161,-4.8289,-4.6591,-4.6226,-4.5395,-4.3645,-4.3184,-4.2986,-4.2986,-4.2986,-4.2986,-4.2986,-4.2986,-4.2986,-4.2836,-4.2698,-4.2346,-4.2082,-4.1718,-4.1438,-4.1351,-4.1326,-4.1238,-4.1175,-4.1188,-4.115,-4.105,-4.0764,-4.0526,-4.0325,-4.0136,-3.9986,-3.9973,-4.0049,-4.04,-4.0526,-4.0664,-4.0811,-4.1025,-4.115,-4.1313,-4.1354,-4.1266,-4.104,-4.0789,-4.0676,-4.0739,-4.0676,-4.0475,-4.0463,-4.0425,-4.0249,-4.0124,-4.0049,-3.9986,-3.9885,-3.9697,-3.9697,-3.9697,-3.9697,-3.9672,-3.9446,-3.9383,-3.9133,-3.8919,-3.8655,-3.8216,-3.7651,-3.7197,-3.6719,-3.6468,-3.6443,-3.638,-3.6304,-3.6355,-3.6304,-3.6254,-3.6128,-3.5692,-3.5416,-3.5107,-3.4688,-3.4223,-3.3822,-3.3596,-3.3458,-3.3388,-3.3282,-3.33,-3.3162,-3.3048,-3.2905,-3.2792,-5.408,-5.3399,-5.228,-5.1767,-5.1767,-5.1427,-5.1441,-5.1753,-5.1753,-5.2953,-5.4029,-5.1727,-5.0632,-5.1099,-4.9338,-4.8243,-4.7438,-4.8558,-4.7494,-4.7652,-4.7424,-4.8064,-4.7822,-4.6632,-4.5741,-4.5115,-4.4289,-4.3436,-4.3141,-4.2986,-4.2986,-4.2986,-4.2986,-4.2986,-4.2986,-4.2986,-4.2974,-4.2961,-4.2811,-4.2622,-4.2459,-4.2133,-4.2011,-4.1831,-4.1718,-4.1451,-4.1413,-4.1338,-4.125,-4.1087,-4.1087,-4.1053,-4.0965,-4.0874,-4.0874,-4.0978,-4.0962,-4.1116,-4.1216,-4.1367,-4.1451,-4.1593,-4.1693,-4.1869,-4.1831,-4.153,-4.1288,-4.1213,-4.1163,-4.1075,-4.0949,-4.104,-4.1028,-4.0777,-4.0538,-4.0425,-4.03,-4.0023,-3.976,-3.9697,-3.9697,-3.9697,-3.9697,-3.9672,-3.9622,-3.9559,-3.9521,-3.9308,-3.8894,-3.8441,-3.7852,-3.736,-3.6619,-3.648,-3.648,-3.6417,-3.6417,-3.6417,-3.6342,-3.6267,-3.6132,-3.5843,-3.5504,-3.5207,-3.4831,-3.4449,-3.4098,-3.3922,-3.3809,-3.3684,-3.352,-3.3458,-3.3287,-3.3119,-3.3124,-5.3145,-5.1971,-5.0161,-4.9911,-5.0519,-5.0058,-5.0058,-5.0533,-4.9988,-5.1002,-5.2713,-5.0649,-4.9732,-5.0336,-4.8572,-4.7382,-4.6612,-4.7517,-4.7876,-4.7372,-4.6356,-4.699,-4.6367,-4.5273,-4.5021,-4.444,-4.3615,-4.303,-4.2986,-4.2986,-4.2986,-4.2986,-4.2986,-4.2986,-4.2986,-4.2986,-4.2986,-4.2986,-4.2986,-4.2986,-4.2986,-4.274,-4.2577,-4.2371,-4.2258,-4.2032,-4.207,-4.2032,-4.1894,-4.1668,-4.1455,-4.1263,-4.1188,-4.1175,-4.1225,-4.1379,-4.1505,-4.1693,-4.1756,-4.1856,-4.1969,-4.2108,-4.2221,-4.2497,-4.2509,-4.2246,-4.2007,-4.1957,-4.2145,-4.2095,-4.1517,-4.1392,-4.1288,-4.1178,-4.0978,-4.0827,-4.0588,-4.0287,-3.9973,-3.9697,-3.9697,-3.9697,-3.9697,-3.9697,-3.9659,-3.9659,-3.9685,-3.9685,-3.9333,-3.9044,-3.8517,-3.8002,-3.7348,-3.6883,-3.6857,-3.6669,-3.6417,-3.6417,-3.6455,-3.6367,-3.6279,-3.6081,-3.5855,-3.5579,-3.5245,-3.4944,-3.4688,-3.4474,-3.4361,-3.4261,-3.4048,-3.3834,-3.3608,-3.342,-3.3382,-5.1892,-5.0318,-4.8306,-4.8432,-4.9835,-4.8793,-4.8908,-4.9721,-4.8806,-4.8908,-4.9948,-4.9444,-4.9323,-4.9241,-4.8573,-4.8355,-4.7948,-4.7188,-4.7581,-4.7296,-4.6236,-4.6242,-4.5757,-4.4821,-4.4581,-4.4219,-4.3597,-4.3229,-4.2986,-4.2986,-4.2986,-4.2986,-4.2986,-4.2986,-4.2986,-4.2986,-4.2986,-4.2986,-4.2986,-4.2986,-4.2986,-4.2986,-4.2924,-4.2949,-4.2986,-4.2986,-4.2961,-4.2873,-4.2647,-4.2371,-4.1932,-4.1831,-4.1756,-4.1794,-4.1756,-4.1856,-4.2095,-4.2288,-4.2376,-4.2572,-4.2748,-4.2911,-4.2986,-4.2974,-4.2936,-4.2823,-4.2585,-4.261,-4.2811,-4.2685,-4.2108,-4.1819,-4.1769,-4.1681,-4.1505,-4.1229,-4.0915,-4.0588,-4.0212,-3.9848,-3.9772,-3.9772,-3.9722,-3.9722,-3.9697,-3.9697,-3.9697,-3.9697,-3.9622,-3.9396,-3.9032,-3.863,-3.8128,-3.7726,-3.7362,-3.696,-3.6694,-3.6581,-3.6619,-3.6505,-3.638,-3.6254,-3.6056,-3.5855,-3.5579,-3.5454,-3.524,-3.5014,-3.4914,-3.4826,-3.4487,-3.4223,-3.4148,-3.3947,-3.3784,-4.9484,-4.7468,-4.6334,-4.6458,-4.7095,-4.6874,-4.6921,-4.7087,-4.6981,-4.6921,-4.7272,-4.7195,-4.7263,-4.7973,-4.6119,-4.5692,-4.6373,-4.6068,-4.561,-4.5081,-4.5367,-4.5316,-4.5131,-4.4718,-4.4308,-4.4017,-4.3803,-4.3501,-4.3363,-4.3175,-4.3024,-4.3087,-4.3062,-4.3049,-4.3037,-4.3062,-4.3162,-4.3175,-4.3099,-4.3074,-4.3024,-4.3011,-4.2986,-4.2986,-4.2986,-4.2986,-4.2974,-4.2986,-4.2911,-4.2811,-4.2672,-4.2547,-4.2484,-4.2459,-4.2446,-4.2396,-4.2635,-4.2672,-4.2854,-4.2873,-4.2986,-4.2986,-4.2986,-4.2986,-4.2961,-4.2961,-4.2823,-4.2823,-4.2949,-4.2949,-4.2572,-4.2572,-4.2534,-4.2409,-4.2258,-4.1769,-4.1354,-4.0965,-4.0563,-4.0249,-4.0023,-3.9936,-3.9798,-3.9772,-3.9697,-3.9697,-3.9697,-3.9697,-3.9697,-3.9584,-3.9471,-3.9157,-3.8793,-3.8404,-3.7939,-3.7412,-3.7073,-3.691,-3.6757,-3.6606,-3.6493,-3.6417,-3.6267,-3.6056,-3.6094,-3.6069,-3.583,-3.5516,-3.5466,-3.5328,-3.4889,-3.4625,-3.453,-3.432,-3.4023]},{"header":{"parameterUnit":"m.s-1","parameterCategory":1,"la1":31.0,"la2":29.5877,"lo1":-88.7671,"lo2":-86.6584,"dy":0.0162,"dx":0.0185,"nx":115,"ny":88,"refTime":"2026-04-22T12:00:00:Z","depth":0,"parameterNumber":3,"parameterNumberName":"V-component_of_WINDS"},"data":[0.0,0.0,0.0,0.0,0.0,0.0,0.0,0.0,0.0,0.0,0.0,0.0,0.0,0.0,0.0,0.0,0.0,0.0,0.0,0.0,0.0,0.0,0.0,0.0,0.0,0.0,0.0,0.0,0.0,0.0,0.0,0.0,0.0,0.0,0.0,0.0,0.0,0.0,0.0,0.0,0.0,0.0,0.0,0.0,0.0,0.0,0.0,0.0,0.0,0.0,0.0,0.0,0.0,0.0,0.0,0.0,0.0,0.0,0.0,0.0,0.0,0.0,0.0,0.0,0.0,0.0,0.0,0.0,0.0,0.0,0.0,0.0,0.0,0.0,0.0,0.0,0.0,0.0,0.0,0.0,0.0,0.0,0.0,0.0,0.0,0.0,0.0,0.0,0.0,0.0,0.0,0.0,0.0,0.0,0.0,0.0,0.0,0.0,0.0,0.0,0.0,0.0,0.0,0.0,0.0,0.0,0.0,0.0,0.0,0.0,0.0,0.0,0.0,0.0,0.0,0.0,0.0,0.0,0.0,0.0,0.0,0.0,0.0,0.0,0.0,0.0,0.0,0.0,0.0,0.0,0.0,0.0,0.0,0.0,0.0,0.0,0.0,0.0,0.0,0.0,0.0,0.0,0.0,0.0,0.0,0.0,0.0,0.0,0.0,0.0,0.0,0.0,0.0,0.0,0.0,0.0,0.0,0.0,0.0,0.0,0.0,0.0,0.0,0.0,0.0,0.0,0.0,0.0,0.0,0.0,0.0,0.0,0.0,0.0,0.0,0.0,0.0,0.0,0.0,0.0,0.0,0.0,0.0,0.0,0.0,0.0,0.0,0.0,0.0,0.0,0.0,0.0,0.0,0.0,0.0,0.0,0.0,0.0,0.0,0.0,0.0,0.0,0.0,0.0,0.0,0.0,0.0,0.0,0.0,0.0,0.0,0.0,0.0,0.0,0.0,0.0,0.0,0.0,0.0,0.0,0.0,0.0,0.0,0.0,0.0,0.0,0.0,0.0,0.0,0.0,0.0,0.0,0.0,0.0,0.0,0.0,0.0,0.0,0.0,0.0,0.0,0.0,0.0,0.0,0.0,0.0,0.0,0.0,0.0,0.0,0.0,0.0,0.0,0.0,0.0,0.0,0.0,0.0,0.0,0.0,0.0,0.0,0.0,0.0,0.0,0.0,0.0,0.0,0.0,0.0,0.0,0.0,0.0,0.0,0.0,0.0,0.0,0.0,0.0,0.0,0.0,0.0,0.0,0.0,0.0,0.0,0.0,0.0,0.0,0.0,0.0,0.0,0.0,0.0,0.0,0.0,0.0,0.0,0.0,0.0,0.0,0.0,0.0,0.0,0.0,0.0,0.0,0.0,0.0,0.0,0.0,0.0,0.0,0.0,0.0,0.0,0.0,0.0,0.0,0.0,0.0,0.0,0.0,0.0,0.0,0.0,0.0,0.0,0.0,0.0,0.0,0.0,0.0,0.0,0.0,0.0,0.0,0.0,0.0,0.0,0.0,0.0,0.0,0.0,0.0,0.0,0.0,0.0,0.0,0.0,0.0,0.0,0.0,0.0,0.0,0.0,0.0,0.0,0.0,0.0,0.0,0.0,0.0,0.0,0.0,0.0,0.0,0.0,0.0,0.0,0.0,0.0,0.0,0.0,0.0,0.0,0.0,0.0,0.0,0.0,0.0,0.0,0.0,0.0,0.0,0.0,0.0,0.0,0.0,0.0,0.0,0.0,0.0,0.0,0.0,0.0,0.0,0.0,0.0,0.0,0.0,0.0,0.0,0.0,0.0,0.0,0.0,0.0,0.0,0.0,0.0,0.0,0.0,0.0,0.0,0.0,0.0,0.0,0.0,0.0,0.0,0.0,0.0,0.0,0.0,0.0,0.0,0.0,0.0,0.0,0.0,0.0,0.0,0.0,0.0,0.0,0.0,0.0,0.0,0.0,0.0,0.0,0.0,0.0,0.0,0.0,0.0,0.0,0.0,0.0,0.0,0.0,0.0,0.0,0.0,0.0,0.0,0.0,0.0,0.0,0.0,0.0,0.0,0.0,0.0,0.0,0.0,0.0,0.0,0.0,0.0,0.0,0.0,0.0,0.0,0.0,0.0,0.0,0.0,0.0,0.0,0.0,0.0,0.0,0.0,0.0,0.0,0.0,0.0,0.0,0.0,0.0,0.0,0.0,0.0,0.0,0.0,0.0,0.0,0.0,0.0,0.0,0.0,0.0,0.0,0.0,0.0,0.0,0.0,0.0,0.0,0.0,0.0,0.0,0.0,0.0,0.0,0.0,0.0,0.0,0.0,0.0,0.0,0.0,0.0,0.0,0.0,0.0,0.0,0.0,0.0,0.0,0.0,0.0,0.0,0.0,0.0,0.0,0.0,0.0,0.0,0.0,0.0,0.0,0.0,0.0,0.0,0.0,0.0,0.0,0.0,0.0,0.0,0.0,0.0,0.0,0.0,0.0,0.0,0.0,0.0,0.0,0.0,0.0,0.0,0.0,0.0,0.0,0.0,0.0,0.0,0.0,0.0,0.0,0.0,0.0,0.0,0.0,0.0,0.0,0.0,0.0,0.0,0.0,0.0,0.0,0.0,0.0,0.0,0.0,0.0,0.0,0.0,0.0,0.0,0.0,0.0,0.0,0.0,0.0,0.0,0.0,0.0,0.0,0.0,0.0,0.0,0.0,0.0,0.0,0.0,0.0,0.0,0.0,0.0,0.0,0.0,0.0,0.0,0.0,0.0,0.0,0.0,0.0,0.0,0.0,0.0,0.0,0.0,0.0,0.0,0.0,0.0,0.0,0.0,0.0,0.0,0.0,0.0,0.0,0.0,0.0,0.0,0.0,0.0,0.0,0.0,0.0,0.0,0.0,0.0,0.0,0.0,0.0,0.0,0.0,0.0,0.0,0.0,0.0,0.0,0.0,0.0,0.0,0.0,0.0,0.0,0.0,0.0,0.0,0.0,0.0,0.0,0.0,0.0,0.0,0.0,0.0,0.0,0.0,0.0,0.0,0.0,0.0,0.0,0.0,0.0,0.0,0.0,0.0,0.0,0.0,0.0,0.0,0.0,0.0,0.0,0.0,0.0,0.0,0.0,0.0,0.0,0.0,0.0,0.0,0.0,0.0,0.0,0.0,0.0,0.0,0.0,0.0,0.0,0.0,0.0,0.0,0.0,0.0,0.0,0.0,0.0,0.0,0.0,0.0,0.0,0.0,0.0,0.0,0.0,0.0,0.0,0.0,0.0,0.0,0.0,0.0,0.0,0.0,0.0,0.0,0.0,0.0,0.0,0.0,0.0,0.0,0.0,0.0,0.0,0.0,0.0,0.0,0.0,0.0,0.0,0.0,0.0,0.0,0.0,0.0,0.0,0.0,0.0,0.0,0.0,0.0,0.0,0.0,0.0,0.0,0.0,0.0,0.0,0.0,0.0,0.0,0.0,0.0,0.0,0.0,0.0,0.0,0.0,0.0,0.0,0.0,0.0,0.0,0.0,0.0,0.0,0.0,0.0,0.0,0.0,0.0,0.0,0.0,0.0,0.0,0.0,0.0,0.0,0.0,0.0,0.0,0.0,0.0,0.0,0.0,0.0,0.0,0.0,0.0,0.0,0.0,0.0,0.0,0.0,0.0,0.0,0.0,0.0,0.0,0.0,0.0,0.0,0.0,0.0,0.0,0.0,0.0,0.0,0.0,0.0,0.0,0.0,0.0,0.0,0.0,0.0,0.0,0.0,0.0,0.0,0.0,0.0,0.0,0.0,0.0,0.0,0.0,0.0,0.0,0.0,0.0,0.0,0.0,0.0,0.0,0.0,0.0,0.0,0.0,0.0,0.0,0.0,0.0,0.0,0.0,0.0,0.0,0.0,0.0,0.0,0.0,0.0,0.0,0.0,0.0,0.0,0.0,0.0,0.0,0.0,0.0,0.0,0.0,0.0,0.0,0.0,0.0,0.0,0.0,0.0,0.0,0.0,0.0,0.0,0.0,0.0,0.0,0.0,0.0,0.0,0.0,0.0,0.0,0.0,0.0,0.0,0.0,0.0,0.0,0.0,0.0,0.0,0.0,0.0,0.0,0.0,0.0,0.0,0.0,0.0,0.0,0.0,0.0,0.0,0.0,0.0,0.0,0.0,0.0,0.0,0.0,0.0,0.0,0.0,0.0,0.0,0.0,0.0,0.0,0.0,0.0,0.0,0.0,0.0,0.0,0.0,0.0,0.0,0.0,0.0,0.0,0.0,0.0,0.0,0.0,0.0,0.0,0.0,0.0,0.6344,0.0,0.0,0.0,0.0,0.0,0.0,0.0,0.0,0.0,0.0,0.0,0.0,0.0,0.0,0.0,0.0,0.0,0.0,0.0,0.0,0.0,0.0,0.0,0.0,0.0,0.0,0.0,0.0,0.0,0.0,0.0,0.0,0.0,0.0,0.0,0.0,0.0,0.0,0.0,0.0,0.0,0.0,0.0,0.0,0.0,0.0,0.0,0.0,0.0,0.0,0.0,0.0,0.0,0.0,0.0,0.0,0.0,0.0,0.0,0.0,0.0,0.0,0.0,0.0,0.0,0.0,0.0,0.0,0.0,0.0,0.0,0.0,0.0,0.0,0.0,0.0,0.0,0.0,0.0,0.0,0.0,0.0,0.0,0.0,0.0,0.0,0.0,0.0,0.0,0.0,0.0,0.0,0.0,0.0,0.0,0.0,0.0,0.0,0.0,0.0,0.0,0.0,0.0,0.0,0.0,0.0,0.0,0.0,0.0,0.0,0.7438,0.7594,0.7464,0.7082,0.6536,0.0,0.0,0.0,0.0,0.0,0.0,0.0,0.0,0.0,0.0,0.0,0.0,0.0,0.0,0.0,0.0,0.0,0.0,0.0,0.0,0.0,0.0,0.0,0.0,0.0,0.0,0.0,0.0,0.0,0.0,0.0,0.0,0.0,0.0,0.0,0.0,0.0,0.0,0.0,0.0,0.0,0.0,0.0,0.0,0.0,0.0,0.0,0.0,0.0,0.0,0.0,0.0,0.0,0.0,0.0,0.0,0.0,0.0,0.0,0.0,0.0,0.0,0.0,0.0,0.0,0.0,0.0,0.0,0.0,0.0,0.0,0.0,0.0,0.0,0.0,0.0,0.0,0.0,0.0,0.0,0.0,0.0,0.0,0.0,0.0,0.0,0.0,0.0,0.0,0.0,0.0,0.0,0.0,0.0,0.0,0.0,0.0,0.0,0.0,0.0,0.0,0.0,0.0,0.0,0.0,0.0,0.0,0.0,0.0,0.0,0.0,0.0,0.8163,0.7844,0.7139,0.0,0.0,0.0,0.0,0.0,0.0,0.0,0.0,0.0,0.0,0.0,0.0,0.0,0.0,0.0,0.0,0.0,0.0,0.0,0.0,0.0,0.0,0.0,0.0,0.0,0.0,0.0,0.0,0.0,0.0,0.0,0.0,0.0,0.0,0.0,0.0,0.0,0.0,0.0,0.0,0.0,0.0,0.0,0.0,0.0,0.0,0.0,0.0,0.0,0.0,0.0,0.0,0.0,0.0,0.0,0.0,0.0,0.0,0.0,0.0,0.0,0.0,0.0,0.0,0.0,0.0,0.0,0.0,0.0,0.0,0.0,0.0,0.0,0.0,0.0,0.0,0.0,0.0,0.0,0.0,0.0,0.0,0.0,0.0,0.0,0.0,0.0,0.0,0.0,0.0,0.0,0.0,0.0,0.0,0.0,0.0,0.0,0.0,0.0,0.0,0.0,0.0,0.0,0.0,0.0,0.0,0.0,0.0,0.0,0.0,0.905,0.9416,0.981,0.0,0.8853,0.0,0.0,0.0,0.0,0.0,0.0,0.0,0.0,0.0,0.0,0.0,0.0,0.0,0.0,0.0,0.0,0.0,0.0,0.0,0.0,0.0,0.0,0.0,0.0,0.0,0.0,0.0,0.0,0.0,0.0,0.0,0.0,0.0,0.0,0.0,0.0,0.0,0.0,0.0,0.0,0.0,0.0,0.0,0.0,0.0,0.0,0.0,0.0,0.0,0.0,0.0,0.0,0.0,0.0,0.0,0.0,0.0,0.0,0.0,0.0,0.0,0.0,0.0,0.0,0.0,0.0,0.0,0.0,0.0,0.0,0.0,0.0,0.0,0.0,0.0,0.0,0.0,0.0,0.0,0.0,0.0,0.0,0.0,0.0,0.0,0.0,0.0,0.0,0.0,0.0,0.0,0.0,0.0,0.0,0.0,0.0,0.0,0.0,0.0,0.0,0.0,0.0,0.0,0.0,0.0,0.0,0.0,0.0,0.0,0.0,0.9834,1.001,0.9697,0.9365,0.0,0.0,0.0,0.0,0.0,0.0,0.0,0.0,0.0,0.0,0.0,0.0,0.0,0.0,0.0,0.0,0.0,0.0,0.0,0.0,0.0,0.0,0.0,0.0,0.0,0.0,0.0,0.0,0.0,0.0,0.0,0.0,0.0,0.0,0.0,0.0,0.0,0.0,0.0,0.0,0.0,0.0,0.0,0.0,0.0,0.0,0.0,0.0,0.0,0.0,0.0,0.0,0.0,0.0,0.0,0.0,0.0,0.0,0.0,0.0,0.0,0.0,0.0,0.0,0.0,0.0,0.0,0.0,0.0,0.0,0.0,0.0,0.0,0.0,0.0,0.0,0.0,0.0,0.0,0.0,0.0,0.0,0.0,0.0,0.0,0.0,0.0,0.0,0.0,0.0,0.0,0.0,0.0,0.0,0.0,0.0,0.0,0.0,0.0,0.0,0.0,0.0,0.0,0.0,0.0,0.0,0.0,0.0,0.0,0.0,0.9904,1.0361,1.044,0.9755,0.9189,0.8848,0.0,0.0,0.0,0.0,0.0,0.0,0.0,0.0,0.0,0.0,0.0,0.0,0.0,0.0,0.0,0.0,0.0,0.0,0.0,0.0,0.0,0.0,0.0,0.0,0.0,0.0,0.0,0.0,0.0,0.0,0.0,0.0,0.0,0.0,0.0,0.0,0.0,0.0,0.0,0.0,0.0,0.0,0.0,0.0,0.0,0.0,0.0,0.0,0.0,0.0,0.0,0.0,0.0,0.0,0.0,0.0,0.0,0.0,0.0,0.0,0.0,0.0,0.0,0.0,0.0,0.0,0.0,0.0,0.0,0.0,0.0,0.0,0.0,0.0,0.0,0.0,0.0,0.0,0.0,0.0,0.0,0.0,0.0,0.0,0.0,0.0,0.0,0.0,0.0,0.0,0.0,0.0,0.0,0.0,0.0,0.0,0.0,0.0,0.0,0.0,0.0,0.0,0.0,0.0,0.0,0.0,0.0,0.0,0.0,1.0684,1.0469,1.0849,1.0439,0.9667,0.0,0.0,0.0,0.0,0.0,0.0,0.0,0.0,0.0,0.0,0.0,0.0,0.0,0.0,0.0,0.0,0.0,0.0,0.0,0.0,0.0,0.0,0.0,0.0,0.0,0.0,0.0,0.0,0.0,0.0,0.0,0.0,0.0,0.0,0.0,0.0,0.0,0.0,0.0,0.0,0.0,0.0,0.0,0.0,0.0,0.0,0.0,0.0,0.0,0.0,0.0,0.0,0.0,0.0,0.0,0.0,0.0,0.0,0.0,0.0,0.0,0.0,0.0,0.0,0.0,0.0,0.0,0.0,0.0,0.0,0.0,0.0,0.0,0.0,0.0,0.0,0.0,0.0,0.0,0.0,0.0,0.0,0.0,0.0,0.0,0.0,0.0,0.0,0.0,0.0,0.0,0.0,0.0,0.0,0.0,0.0,0.0,0.0,0.0,0.0,0.0,0.0,0.0,0.0,0.0,0.0,0.0,0.0,0.0,1.0197,1.0272,1.0752,1.1638,1.0254,0.9365,0.0,0.0,0.0,0.0,0.0,0.0,0.0,0.0,0.0,0.0,0.0,0.0,0.0,0.0,0.0,0.0,0.0,0.0,0.0,0.0,0.0,0.0,0.0,0.0,0.0,0.0,0.0,0.0,0.0,0.0,0.0,0.0,0.0,0.0,0.0,0.0,0.0,0.0,0.0,0.0,0.0,0.0,0.0,0.0,0.0,0.0,0.0,0.0,0.0,0.0,0.0,0.0,0.0,0.0,0.0,0.0,0.0,0.0,0.0,0.0,0.0,0.0,0.0,0.0,0.0,0.0,0.0,0.0,0.0,0.0,0.0,0.0,0.0,0.0,0.0,0.0,0.0,0.0,0.0,0.0,0.0,0.0,0.0,0.0,0.0,0.0,0.0,0.0,0.0,0.0,0.0,0.0,0.0,0.0,0.0,0.0,0.0,0.0,0.0,0.0,0.0,0.0,0.0,0.0,0.0,0.0,0.0,0.0,0.0,0.9922,0.0,1.087,0.0,1.0186,0.9228,0.0,0.0,0.0,0.0,0.0,0.0,0.0,0.0,0.0,0.0,0.0,0.0,0.0,0.0,0.0,0.0,0.0,0.0,0.0,0.0,0.0,0.0,0.0,0.0,0.0,0.0,0.0,0.0,0.0,0.0,0.0,0.0,0.0,0.0,0.0,0.0,0.0,0.0,0.0,0.0,0.0,0.0,0.0,0.0,0.0,0.0,0.0,0.0,0.0,0.0,0.0,0.0,0.0,0.0,0.0,0.0,0.0,0.0,0.0,0.0,0.0,0.0,0.0,0.0,0.0,0.0,0.0,0.0,0.0,0.0,0.0,0.0,0.0,0.0,0.0,0.0,0.0,0.0,0.0,0.0,0.0,0.0,0.0,0.0,0.0,0.0,0.0,0.0,0.0,0.0,0.0,0.0,0.0,0.0,0.0,0.0,0.0,0.0,0.0,0.0,0.0,0.0,0.0,0.0,0.0,0.0,0.0,0.0,0.9426,1.0726,1.0924,1.0857,1.0371,1.0322,0.9305,0.0,0.0,0.0,0.0,0.0,0.0,0.0,0.0,0.0,0.0,0.0,0.0,0.0,0.0,0.0,0.0,0.0,0.0,0.0,0.0,0.0,0.0,0.0,0.0,0.0,0.0,0.0,0.0,0.0,0.0,0.0,0.0,0.0,0.0,0.0,0.0,0.0,0.0,0.0,0.0,0.0,0.0,0.0,0.0,0.0,0.0,0.0,0.0,0.0,0.0,0.0,0.0,0.0,0.0,0.0,0.0,0.0,0.0,0.0,0.0,0.0,0.0,0.0,0.0,0.0,0.0,0.0,0.0,0.0,0.0,0.0,0.0,0.0,0.0,0.0,0.0,0.0,0.0,0.0,0.0,0.0,0.0,0.0,0.0,0.0,0.0,0.0,0.0,0.0,0.0,0.0,0.0,0.0,0.0,0.0,0.0,0.0,0.0,0.0,0.0,0.0,0.0,0.0,0.0,0.0,0.0,0.0,0.0,0.0,1.0803,1.1204,1.1788,1.2422,1.0741,0.9668,0.0,0.0,0.0,0.0,0.0,0.0,0.0,0.0,0.0,0.0,0.0,0.0,0.0,0.0,0.0,0.0,0.0,0.0,0.0,0.0,0.0,0.0,0.0,0.0,0.0,0.0,0.0,0.0,0.0,0.0,0.0,0.0,0.0,0.0,0.0,0.0,0.0,0.0,0.0,0.0,0.0,0.0,0.0,0.0,0.0,0.0,0.0,0.0,0.0,0.0,0.0,0.0,0.0,0.0,0.0,0.0,0.0,0.0,0.0,0.0,0.0,0.0,0.0,0.0,0.0,0.0,0.0,0.0,0.0,0.0,0.0,0.0,0.0,0.0,0.0,0.0,0.0,0.0,0.0,0.0,0.0,0.0,0.0,0.0,0.0,0.0,0.0,0.0,0.0,0.0,0.0,0.0,0.0,0.0,0.0,0.0,0.0,0.0,0.0,0.0,0.0,0.0,0.0,0.0,0.0,0.0,0.0,0.0,0.0,1.1655,1.2089,1.2641,1.3262,1.156,1.0427,1.0038,0.0,0.0,0.0,0.0,0.0,0.0,0.0,0.0,0.0,0.0,0.0,0.0,0.0,0.0,0.0,0.0,0.0,0.0,0.0,0.0,0.0,0.0,0.0,0.0,0.0,0.0,0.0,0.0,0.0,0.0,0.0,0.0,0.0,0.0,0.0,0.0,0.0,0.0,0.0,0.0,0.0,0.0,0.0,0.0,0.0,0.0,0.0,0.0,0.0,0.0,0.0,0.0,0.0,0.0,0.0,0.0,0.0,0.0,0.0,0.0,0.0,0.0,0.0,0.0,0.0,0.0,0.0,0.0,0.0,0.0,0.0,0.0,0.0,0.0,0.0,0.0,0.0,0.0,0.0,0.0,0.0,0.0,0.0,0.0,0.0,0.0,0.0,0.0,0.0,0.0,0.0,0.0,0.0,0.0,0.0,0.0,0.0,0.0,0.0,0.0,0.0,0.0,0.0,0.0,0.0,0.0,0.0,0.0,1.3076,1.3589,1.3654,1.3184,1.2693,1.1603,0.0,0.0,0.0,0.0,0.0,0.0,0.0,0.0,0.0,0.0,0.0,0.0,0.0,0.0,0.0,0.0,0.0,0.0,0.0,0.0,0.0,0.0,0.0,0.0,0.0,0.0,0.0,0.0,0.0,0.0,0.0,0.0,0.0,0.0,0.0,0.0,0.0,0.0,0.0,0.0,0.0,0.0,0.0,0.0,0.0,0.0,0.0,0.0,0.0,0.0,0.0,0.0,0.0,0.0,0.0,0.0,0.0,0.0,0.0,0.0,0.0,0.0,0.0,0.0,0.0,0.0,0.0,0.0,0.0,0.0,0.0,0.0,0.0,0.0,0.0,0.0,0.0,0.0,0.0,0.0,0.0,0.0,0.0,0.0,0.0,0.0,0.0,0.0,0.0,0.0,0.0,0.0,0.0,0.0,0.0,0.0,0.0,0.0,0.0,0.0,0.0,0.0,0.0,0.0,0.0,0.0,0.0,0.0,0.0,1.3834,1.5753,1.6487,1.5693,1.449,1.3317,0.0,0.0,0.0,0.0,0.0,0.0,0.0,0.0,0.0,0.0,0.0,0.0,0.0,0.0,0.0,0.0,0.0,0.0,0.0,0.0,0.0,0.0,0.0,0.0,0.0,0.0,0.0,0.0,0.0,0.0,0.0,0.0,0.0,0.0,0.0,0.0,0.0,0.0,0.0,0.0,0.0,0.0,0.0,0.0,0.0,0.0,0.0,0.0,0.0,0.0,0.0,0.0,0.0,0.0,0.0,0.0,0.0,0.0,0.0,0.0,0.0,0.0,0.0,0.0,0.0,0.0,0.0,0.0,0.0,0.0,0.0,0.0,0.0,0.0,0.0,0.0,0.0,0.0,0.0,0.0,0.0,0.0,0.0,0.0,0.0,0.0,0.0,0.0,0.0,0.0,0.0,0.0,0.0,0.0,0.0,0.0,0.0,0.0,0.0,0.0,0.0,0.0,0.0,0.0,0.0,0.0,0.0,0.0,1.512,1.5302,1.7413,1.8223,1.7516,1.6508,1.508,0.0,0.0,0.0,0.0,0.0,0.0,0.0,0.0,0.0,0.0,0.0,0.0,0.0,0.0,0.0,0.0,0.0,0.0,0.0,0.0,0.0,0.0,0.0,0.0,0.0,0.0,0.0,0.0,0.0,0.0,0.0,0.0,0.0,0.0,0.0,0.0,0.0,0.0,0.0,0.0,0.0,0.0,0.0,0.0,0.0,0.0,0.0,0.0,0.0,0.0,0.0,0.0,0.0,0.0,0.0,0.0,0.0,0.0,0.0,0.0,0.0,0.0,0.0,0.0,0.0,0.0,0.0,0.0,0.0,0.0,0.0,0.0,0.0,0.0,0.0,0.0,0.0,0.0,0.0,0.0,0.0,0.0,0.0,0.0,0.0,0.0,0.0,0.0,0.0,0.0,0.0,0.0,0.0,0.0,0.0,0.0,0.0,0.0,0.0,0.0,0.0,0.0,0.0,0.0,0.0,0.0,0.0,0.0,1.5973,1.6991,1.8603,1.9189,1.8672,1.8343,1.6792,0.0,0.0,0.0,0.0,0.0,0.0,0.0,0.0,0.0,0.0,0.0,0.0,0.0,0.0,0.0,0.0,0.0,0.0,0.0,0.0,0.0,0.0,0.0,0.0,0.0,0.0,0.0,0.0,0.0,0.0,0.0,0.0,0.0,0.0,0.0,0.0,0.0,0.0,0.0,0.0,0.0,0.0,0.0,0.0,0.0,0.0,0.0,0.0,0.0,0.0,0.0,0.0,0.0,0.0,0.0,0.0,0.0,0.0,0.0,0.0,0.0,0.0,0.0,0.0,0.0,0.0,0.0,0.0,0.0,0.0,0.0,0.0,0.0,0.0,0.0,0.0,0.0,0.0,0.0,0.0,0.0,0.0,0.0,0.0,0.0,0.0,0.0,0.0,0.0,0.0,0.0,0.0,0.0,0.0,0.0,0.0,0.0,0.0,0.0,0.0,0.0,0.0,0.0,0.0,0.0,0.0,0.0,0.0,1.6283,1.7028,1.916,1.9932,1.916,1.8775,1.7536,0.0,0.0,0.0,0.0,0.0,0.0,0.0,0.0,0.0,0.0,0.0,0.0,0.0,0.0,0.0,0.0,0.0,0.0,0.0,0.0,0.0,0.0,0.0,0.0,0.0,0.0,0.0,0.0,0.0,0.0,0.0,0.0,0.0,0.0,0.0,0.0,0.0,0.0,0.0,0.0,0.0,0.0,0.0,0.0,0.0,0.0,0.0,0.0,0.7215,0.0,0.0,0.0,0.0,0.0,0.0,0.0,0.0,0.0,0.0,0.0,0.0,0.0,0.0,0.0,0.0,0.0,0.0,0.0,0.0,0.0,0.0,0.0,0.0,0.0,0.0,0.0,0.0,0.0,0.0,0.0,0.0,0.0,0.0,0.0,0.0,0.0,0.0,0.0,0.0,0.0,0.0,0.0,0.0,0.0,0.0,0.0,0.0,0.0,0.0,0.0,0.0,0.0,0.0,0.0,0.0,0.0,0.0,0.0,1.7232,1.8339,1.9839,2.0194,1.935,1.9377,1.8361,0.0,0.0,0.0,0.0,0.0,0.0,0.0,0.0,0.0,0.0,0.0,0.0,0.0,0.0,0.0,0.0,0.0,0.0,0.0,0.0,0.0,0.0,0.0,0.0,0.0,0.0,0.0,0.0,0.0,0.0,0.0,0.0,0.0,0.0,0.0,0.0,0.0,0.0,0.0,0.0,0.0,0.0,0.0,0.0,0.0,0.0,0.0,0.0,0.0,0.0,0.0,0.0,0.0,0.0,0.0,0.0,0.0,0.0,0.0,0.0,0.0,0.0,0.0,0.0,0.0,0.0,0.0,0.0,0.0,0.0,0.0,0.0,0.0,0.0,0.0,0.0,0.0,0.0,0.0,0.0,0.0,0.0,0.0,0.0,0.0,0.0,0.0,0.0,0.0,0.0,0.0,0.0,0.0,0.0,0.0,0.0,0.0,0.0,0.0,0.0,0.0,0.0,0.0,0.0,0.0,0.0,0.0,1.665,1.81,1.9806,2.038,2.0194,1.9343,1.9896,1.9041,1.665,0.0,0.0,0.0,0.0,0.0,0.0,0.0,0.0,0.0,0.0,0.0,0.0,0.0,0.0,0.0,0.0,0.0,0.0,0.0,0.0,0.0,0.0,0.0,0.0,0.0,0.0,0.0,0.0,0.0,0.0,0.0,0.0,0.0,0.0,0.0,0.0,0.0,0.0,0.7314,0.8184,0.0,0.0,0.0,0.0,0.0,0.0,0.0,0.0,0.7366,0.0,0.0,0.0,0.0,0.0,0.0,0.0,0.0,0.0,0.0,0.0,0.0,0.0,0.0,0.0,0.0,0.0,0.0,0.0,0.0,0.0,0.0,0.0,0.0,0.0,0.0,0.0,0.0,0.0,0.0,0.0,0.0,0.0,0.0,0.0,0.0,0.0,0.0,0.0,0.0,0.0,0.0,0.0,0.0,0.0,0.0,0.0,0.0,0.0,0.0,0.0,0.0,0.0,0.0,0.0,0.0,1.6412,1.6351,1.7489,1.9826,2.0342,2.0194,1.9343,1.9896,1.9225,1.7252,0.0,0.0,0.0,0.0,0.0,0.0,0.0,0.0,0.0,0.0,0.0,0.0,0.0,0.0,0.0,0.0,0.0,0.0,0.0,0.0,0.0,0.0,0.0,0.0,0.0,0.0,0.0,0.0,0.0,0.0,0.0,0.0,0.0,0.0,0.0,0.0,0.0,0.0,0.0,0.9736,1.041,0.0,0.0,0.0,0.0,0.0,0.0,0.0,0.0,0.8009,0.0,0.0,0.0,0.0,0.0,0.0,0.0,0.0,0.0,0.0,0.0,0.0,0.0,0.0,0.0,0.0,0.0,0.0,0.0,0.0,0.0,0.0,0.0,0.0,0.0,0.0,0.0,0.0,0.0,0.0,0.0,0.0,0.0,0.0,0.0,0.0,0.0,0.0,0.0,0.0,0.0,0.0,0.0,0.0,0.0,0.0,0.0,0.0,0.0,0.0,0.0,0.0,0.0,0.0,0.0,1.6558,1.7159,1.833,2.0195,2.0498,2.0194,1.9343,1.9617,1.8986,0.0,0.0,0.0,0.0,0.0,0.0,0.0,0.0,0.0,0.0,0.0,0.0,0.0,0.0,0.0,0.0,0.0,0.0,0.0,0.0,0.0,0.0,0.0,0.0,0.0,0.0,0.0,0.0,0.0,0.0,0.0,0.0,0.0,0.0,0.0,0.0,0.0,0.0,0.0,0.0,1.0195,1.0864,1.1653,0.0,0.0,0.0,0.0,0.0,0.0,0.9437,0.8873,0.0,0.0,0.0,0.0,0.0,0.0,0.0,0.0,0.0,0.0,0.0,0.0,0.0,0.0,0.0,0.0,0.0,0.0,0.0,0.0,0.0,0.0,0.0,0.0,0.0,0.0,0.0,0.0,0.0,0.0,0.0,0.0,0.0,0.0,0.0,0.0,0.0,0.0,0.0,0.0,0.0,0.0,0.0,0.0,0.0,0.0,0.0,0.0,0.0,0.0,0.0,0.0,0.0,0.0,0.0,1.6648,1.7867,1.918,2.0537,2.0615,2.0261,1.9578,1.9568,1.8926,0.0,0.0,0.0,0.0,0.0,0.0,0.0,0.0,0.0,0.0,0.0,0.0,0.0,0.0,0.0,0.0,0.0,0.0,0.0,0.0,0.0,0.0,0.0,0.0,0.0,0.0,0.0,0.0,0.0,0.0,0.0,0.0,0.0,0.0,0.0,0.0,0.0,0.0,0.0,0.0,0.0,1.1313,1.2605,1.1508,0.0,0.0,0.0,0.0,1.0498,1.0327,0.0,0.0,0.0,0.0,0.0,0.0,0.0,0.0,0.0,0.0,0.0,0.0,0.0,0.0,0.0,0.0,0.0,0.0,0.0,0.0,0.0,0.0,0.0,0.0,0.0,0.0,0.0,0.0,0.0,0.0,0.0,0.0,0.0,0.0,0.0,0.0,0.0,0.0,0.0,0.0,0.0,0.0,0.0,0.0,0.0,0.0,0.0,0.0,0.0,0.0,0.0,0.0,0.0,0.0,0.0,0.0,1.6619,1.7617,1.8887,2.0507,2.0615,2.0554,2.0456,2.0234,1.9582,0.0,0.0,0.0,0.0,0.0,0.0,0.0,0.0,0.0,0.0,0.0,0.0,0.0,0.0,0.0,0.0,0.0,0.0,0.0,0.0,0.0,0.0,0.0,0.0,0.0,0.0,0.0,0.0,0.0,0.0,0.0,0.0,0.0,0.0,0.0,0.0,0.0,0.0,0.0,0.0,0.0,1.239,1.1851,1.1591,1.1343,0.0,0.0,1.0908,1.1359,1.1552,0.0,0.0,0.0,0.0,0.0,0.0,0.0,0.0,0.0,0.0,0.0,0.0,0.0,0.0,0.0,0.0,0.0,0.0,0.0,0.0,0.0,0.0,0.0,0.0,0.0,0.0,0.0,0.0,0.0,0.0,0.0,0.0,0.0,0.0,0.0,0.0,0.0,0.0,0.0,0.0,0.0,0.0,0.0,0.0,0.0,0.0,0.0,0.0,0.0,0.0,0.0,0.0,0.0,0.0,0.0,1.4629,1.6658,1.8057,1.9326,2.0556,2.0615,2.0591,2.0588,2.0051,1.9205,0.0,0.0,0.0,0.0,0.0,0.0,0.0,0.0,0.0,0.0,0.0,0.0,0.0,0.0,0.0,0.0,0.0,0.0,0.0,0.0,0.0,0.0,0.0,0.0,0.0,0.0,0.0,0.0,0.0,0.0,0.0,0.0,0.0,0.0,0.0,0.0,0.0,0.0,0.0,0.0,0.0,0.0,1.2815,1.2563,0.0,0.0,0.0,1.2025,1.1953,0.0,0.0,0.0,0.0,0.0,0.0,0.0,0.0,0.0,0.0,0.0,0.0,0.0,0.0,0.0,0.0,0.0,0.0,0.0,0.0,0.0,0.0,0.0,0.0,0.0,0.0,0.0,0.0,0.0,0.0,0.0,0.0,0.0,0.0,0.0,0.0,0.0,0.0,0.0,0.0,0.0,0.0,0.0,0.0,0.0,0.0,0.0,0.0,0.0,0.0,0.0,0.0,0.0,0.0,0.0,0.0,0.0,1.6687,1.8418,1.9734,2.0566,2.0615,2.0591,2.0588,1.9932,0.0,0.0,0.0,0.0,0.0,0.0,0.0,0.0,0.0,0.0,0.0,0.0,0.0,0.0,0.0,0.0,0.0,0.0,0.0,0.0,0.0,0.0,0.0,0.0,0.0,0.0,0.0,0.6944,0.0,0.0,0.0,0.0,0.0,0.0,0.0,0.0,0.0,0.0,0.0,0.0,0.0,0.0,1.2735,1.3713,1.3492,1.3303,0.0,0.0,1.3047,1.2593,1.3632,1.3833,0.0,0.0,0.0,0.0,0.0,0.0,0.0,0.0,0.0,0.0,0.0,0.0,0.0,0.0,0.0,0.0,0.0,0.0,0.0,0.0,0.0,0.0,0.0,0.0,0.0,0.0,0.0,0.0,0.0,0.0,0.0,0.0,0.0,0.0,0.0,0.0,0.0,0.0,0.0,0.0,0.0,0.0,0.0,0.0,0.0,0.0,0.0,0.0,0.0,0.0,0.0,0.0,0.0,0.0,0.0,1.6687,1.8418,1.9734,2.0576,2.0615,2.0591,2.0588,2.0289,1.9381,0.0,0.0,0.0,0.0,0.0,0.0,0.0,0.0,0.0,0.0,0.0,0.0,0.0,0.0,0.0,0.0,0.0,0.0,0.0,0.0,0.0,0.0,0.0,0.0,0.0,0.0,0.0,0.0,0.0,0.0,0.0,0.0,0.0,0.0,0.0,0.0,0.0,0.0,0.0,0.0,0.0,1.3122,1.3884,1.4008,1.4261,0.0,0.0,1.388,1.3486,1.3976,1.3742,1.184,0.0,0.0,0.0,0.0,0.0,0.0,0.0,0.0,0.0,0.0,0.0,0.0,0.0,0.0,0.0,0.0,0.0,0.0,0.0,0.0,0.0,0.0,0.0,0.0,0.0,0.0,0.0,0.0,0.0,0.0,0.0,0.0,0.0,0.0,0.0,0.0,0.0,0.0,0.0,0.0,0.0,0.0,0.0,0.0,0.0,0.0,0.0,0.0,0.0,0.0,0.0,0.0,0.0,1.4962,1.6687,1.8408,1.9744,2.0566,2.0615,2.0721,2.0959,2.0473,1.9549,0.0,0.0,0.0,0.0,0.0,0.0,0.0,0.0,0.0,0.0,0.0,0.0,0.0,0.0,0.0,0.0,0.0,0.0,0.0,0.0,0.0,0.0,0.0,0.0,0.0,0.0,0.0,0.0,0.9441,0.978,0.9767,0.0,0.0,0.0,0.0,0.0,0.0,0.0,0.0,0.0,0.0,1.4068,1.4651,1.4635,0.0,0.0,1.4821,1.4394,1.3938,1.4424,1.4383,1.2998,1.2468,0.0,0.0,0.0,0.0,0.0,0.0,0.0,0.0,0.0,0.0,0.0,0.0,0.0,0.0,0.0,0.0,0.0,0.0,0.0,0.0,0.0,0.0,0.0,0.0,0.0,0.0,0.0,0.0,0.0,0.0,0.0,0.0,0.0,0.0,0.0,0.0,0.0,0.0,0.0,0.0,0.0,0.0,0.0,0.0,0.0,0.0,0.0,0.0,0.0,0.0,0.0,0.0,1.4952,1.6687,1.8428,1.9707,2.0547,2.0615,2.0687,2.0804,2.0563,1.9727,0.0,0.0,0.0,0.0,0.0,0.0,0.0,0.0,0.0,0.0,0.0,0.0,0.0,0.0,0.0,0.0,0.0,0.0,0.0,0.0,0.0,0.0,0.0,0.0,0.0,0.0,0.0,0.0,1.0482,1.0631,1.0468,0.0,0.0,0.0,0.0,0.0,0.0,0.0,0.0,0.0,0.0,1.471,1.5597,1.5301,1.5133,1.5541,1.5245,1.4775,1.4192,1.4613,1.4573,1.3362,0.0,0.0,0.0,0.0,0.0,0.0,0.0,0.0,0.0,0.0,0.0,0.0,0.0,0.0,0.0,0.0,0.0,0.0,0.0,0.0,0.0,0.0,0.0,0.0,0.0,0.0,0.0,0.0,0.0,0.0,1.557,0.0,0.0,0.0,0.0,0.0,0.0,0.0,0.0,0.0,0.0,0.0,0.0,0.0,0.0,0.0,0.0,0.0,0.0,0.0,0.0,0.0,0.0,1.4972,1.6687,1.8428,1.9744,2.0576,2.0605,2.0438,2.0072,2.0631,2.0037,1.8009,0.0,0.0,0.0,0.0,0.0,0.0,0.0,0.0,0.0,0.0,0.0,0.0,0.0,0.0,0.0,0.0,0.0,0.0,0.0,0.0,0.0,0.0,0.0,0.0,0.0,0.0,1.0643,1.0694,1.0506,0.0,0.0,0.0,0.0,0.0,0.0,0.0,0.0,0.0,0.0,1.4289,1.5038,1.6707,1.6057,1.5738,1.6384,1.5901,1.5107,1.4307,1.452,1.4216,0.0,0.0,0.0,0.0,0.0,0.0,0.0,0.0,0.0,0.0,0.0,0.0,0.0,0.0,0.0,0.0,0.0,0.0,0.0,0.0,0.0,0.0,0.0,0.0,0.0,0.0,0.0,1.9929,1.9019,0.0,0.0,0.0,0.0,0.0,0.0,0.0,0.0,0.0,0.0,0.0,1.9092,2.1608,0.0,0.0,0.0,0.0,0.0,0.0,0.0,0.0,0.0,0.0,0.0,0.0,1.5527,1.6736,1.8701,2.0309,2.1458,2.0934,2.1171,2.2242,2.1428,2.0251,1.8663,0.0,0.0,0.0,0.0,0.0,0.0,0.0,0.0,0.0,0.0,0.0,0.0,0.0,0.0,0.0,0.0,0.0,0.0,0.0,0.0,0.0,0.0,0.0,0.0,0.0,1.1249,0.0,0.0,0.0,0.0,0.0,0.0,0.0,0.0,0.0,0.0,0.0,1.3757,1.4736,1.595,1.6894,1.7351,1.7422,1.7539,0.0,0.0,0.0,0.0,0.0,0.0,0.0,0.0,0.0,0.0,0.0,0.0,0.0,0.0,1.1755,0.9767,0.9092,0.8877,0.916,0.0,0.0,0.0,0.0,0.0,0.0,0.0,0.0,0.0,0.0,0.0,0.0,0.0,0.0,2.2543,0.0,2.1386,0.0,0.0,0.0,0.0,0.0,0.0,0.0,0.0,2.1643,2.2697,2.2026,2.4487,2.4888,0.0,2.3176,2.1382,0.0,0.0,0.0,0.0,0.0,0.0,0.0,0.0,1.6034,1.7369,1.9551,2.1226,2.2133,2.1686,2.2064,2.3419,2.2218,2.1097,2.0159,1.8531,1.7149,0.0,0.0,0.0,0.0,0.0,0.0,0.0,0.0,0.0,0.0,0.0,0.0,0.0,0.0,0.0,0.0,0.0,0.0,0.0,0.0,0.0,0.0,0.0,1.2458,0.0,0.0,0.0,0.0,0.0,0.0,0.0,0.0,0.0,1.3511,1.4573,1.5659,1.6532,1.7452,1.8051,1.8098,0.0,0.0,0.0,0.0,0.0,0.0,0.0,1.6689,1.6867,1.5774,1.4763,1.4456,1.4166,1.3857,1.3555,0.0,0.0,1.1336,1.0645,1.0391,1.0488,1.0488,1.0595,1.0908,1.1084,1.1203,0.0,0.0,0.0,0.0,0.0,0.0,0.0,0.0,2.3421,2.3572,0.0,2.3009,0.0,0.0,0.0,0.0,0.0,0.0,0.0,0.0,2.5706,2.684,2.6117,2.6938,2.7344,2.7366,2.7268,2.6138,2.3866,1.9341,0.0,0.0,0.0,0.0,0.0,0.0,1.6605,1.8674,2.1056,2.2453,2.2815,2.2886,2.3112,2.3517,2.2933,2.2488,2.2276,2.0702,1.882,1.6713,1.6045,0.0,0.0,0.0,0.0,0.0,0.0,0.0,0.0,0.0,0.0,0.0,0.0,0.0,0.0,0.0,0.0,0.0,0.0,0.0,0.0,1.3438,0.0,0.0,0.0,0.0,0.0,0.0,0.0,0.0,0.0,0.0,1.5394,1.6622,1.8037,1.9227,0.0,0.0,0.0,0.0,1.8453,1.9246,1.9383,1.8988,1.775,1.8523,1.8742,1.719,0.0,0.0,1.4614,1.4588,1.4598,1.376,1.3938,1.4007,1.3594,1.3096,1.2725,1.233,1.2233,1.2252,1.2291,1.2578,1.2842,3.0385,0.0,0.0,0.0,0.0,2.6573,2.7552,2.8626,2.9248,2.8731,2.7455,2.7144,0.0,0.0,0.0,0.0,0.0,0.0,2.1917,2.2965,2.5678,2.7143,2.7535,2.8583,2.8863,2.8473,2.8411,2.7733,2.6314,2.4549,2.1262,1.6608,0.0,0.0,0.0,0.0,1.9964,2.0365,2.2944,2.4505,2.4918,2.4243,2.3936,2.4003,2.4096,2.3747,2.2895,2.1681,2.0351,1.892,1.7601,0.0,0.0,0.0,0.0,0.0,0.0,0.0,0.0,0.0,0.0,0.0,0.0,0.0,0.0,0.0,0.0,0.0,0.0,0.0,1.3468,1.3896,1.411,0.0,0.0,0.0,0.0,0.0,0.0,0.0,0.0,0.0,1.894,1.9027,1.9318,0.0,0.0,2.0443,2.0082,2.0617,2.0944,2.0575,0.0,0.0,0.0,1.9744,1.9705,2.0057,1.9304,1.8224,1.7082,1.6227,1.5645,1.5381,1.5176,1.4912,1.4502,1.4072,1.3724,1.3588,1.3568,1.3542,1.3568,1.3675,1.3656,3.4682,3.1295,3.0131,2.9629,2.9672,3.036,3.1253,3.2242,3.271,3.2127,3.0871,3.038,2.8562,2.5699,2.4696,0.0,0.0,0.0,2.505,2.6319,2.7906,2.8787,2.9111,2.9779,2.9817,2.9289,2.9277,2.8812,2.7934,2.7607,2.5178,2.0825,0.0,0.0,1.7875,2.052,2.2171,2.2688,2.4895,2.6197,2.636,2.582,2.518,2.4553,2.4702,2.4462,2.3785,2.2523,2.1292,2.0214,1.8995,1.7388,0.0,0.0,0.0,0.0,0.0,0.0,0.0,0.0,0.0,0.0,0.0,1.0207,0.854,0.0,0.0,0.0,1.2319,1.3608,1.4617,1.5117,0.0,0.0,0.0,0.0,0.0,0.0,0.0,1.6351,1.8725,2.0434,2.0887,2.1404,2.1618,2.1356,2.1879,2.2116,2.1667,0.0,2.2715,2.253,2.2954,2.291,2.1858,2.1517,2.1489,2.1604,2.0896,1.986,1.8919,1.7822,1.7062,1.6809,1.6346,1.5801,1.54,1.5078,1.4669,1.4211,1.4114,1.4114,1.4114,1.4114,1.4026,3.8366,3.7199,3.5152,3.4211,3.4098,3.4098,3.4361,3.4738,3.4248,3.3997,3.3884,3.288,3.1537,2.9916,2.7479,0.0,0.0,2.9001,2.9541,3.1304,3.1345,3.1135,3.0643,3.0633,3.0357,2.9854,2.9817,2.9515,2.8963,2.895,2.7897,2.5841,2.3752,2.248,2.205,2.2558,2.3693,2.536,2.6889,2.7579,2.7356,2.7323,2.6592,2.5087,2.4883,2.4763,2.4675,2.3175,2.182,2.0805,2.015,1.8618,1.607,0.0,0.0,0.0,0.0,0.0,0.0,0.0,0.0,0.0,0.0,0.0,0.0,0.0,0.0,0.0,1.4525,0.0,1.5804,1.6808,0.0,0.0,0.0,1.671,1.6716,1.7713,1.8387,1.8348,0.0,0.0,0.0,0.0,2.4392,2.3111,2.3326,2.3613,2.3613,2.3574,2.389,2.4546,2.4763,2.4318,2.3131,2.3366,2.3356,2.2249,2.1939,2.1373,2.0276,1.9258,1.8606,1.806,1.7357,1.6654,1.6212,1.6065,1.5733,1.4523,1.427,1.4241,1.426,1.428,1.427,3.9722,3.9019,3.8078,3.696,3.578,3.5827,3.5617,3.5295,3.5169,3.4881,3.4512,3.4248,3.3445,3.2198,3.0247,2.9499,2.9801,2.9893,3.0031,3.0247,3.1046,3.1323,3.1185,3.0809,3.0545,3.0394,2.9993,2.9729,2.9591,2.9591,2.9089,2.8123,2.7588,2.6075,2.3822,2.5692,2.6821,2.6939,2.8484,2.8809,2.7916,2.7512,2.6699,2.5509,2.5028,2.4619,2.4192,2.2987,2.2008,2.1333,2.0338,1.9108,1.7677,1.6271,0.0,0.0,0.0,0.0,0.0,0.0,0.0,0.0,0.0,1.3413,1.1351,0.0,1.4444,0.0,1.553,1.6657,1.7481,1.7858,0.0,0.0,1.8609,1.8656,1.9504,1.9854,2.0314,2.1093,2.2597,2.3691,2.3966,2.4811,2.5294,2.4946,2.4677,2.4484,2.4504,2.4484,2.4549,2.4781,2.4838,2.4673,2.4362,2.4097,2.371,2.2953,2.2322,2.1799,2.1482,2.0398,1.933,1.8617,1.8061,1.743,1.6738,1.6309,1.6036,1.5684,1.5342,1.5079,1.5079,1.5098,1.501,4.0777,4.0036,3.9735,3.8919,3.7801,3.7348,3.6923,3.6586,3.6335,3.5956,3.5429,3.4893,3.4387,3.374,3.2518,3.1852,3.1638,3.1589,3.1498,3.1314,3.1888,3.2001,3.175,3.1461,3.1085,3.0608,3.0306,3.003,2.9804,2.9779,2.9628,2.9315,2.9315,2.8425,2.681,2.7878,2.8462,2.8535,2.9384,2.9365,2.8499,2.7934,2.7105,2.6047,2.5234,2.4537,2.4017,2.2899,2.2058,2.1506,2.0652,1.9698,1.8594,1.7451,1.6446,0.0,0.0,0.0,0.0,0.0,0.0,0.0,0.0,0.0,0.0,0.0,1.5703,0.0,1.7426,0.0,1.9226,1.9731,2.0349,2.1204,2.0974,2.1109,2.1996,2.2124,2.2432,2.3255,2.4165,2.482,2.5134,2.5636,2.5975,2.6009,2.5737,2.5548,2.5548,2.5561,2.5548,2.5548,2.5548,2.5448,2.5222,2.4506,2.3891,2.3516,2.2923,2.2445,2.2402,2.1535,2.0625,2.0122,1.9273,1.8501,1.8145,1.7291,1.6727,1.6789,1.6267,1.5694,1.5459,1.542,1.5322,4.1593,4.0714,4.0576,4.0249,3.971,3.8668,3.8178,3.809,3.7538,3.7021,3.6455,3.5303,3.4781,3.4743,3.4261,3.401,3.3972,3.3432,3.3181,3.3181,3.3149,3.2805,3.2328,3.2252,3.1725,3.0834,3.0683,3.033,2.9905,2.9817,2.9779,2.9779,2.9779,2.9779,2.9767,2.9289,2.9289,2.9779,2.9779,2.9515,2.89,2.8398,2.7582,2.6512,2.5398,2.4499,2.3891,2.2874,2.2058,2.1506,2.1043,2.03,1.9271,1.8694,1.7903,0.0,1.6283,0.0,0.0,0.0,0.0,0.0,0.0,0.0,0.0,1.6964,1.7332,1.7811,1.9763,2.0986,2.0945,2.1877,2.2681,2.3145,2.3283,2.3547,2.4117,2.4205,2.4418,2.4958,2.5435,2.5711,2.5724,2.6197,2.6487,2.6449,2.6424,2.6386,2.6461,2.6424,2.6399,2.6487,2.6487,2.6185,2.5611,2.482,2.4205,2.4004,2.3541,2.3195,2.3047,2.2494,2.199,2.1729,2.063,1.977,1.9977,1.8712,1.7907,1.8174,1.7368,1.6427,1.5723,1.5449,1.542,4.2087,4.181,4.0877,4.045,4.03,3.9659,3.9132,3.8668,3.8103,3.7538,3.6948,3.5868,3.5345,3.5295,3.4768,3.4562,3.4537,3.3997,3.3746,3.3721,3.3294,3.3061,3.2893,3.2441,3.2114,3.1863,3.1035,3.057,3.0457,3.0018,2.9779,2.9779,2.9779,2.9779,2.9779,0.0,0.0,0.0,2.9779,2.9503,2.89,2.8398,2.7582,2.6512,2.5398,0.0,2.3308,2.2661,2.2058,2.1518,2.1421,0.0,0.0,0.0,0.0,0.0,0.0,0.0,0.0,0.0,0.0,0.0,1.9786,1.912,1.8041,1.9522,2.0586,2.073,2.1872,2.2639,2.2633,2.3248,2.3715,2.3828,2.4199,2.4707,2.5222,2.5285,2.5511,2.6109,2.6273,2.6323,2.6311,2.6449,2.6487,2.6487,2.6487,2.6487,2.6487,2.6487,2.6487,2.6487,2.6487,2.6285,2.5686,2.5398,2.4908,2.4255,2.3941,2.3634,2.3203,2.3042,2.261,2.2075,2.1616,2.1152,2.0635,1.9879,1.9385,1.9512,1.9072,1.8121,1.6377,1.5654,1.542,4.2451,0.0,4.1555,4.1015,0.0,4.0212,3.9785,3.9296,3.868,3.7977,3.7149,3.6596,3.6207,3.5918,3.532,3.5082,3.5044,3.4274,3.3909,3.3872,3.3332,3.3124,3.3111,3.278,3.2491,3.219,3.1399,3.0871,3.0555,3.0068,2.9779,2.9779,2.9779,2.9779,2.9779,2.9779,2.9779,2.9779,2.9779,2.9654,2.9352,2.8812,2.7984,2.6939,0.0,0.0,0.0,0.0,0.0,0.0,0.0,0.0,0.0,0.0,0.0,2.025,2.0211,2.0351,2.06,2.0876,2.1265,2.1832,2.2146,2.1732,2.0338,2.1769,2.2736,2.2749,2.3459,2.4048,2.4311,2.4619,2.4895,2.5217,2.546,2.5749,2.5996,2.6059,2.6172,2.6411,2.6487,2.6487,2.6487,2.6487,2.6487,2.6487,2.6487,2.6512,2.6487,2.6487,2.6487,2.6487,2.6487,2.6399,2.6076,2.5737,2.5473,2.4895,2.4582,2.4192,2.3622,2.3565,2.3324,2.2623,2.2199,2.1815,2.1822,2.1008,2.0367,2.0676,2.0186,1.9334,1.8117,1.7417,1.6715,4.2778,4.2351,4.2238,4.1697,4.0789,4.0601,4.0212,3.9659,0.0,0.0,0.0,3.7236,3.6885,3.638,3.5893,3.5646,3.5583,3.465,3.4135,3.4022,3.3483,3.3212,3.3124,3.3124,3.283,3.234,3.18,3.126,3.0746,3.0206,2.9892,2.9804,2.9779,2.9779,2.9779,2.9779,2.9779,2.9779,2.9779,2.9779,2.9779,2.9227,2.8499,2.7595,2.6889,2.5808,2.4343,2.371,2.3145,2.2636,2.2272,2.2033,2.1933,2.1933,2.2096,2.2393,2.2518,2.2782,2.3221,2.3358,2.3446,2.3521,2.4092,2.3966,2.2849,2.3703,2.428,2.428,2.487,2.5435,2.585,2.6,2.6214,2.6751,2.6788,2.6788,2.6788,2.6788,2.6813,2.6788,2.6839,2.6788,2.6839,2.6839,2.6776,2.6788,2.6876,2.6776,2.6763,2.665,2.6487,2.6487,2.6487,2.6487,2.6424,2.6135,2.5724,2.5536,2.5197,2.475,2.4305,2.4067,2.3816,2.3353,2.2623,2.2445,2.2854,2.1997,2.1333,2.197,2.1256,2.0435,2.0285,1.9718,1.8737,4.2924,4.2823,4.2401,4.2125,4.1898,4.0915,4.0212,3.9659,3.9107,3.8554,3.7864,3.7387,3.692,3.6417,3.6317,3.6292,3.6254,3.5592,3.5019,0.0,3.4035,3.3533,3.3136,3.3124,3.3074,3.2918,3.2365,3.1813,3.1286,3.0746,3.0269,2.9842,2.9779,2.9779,2.9779,2.9779,2.9779,2.9779,2.9779,2.9779,2.9779,2.9227,2.8825,2.8612,2.7256,2.616,2.5398,2.487,2.4299,2.3816,2.4142,2.413,2.369,2.3615,2.3452,2.3058,2.3459,2.3803,2.3904,2.4274,2.4738,2.5234,2.5808,2.5682,2.4607,2.5021,2.5372,2.541,2.6302,2.6954,2.7067,2.7419,2.7682,2.7808,2.7858,2.7871,2.7821,2.7808,2.7808,2.7795,2.7871,2.7833,2.7783,2.7795,2.7783,2.7833,2.7695,2.7821,2.7645,2.709,2.6562,2.6487,2.6487,2.6487,2.6474,2.6449,2.616,2.5674,2.5573,2.5322,2.4795,2.4393,2.4067,2.3879,2.3306,2.3019,2.309,2.2944,2.2689,2.2823,2.2536,2.2333,2.1935,2.1657,2.0887,4.2986,4.2949,4.2766,4.2489,4.2125,4.0978,4.0212,3.9685,3.9433,3.8994,3.8442,3.7877,3.7324,3.6845,3.6543,3.6417,3.638,3.5805,3.537,3.5069,3.4299,3.3759,3.3508,3.3262,3.3124,3.3086,3.2478,3.2077,3.1788,3.1009,3.0495,3.0231,2.9942,2.9779,2.9779,2.9779,2.9779,2.9779,2.9779,2.9779,2.9779,2.9541,2.9252,2.89,2.816,2.7381,2.654,2.6276,2.5762,2.4895,2.5109,2.5008,2.4481,2.4412,2.4456,2.4481,2.472,2.5134,2.5749,2.6289,2.6703,2.6954,2.7193,2.7155,2.6653,2.6816,2.6954,2.6967,2.7457,2.772,2.7733,2.7959,2.8109,2.8109,2.8109,2.8109,2.8109,2.8109,2.8109,2.8109,2.8109,2.8109,2.8109,2.8109,2.8109,2.8109,2.8109,2.8122,2.8134,2.7708,2.7231,2.6989,2.67,2.6512,2.6487,2.6487,2.6373,2.6122,2.6097,2.5837,2.5372,2.4983,2.4644,2.4117,2.3722,2.3459,2.3208,2.3095,2.3095,2.3095,2.3095,2.2957,2.2757,2.2518,2.1634,4.2986,4.2986,4.2986,4.2703,4.2125,4.1116,4.0388,3.9898,3.9747,3.9459,3.9007,3.8454,3.7826,3.7174,3.6782,3.6531,3.6367,3.5918,3.5608,3.542,3.4618,3.4148,3.3872,3.3445,3.3206,3.3086,3.2616,3.2353,3.2127,3.1361,3.0806,3.0583,3.0055,2.9779,2.9779,2.9779,2.9779,2.9779,2.9779,2.9779,2.9779,2.9779,2.9578,2.9164,2.895,2.8487,2.7708,2.7532,2.7067,2.6239,2.6163,2.5975,2.5598,2.5528,2.5749,2.6113,2.6163,2.654,2.7381,2.7858,2.8109,2.8109,2.8222,2.8285,2.8298,2.8411,2.836,2.8172,2.8197,2.8298,2.831,2.8448,2.8486,2.8486,2.8486,2.8561,2.8499,2.8486,2.8499,2.8486,2.8486,2.8524,2.8486,2.8486,2.8536,2.8561,2.8486,2.8486,2.8486,2.8398,2.8084,2.7682,2.7128,2.6663,2.6537,2.6487,2.6487,2.6487,2.6461,2.626,2.5875,2.5711,2.5347,2.4569,2.4142,2.3853,2.3396,2.3183,2.312,2.3095,2.3095,2.3095,2.3045,2.2782,2.216,4.2986,4.2986,4.2986,4.2715,4.2162,4.1517,4.094,4.0388,3.9923,3.9672,3.9534,3.9044,3.8203,3.7322,3.7123,3.687,3.6455,3.6355,3.6019,3.5558,3.5395,3.4876,3.3997,3.3834,3.3558,3.3174,3.3006,3.2704,3.2277,3.2102,3.1549,3.0658,3.0068,2.9804,2.9779,2.9779,2.9779,2.9779,2.9779,2.9779,2.9779,2.9779,2.9767,2.9716,2.9164,2.885,2.8737,2.8298,2.7984,2.7883,2.7846,2.7833,2.7758,2.777,2.7808,2.7833,2.7833,2.7934,2.8034,2.8084,2.816,2.8147,2.8562,2.8813,2.8838,2.9327,2.9176,2.8486,2.8586,2.88,2.8838,2.9277,2.9515,2.9478,2.9515,2.9641,2.9553,2.9641,2.9641,2.9641,2.9503,2.9616,2.9503,2.949,2.9541,2.9453,2.9428,2.9428,2.9415,2.9114,2.8762,2.8574,2.7908,2.714,2.6738,2.6512,2.6575,2.6549,2.6499,2.6424,2.626,2.5959,2.5498,2.5222,2.4657,2.4142,2.3879,2.354,2.3183,2.3208,2.3183,2.3095,2.3095,2.302,2.2655,4.3275,4.2986,4.2986,4.2715,4.2213,4.1894,4.1329,4.0513,4.0287,3.9998,3.9685,3.9459,3.8919,3.814,3.75,3.7048,3.6883,3.6556,3.6292,3.6006,3.5658,3.5257,3.4806,3.4173,3.3771,3.3533,3.3244,3.2943,3.2704,3.2378,3.1662,3.0708,3.0382,3.0118,2.9817,2.9779,2.9779,2.9779,2.9779,2.9779,2.9779,2.9779,2.9779,2.9767,2.9566,2.944,2.9428,2.9214,2.8938,2.8637,2.8549,2.8436,2.8122,2.8109,2.8109,2.8122,2.8386,2.8562,2.8549,2.8913,2.9101,2.9101,2.9302,2.944,2.9453,2.9666,2.9578,2.9252,2.9315,2.944,2.9453,2.9654,2.9779,2.9779,2.9779,2.9779,2.9779,2.9779,2.9779,2.9779,2.9779,2.9779,2.9779,2.9779,2.9779,2.9779,2.9779,2.9779,2.9767,2.9578,2.9276,2.8938,2.8524,2.8072,2.7507,2.7165,2.7027,2.6927,2.67,2.6499,2.6436,2.6348,2.6059,2.5686,2.5197,2.4757,2.4499,2.433,2.4036,2.3772,2.3258,2.3095,2.3095,2.3095,2.297,4.3476,4.3024,4.2986,4.2803,4.2426,4.2263,4.176,4.0965,4.0651,4.0287,3.9923,3.976,3.9471,3.8994,3.8078,3.7487,3.7149,3.682,3.6556,3.638,3.5943,3.5646,3.542,3.4718,3.4186,3.3872,3.3508,3.3275,3.3043,3.2491,3.1813,3.1082,3.0771,3.0419,3.0055,2.9905,2.9779,2.9779,2.9779,2.9779,2.9779,2.9779,2.9779,2.9779,2.9779,2.9779,2.9779,2.9779,2.9603,2.9164,2.9164,2.8988,2.8612,2.8574,2.8574,2.8586,2.8938,2.9164,2.9176,2.9553,2.9779,2.9779,2.9779,2.9779,2.9779,2.9779,2.9779,2.9754,2.9779,2.9767,2.9779,2.9779,2.9779,2.9779,2.9779,2.9779,2.9779,2.9779,2.9779,2.9779,2.9779,2.9779,2.9779,2.9779,2.9779,2.9779,2.9779,2.9779,2.9779,2.9767,2.9616,2.9189,2.9164,2.8837,2.8235,2.7582,2.7392,2.7203,2.6864,2.6499,2.6487,2.6487,2.6461,2.6047,2.5787,2.5498,2.5084,2.4933,2.4745,2.428,2.376,2.3396,2.3421,2.3271,2.312,4.3476,4.3011,4.2986,4.2949,4.2898,4.2451,4.2187,4.1961,4.0978,4.0513,4.0375,3.991,3.9685,3.9597,3.8981,3.8191,3.7312,3.7161,3.6895,3.648,3.6367,3.6031,3.5508,3.5433,3.4881,3.4085,3.3859,3.3545,3.3099,3.2516,3.2202,3.2064,3.1185,3.0633,3.0482,3.0068,2.9804,2.9804,2.9779,2.9779,2.9779,2.9779,2.9779,2.9779,2.9779,2.9779,2.9779,2.9779,2.9754,2.9741,2.9716,2.9691,2.9679,2.9666,2.9641,2.9654,2.9704,2.9729,2.9716,2.9754,2.9779,2.9779,2.9779,2.9779,2.9779,2.9779,2.9779,2.9779,2.9779,2.9779,2.9779,2.9779,2.9779,2.9779,2.9779,2.9779,2.9779,2.9779,2.9779,2.9779,2.9779,2.9779,2.9779,2.9779,2.9779,2.9779,2.9779,2.9779,2.9779,2.9779,2.9741,2.9716,2.9616,2.9377,2.836,2.7896,2.7532,2.7329,2.7077,2.6524,2.6499,2.6474,2.6449,2.6348,2.6021,2.5711,2.5511,2.5272,2.4983,2.4632,2.4305,2.4029,2.3966,2.3459,2.3308,4.3802,4.2986,4.2986,4.2986,4.2961,4.276,4.2539,4.215,4.1367,4.0827,4.0463,3.9936,3.9697,3.9697,3.9496,3.8981,3.8228,3.7525,3.7073,3.6895,3.6581,3.6292,3.6069,3.5683,3.5332,3.4881,3.4236,3.3608,3.3162,3.2867,3.2566,3.2227,3.1851,3.1323,3.0708,3.0419,3.0156,2.9829,2.9779,2.9779,2.9779,2.9779,2.9779,2.9779,2.9779,2.9779,2.9779,2.9779,2.9779,2.9779,2.9779,2.9779,2.9779,2.9779,2.9779,2.9779,2.9779,2.9779,2.9779,2.9779,2.9779,2.9779,2.9779,2.9779,2.9779,2.9779,2.9779,2.9779,2.9779,2.9779,2.9779,2.9779,2.9779,2.9779,2.9779,2.9779,2.9779,2.9779,2.9779,2.9779,2.9779,2.9779,2.9779,2.9779,2.9779,2.9779,2.9779,2.9779,2.9779,2.9779,2.9779,2.9779,2.9779,2.9654,2.934,2.8725,2.8247,2.7795,2.7429,2.6914,2.67,2.66,2.6549,2.6461,2.6172,2.6109,2.5937,2.5686,2.5385,2.5234,2.4895,2.4582,2.4531,2.4123,2.3898,4.3815,4.3049,4.2986,4.2986,4.2986,4.2986,4.2773,4.2414,4.1831,4.1291,4.0739,4.0199,3.9873,3.971,3.9697,3.9509,3.9057,3.8165,3.7538,3.7209,3.6797,3.6581,3.6367,3.5994,3.5671,3.5345,3.4437,3.3621,3.3174,3.3124,3.291,3.2516,3.2315,3.1863,3.1198,3.0809,3.0407,3.0093,2.9892,2.9779,2.9779,2.9779,2.9779,2.9779,2.9779,2.9779,2.9779,2.9779,2.9779,2.9779,2.9779,2.9779,2.9779,2.9779,2.9779,2.9779,2.9779,2.9779,2.9779,2.9779,2.9779,2.9779,2.9779,2.9779,2.9779,2.9779,2.9779,2.9779,2.9779,2.9779,2.9779,2.9779,2.9779,2.9779,2.9779,2.9779,2.9779,2.9779,2.9779,2.9779,2.9779,2.9779,2.9779,2.9779,2.9779,2.9779,2.9779,2.9779,2.9779,2.9779,2.9779,2.9779,2.9779,2.9779,2.9628,2.9264,2.8825,2.8423,2.7908,2.7356,2.6977,2.6839,2.6675,2.6562,2.6487,2.6487,2.6361,2.6122,2.5984,2.5824,2.5473,2.5084,2.4996,2.4883,2.4544,4.3514,4.3049,4.2986,4.2986,4.2986,4.2986,4.303,4.2836,4.2401,4.1781,4.1304,4.0727,4.0187,3.981,3.9722,3.9672,3.9521,3.9019,3.8266,3.74,3.7186,3.6908,3.6493,3.638,3.6006,3.547,3.4449,3.3658,3.3224,3.3162,3.3086,3.2986,3.2516,3.2227,3.2152,3.1223,3.0683,3.0482,3.0105,2.9829,2.9779,2.9779,2.9779,2.9779,2.9779,2.9779,2.9779,2.9779,2.9779,2.9779,2.9779,2.9779,2.9779,2.9779,2.9779,2.9779,2.9779,2.9779,2.9779,2.9779,2.9779,2.9779,2.9779,2.9779,2.9779,2.9779,2.9779,2.9779,2.9779,2.9779,2.9779,2.9779,2.9779,2.9779,2.9779,2.9779,2.9779,2.9779,2.9779,2.9779,2.9779,2.9779,2.9779,2.9779,2.9779,2.9779,2.9779,2.9779,2.9779,2.9779,2.9779,2.9779,2.9779,2.9779,2.9779,2.9729,2.939,2.9013,2.8461,2.7934,2.7519,2.7281,2.7065,2.6901,2.6537,2.6512,2.6487,2.6285,2.6323,2.6185,2.5812,2.5598,2.5548,2.5398,2.4908,4.4041,4.3514,4.3137,4.2986,4.2986,4.2986,4.2986,4.2924,4.2439,4.2112,4.1756,4.0927,4.0413,4.0199,3.9885,3.9697,3.9685,3.9484,3.9032,3.8316,3.755,3.7098,3.6885,3.6581,3.6069,3.547,3.4826,3.4186,3.3671,3.3312,3.3124,3.3061,3.2893,3.2591,3.224,3.1863,3.1411,3.0658,3.0457,3.0193,2.9829,2.9792,2.9792,2.9779,2.9779,2.9779,2.9779,2.9779,2.9779,2.9779,2.9779,2.9779,2.9779,2.9779,2.9779,2.9779,2.9779,2.9779,2.9779,2.9779,2.9779,2.9779,2.9779,2.9779,2.9779,2.9804,2.9804,2.9804,2.9792,2.9779,2.9779,2.9779,2.9842,2.9792,2.9779,2.9779,2.9779,2.9779,2.9779,2.9779,2.9779,2.9779,2.9779,2.9779,2.9779,2.9779,2.9779,2.9779,2.9779,2.9779,2.9779,2.9779,2.9779,2.9779,2.9779,2.9779,2.9616,2.9377,2.8976,2.8473,2.8072,2.7808,2.7544,2.7203,2.6826,2.66,2.6562,2.6487,2.6487,2.6487,2.6235,2.6147,2.6185,2.5896,2.5443,4.4493,4.3777,4.3426,4.3162,4.2999,4.2986,4.2986,4.2924,4.2665,4.2401,4.2074,4.1442,4.0877,4.0513,4.0136,3.9885,3.9722,3.9697,3.9521,3.9032,3.8002,3.74,3.7149,3.6669,3.6081,3.5533,3.5144,3.4738,3.4198,3.3671,3.3395,3.337,3.3237,3.2905,3.2528,3.2303,3.1825,3.126,3.1009,3.0645,3.0218,3.0105,3.0005,2.9829,2.9779,2.9779,2.9779,2.9779,2.9779,2.9779,2.9779,2.9779,2.9779,2.9779,2.9779,2.9779,2.9779,2.9779,2.9779,2.9779,2.9779,2.9779,2.9779,2.9779,2.9829,2.993,3.0093,3.0105,3.0306,3.0382,3.0394,3.0407,3.0382,3.0394,3.0005,2.9817,2.9779,2.9779,2.9779,2.9779,2.9779,2.9779,2.9779,2.9779,2.9779,2.9779,2.9779,2.9779,2.9779,2.9779,2.9779,2.9779,2.9779,2.9779,2.9779,2.9779,2.9779,2.9641,2.9453,2.8988,2.8524,2.8436,2.8235,2.7682,2.7291,2.7014,2.6927,2.66,2.6487,2.6487,2.6587,2.6424,2.6348,2.6386,2.6021,4.4857,4.394,4.3815,4.3489,4.3074,4.2999,4.2986,4.2974,4.2949,4.2728,4.2338,4.2125,4.1505,4.0752,4.0501,4.0174,3.9772,3.9697,3.9685,3.9358,3.8555,3.7789,3.7174,3.6669,3.6119,3.5717,3.5495,3.5182,3.4763,3.4211,3.3922,3.3796,3.3407,3.3093,3.2943,3.2516,3.2252,3.2026,3.165,3.1185,3.0696,3.0658,3.0457,2.9993,2.9993,3.0005,3.0043,3.0055,2.993,2.9804,2.9779,2.9779,2.9779,2.9779,2.9792,2.988,2.9842,2.9942,2.9905,3.0055,3.003,3.0043,3.0055,2.988,3.008,3.0432,3.0645,3.0683,3.1009,3.1286,3.126,3.1248,3.126,3.1235,3.0557,3.008,2.9867,2.988,2.9892,2.9817,2.9779,2.9779,2.9779,2.9779,2.9779,2.9779,2.9779,2.9779,2.9779,2.9779,2.9779,2.9779,2.9779,2.9779,2.9779,2.9779,2.9779,2.9741,2.9654,2.939,2.8976,2.8863,2.875,2.821,2.7745,2.7469,2.7268,2.7065,2.6901,2.6977,2.6889,2.6625,2.6549,2.6612,2.6508,4.5321,4.4957,4.4154,4.3714,4.3514,4.3162,4.2986,4.2986,4.2986,4.2886,4.274,4.2376,4.1806,4.1075,4.0648,4.0224,3.9835,3.9697,3.9697,3.9584,3.8994,3.809,3.7236,3.6681,3.6342,3.6094,3.5755,3.5433,3.5245,3.4731,3.4336,3.3909,3.3796,3.347,3.3093,3.293,3.2616,3.2265,3.2102,3.1725,3.1286,3.1198,3.1122,3.1009,3.0934,3.0934,3.0959,3.0972,3.0557,2.9842,2.9779,2.9779,2.9854,2.9867,3.0043,3.0331,3.0407,3.057,3.0859,3.0922,3.0934,3.0972,3.0859,3.0959,3.0972,3.1097,3.1185,3.121,3.1336,3.1424,3.1411,3.1436,3.1424,3.1361,3.1148,3.0821,3.0482,3.0394,3.0256,2.9892,2.9842,2.9867,2.9842,2.9842,2.9817,2.9804,2.9779,2.9779,2.9779,2.9779,2.9779,2.9779,2.9779,2.9779,2.9779,2.9779,2.9779,2.9779,2.9754,2.9716,2.9402,2.9164,2.8963,2.8637,2.8235,2.7908,2.7883,2.777,2.767,2.7467,2.7316,2.7115,2.6952,2.6914,2.676,4.5711,4.5409,4.4518,4.4003,4.374,4.3212,4.2986,4.2986,4.2986,4.2986,4.2898,4.2728,4.225,4.1656,4.1116,4.0551,4.0061,3.9785,3.9697,3.9597,3.9107,3.8241,3.7337,3.6822,3.6644,3.638,3.6044,3.5906,3.5793,3.5295,3.4856,3.4625,3.4361,3.3972,3.3483,3.3407,3.3131,3.2679,3.2554,3.2303,3.1788,3.1738,3.1562,3.1461,3.1386,3.1386,3.1373,3.1373,3.106,3.0595,3.0482,3.047,3.047,3.047,3.0633,3.0934,3.0934,3.1085,3.1298,3.1386,3.1386,3.1373,3.1386,3.1386,3.1424,3.1574,3.1738,3.1738,3.1938,3.2077,3.2102,3.2102,3.2089,3.2139,3.2089,3.1775,3.1047,3.0947,3.0796,3.0557,3.0457,3.0344,3.0181,3.0143,3.0018,2.9867,2.9779,2.9779,2.9779,2.9792,2.9779,2.9779,2.9779,2.9779,2.9779,2.9779,2.9779,2.9779,2.9779,2.9779,2.9769,2.9517,2.9339,2.9088,2.8712,2.8448,2.8448,2.8323,2.8009,2.7808,2.7708,2.7704,2.7601,2.7875,2.7622,4.6024,4.5522,4.4882,4.433,4.384,4.325,4.2986,4.2986,4.2986,4.2986,4.2974,4.2974,4.264,4.2187,4.1605,4.1078,4.0475,4.0036,3.9798,3.9597,3.9182,3.8467,3.7638,3.7374,3.7046,3.6644,3.6505,3.6417,3.6207,3.5818,3.5545,3.5282,3.4931,3.4537,3.4048,3.3897,3.3621,3.3232,3.3018,3.2767,3.239,3.229,3.2127,3.1851,3.1763,3.1791,3.1754,3.1662,3.1599,3.1574,3.1474,3.1298,3.1323,3.1348,3.1424,3.1461,3.1486,3.1524,3.1612,3.1725,3.165,3.17,3.1687,3.1574,3.1775,3.2089,3.2303,3.2303,3.278,3.288,3.296,3.3036,3.2973,3.291,3.2968,3.2583,3.1905,3.1512,3.1449,3.1399,3.1361,3.1135,3.0871,3.0658,3.0532,3.0444,3.0281,3.0231,3.0168,3.0093,2.9967,2.9779,2.9779,2.9779,2.9779,2.9779,2.9779,2.9779,2.9779,2.9856,3.0139,2.9999,2.9832,2.9553,2.9202,2.9026,2.9013,2.8787,2.867,2.8835,2.9174,2.8831,2.8522,2.9109,2.919,4.625,4.605,4.5045,4.4556,4.4305,4.3413,4.2986,4.2986,4.2986,4.2986,4.2986,4.2986,4.2728,4.2225,4.1982,4.1455,4.0614,4.0325,4.0136,3.9697,3.9609,3.9157,3.8492,3.8103,3.755,3.7123,3.7059,3.6832,3.6468,3.6232,3.5956,3.5533,3.5408,3.5056,3.4542,3.4198,3.3872,3.3658,3.3319,3.3068,3.2943,3.2855,3.2767,3.2616,3.2671,3.2722,3.2704,3.2717,3.2717,3.2503,3.1938,3.1524,3.1524,3.1486,3.1662,3.1951,3.2051,3.2227,3.2579,3.2659,3.2692,3.2646,3.2566,3.2717,3.2759,3.2797,3.2867,3.2948,3.3048,3.3124,3.3124,3.3124,3.3124,3.3124,3.3111,3.3036,3.2692,3.229,3.1913,3.1587,3.1474,3.1361,3.126,3.1235,3.1135,3.1047,3.0922,3.0821,3.0633,3.0444,3.0206,2.998,2.9792,2.9792,2.9856,2.9998,3.0317,3.0419,3.0419,3.0381,3.0658,3.0595,3.0495,3.0165,2.9704,2.9681,3.0009,3.031,3.038,3.0533,3.0595,3.0342,3.0201,3.0622,3.0637,4.6313,4.6213,4.5384,4.4869,4.4518,4.3727,4.3212,4.3011,4.2986,4.2986,4.2986,4.2986,4.2811,4.2577,4.2301,4.1681,4.0927,4.0325,3.9973,3.9735,3.9685,3.9534,3.932,3.8906,3.8417,3.7676,3.7274,3.6998,3.6772,3.6483,3.6254,3.5956,3.5906,3.5629,3.5144,3.4743,3.4562,3.4223,3.3746,3.3458,3.3445,3.3237,3.3124,3.3124,3.3124,3.3124,3.3086,3.3099,3.3111,3.2973,3.2546,3.2164,3.219,3.2164,3.234,3.2541,3.2616,3.2729,3.3061,3.3124,3.3086,3.3136,3.3124,3.3124,3.3124,3.3124,3.3124,3.3124,3.3124,3.3124,3.3124,3.3124,3.3124,3.3124,3.3136,3.3124,3.3074,3.2792,3.2541,3.224,3.2282,3.2051,3.1926,3.1813,3.1562,3.1386,3.1286,3.1173,3.0997,3.0783,3.0507,3.0256,2.9942,2.9843,2.9934,3.0279,3.0945,3.123,3.1549,3.1573,3.1756,3.1549,3.1267,3.1007,3.082,3.1143,3.1466,3.1742,3.1852,3.1807,3.1738,3.1741,3.1907,3.218,3.1972,4.6313,4.6263,4.5711,4.5158,4.4593,4.4028,4.3463,4.3024,4.2986,4.2986,4.2986,4.2986,4.2949,4.2861,4.2522,4.1969,4.1191,4.0388,3.991,3.971,3.9697,3.9659,3.9584,3.9459,3.9145,3.8253,3.7814,3.7487,3.7086,3.6795,3.6531,3.6417,3.6392,3.6069,3.5742,3.5483,3.5194,3.4768,3.4311,3.4022,3.3922,3.3533,3.3257,3.3124,3.3124,3.3124,3.3124,3.3124,3.3124,3.3124,3.3124,3.3124,3.3124,3.3124,3.3124,3.3099,3.3048,3.3074,3.3099,3.3136,3.3149,3.3199,3.3262,3.335,3.3413,3.3483,3.3495,3.3458,3.3483,3.3483,3.3388,3.3483,3.3445,3.3382,3.3319,3.3206,3.3181,3.3199,3.2993,3.3023,3.2822,3.2591,3.2466,3.234,3.2026,3.1763,3.1675,3.1549,3.1386,3.1223,3.1009,3.0658,3.0357,3.033,3.0394,3.0659,3.1281,3.1974,3.2429,3.2607,3.27,3.2642,3.2429,3.2285,3.2236,3.2393,3.25,3.2629,3.27,3.2784,3.3024,3.321,3.3425,3.3691,3.3281,4.6313,4.6263,4.5723,4.5158,4.4593,4.4041,4.3501,4.3037,4.2986,4.2986,4.2986,4.2986,4.2986,4.2936,4.2924,4.2296,4.1417,4.0626,4.0111,3.9798,3.9722,3.9697,3.9697,3.9685,3.9521,3.9358,3.8793,3.8115,3.745,3.7073,3.6832,3.6518,3.6417,3.6292,3.6081,3.5818,3.5545,3.5307,3.4876,3.46,3.4628,3.4212,3.3788,3.3467,3.3399,3.3287,3.3181,3.3174,3.3124,3.3124,3.3124,3.3162,3.3237,3.3237,3.3224,3.3212,3.3275,3.3294,3.3282,3.3169,3.34,3.3621,3.3759,3.401,3.4248,3.4374,3.4248,3.4299,3.4324,3.4387,3.4449,3.4286,3.4399,3.4279,3.4022,3.3771,3.3684,3.3483,3.3262,3.3262,3.3199,3.3099,3.2855,3.2742,3.2591,3.2441,3.2458,3.224,3.2039,3.1876,3.17,3.1273,3.0821,3.0881,3.0962,3.1272,3.1713,3.2563,3.308,3.3408,3.3533,3.3705,3.3622,3.3429,3.3136,3.2961,3.3136,3.3449,3.3636,3.3788,3.4192,3.4639,3.4524,3.4375,3.4409,4.6313,4.6276,4.6012,4.5409,4.4669,4.4355,4.374,4.3049,4.2986,4.2986,4.2986,4.2986,4.2986,4.2986,4.2986,4.2497,4.1743,4.0852,4.04,4.0099,3.9848,3.9697,3.9697,3.9697,3.9697,3.9622,3.9358,3.8868,3.8052,3.7412,3.7111,3.6845,3.6581,3.6417,3.638,3.6119,3.5968,3.583,3.5441,3.5433,3.5897,3.5471,3.5063,3.4822,3.4223,3.3979,3.3935,3.3935,3.3947,3.3947,3.3935,3.3922,3.3909,3.3884,3.3784,3.3621,3.3734,3.3909,3.3922,3.3935,3.4085,3.4261,3.4324,3.4424,3.4638,3.4643,3.4743,3.4705,3.4693,3.468,3.4643,3.4718,3.468,3.4643,3.4474,3.4361,3.4261,3.406,3.3796,3.3508,3.3307,3.3237,3.3111,3.3061,3.3099,3.3124,3.3124,3.288,3.2616,3.2403,3.2177,3.2063,3.1798,3.2302,3.2448,3.2718,3.2971,3.3621,3.4002,3.4292,3.4428,3.4626,3.4635,3.4476,3.4158,3.3754,3.4192,3.4658,3.4725,3.4725,3.492,3.5067,3.5034,3.5034,3.4986,4.6313,4.6313,4.6313,4.566,4.4719,4.4618,4.3991,4.3124,4.2986,4.2986,4.2986,4.2986,4.2986,4.2986,4.2911,4.2703,4.2162,4.1191,4.0827,4.04,4.0099,3.986,3.971,3.9697,3.9697,3.9685,3.9647,3.9408,3.8705,3.804,3.7575,3.7236,3.6857,3.6581,3.6581,3.643,3.6455,3.6279,3.6028,3.6299,3.6904,3.6696,3.6571,3.6737,3.5675,3.5162,3.5502,3.5577,3.5339,3.5187,3.5048,3.4952,3.4758,3.4781,3.4675,3.4374,3.453,3.4643,3.4643,3.4605,3.458,3.4818,3.4831,3.4951,3.5115,3.524,3.514,3.5039,3.5102,3.5165,3.5228,3.5102,3.5115,3.509,3.5039,3.4843,3.4793,3.4663,3.4374,3.4035,3.3621,3.34,3.3374,3.3124,3.3124,3.3124,3.3124,3.3124,3.283,3.2679,3.258,3.2762,3.2959,3.3756,3.4219,3.4597,3.4909,3.5419,3.5565,3.5706,3.5652,3.5624,3.5469,3.5233,3.5133,3.4872,3.5377,3.5489,3.5279,3.5198,3.5392,3.5424,3.5311,3.5279,3.5279,4.6313,4.6313,4.6313,4.566,4.4706,4.4618,4.4003,4.3049,4.2986,4.2986,4.2986,4.2986,4.2986,4.2986,4.2986,4.2715,4.2301,4.1974,4.1379,4.0789,4.045,4.0111,3.9785,3.9697,3.9697,3.9697,3.9697,3.9383,3.8981,3.873,3.8341,3.7889,3.74,3.7086,3.7061,3.6909,3.643,3.6405,3.6377,3.6757,3.7279,3.6599,3.6994,3.7423,3.7131,3.6754,3.7439,3.7495,3.7284,3.6481,3.6297,3.5758,3.5001,3.5157,3.5332,3.5182,3.4969,3.4693,3.4793,3.4914,3.5077,3.5378,3.5395,3.5658,3.5855,3.6028,3.5994,3.6216,3.6107,3.6019,3.6003,3.6128,3.6191,3.5931,3.5655,3.5516,3.537,3.529,3.5002,3.5073,3.4882,3.4147,3.3705,3.3374,3.3124,3.3124,3.3124,3.3167,3.3318,3.3394,3.3825,3.4205,3.4432,3.5159,3.5695,3.6141,3.6289,3.6873,3.6817,3.6776,3.6522,3.6237,3.5953,3.5735,3.5669,3.5504,3.5489,3.5489,3.5489,3.5489,3.5489,3.5489,3.5457,3.5489,3.5489,4.6313,4.6313,4.6313,4.566,4.4623,4.4618,4.3991,4.3137,4.2986,4.2986,4.2986,4.2986,4.2986,4.2986,4.2986,4.2861,4.264,4.2363,4.2011,4.1304,4.0865,4.0413,4.0149,3.986,3.9697,3.9697,3.9685,3.9634,3.9295,3.9045,3.8693,3.8467,3.7952,3.7638,3.7698,3.7766,3.7384,3.7373,3.7827,3.8826,3.9367,3.9271,3.929,4.0025,3.8971,3.8829,3.9043,3.9141,3.897,3.8279,3.7886,3.7235,3.6593,3.6319,3.6006,3.5981,3.5805,3.568,3.568,3.5676,3.5755,3.5881,3.6006,3.6107,3.638,3.6417,3.6417,3.6405,3.6405,3.6417,3.6417,3.6417,3.6417,3.6317,3.6094,3.6056,3.5918,3.5889,3.584,3.5973,3.6057,3.5401,3.4756,3.4438,3.401,3.3528,3.3581,3.3649,3.4163,3.4776,3.5385,3.6198,3.6392,3.6628,3.7106,3.7529,3.7148,3.7415,3.7236,3.718,3.7,3.6731,3.6492,3.6103,3.5804,3.5669,3.5564,3.5489,3.5489,3.5489,3.5489,3.5489,3.5489,3.5489,3.5489,4.6313,4.6313,4.6313,4.5648,4.4644,4.4618,4.4003,4.3037,4.2986,4.2986,4.2986,4.2986,4.2986,4.2986,4.2986,4.2961,4.2936,4.2602,4.2351,4.1936,4.1379,4.0827,4.0463,4.0074,3.9848,3.971,3.9697,3.9659,3.9546,3.9333,3.912,3.9032,3.8504,3.8266,3.8312,3.8296,3.8025,3.7579,3.8675,3.9898,4.0801,4.0944,4.128,4.1419,4.1028,4.0447,4.0717,4.0788,4.0774,4.0105,3.9573,3.8979,3.8439,3.7879,3.7567,3.7416,3.7154,3.6823,3.6697,3.6582,3.6452,3.6417,3.6417,3.6355,3.6392,3.6417,3.6417,3.6417,3.6417,3.6417,3.6417,3.6417,3.6417,3.6417,3.6367,3.6405,3.6427,3.6391,3.659,3.7007,3.7037,3.6967,3.6336,3.5783,3.5106,3.4259,3.4033,3.4247,3.4936,3.5883,3.6473,3.7139,3.7287,3.7541,3.8157,3.8456,3.8192,3.8048,3.7868,3.7704,3.7614,3.7404,3.715,3.6686,3.6163,3.5983,3.5983,3.5729,3.5489,3.5489,3.5489,3.5489,3.5489,3.5489,3.5489,4.6313,4.6313,4.6313,4.5673,4.4644,4.4618,4.3991,4.3074,4.2999,4.2986,4.2986,4.2986,4.2986,4.2986,4.2986,4.2986,4.2974,4.2936,4.2622,4.2363,4.2049,4.1404,4.0927,4.0538,4.0212,3.9835,3.981,3.9798,3.9685,3.9609,3.9572,3.9559,3.9133,3.8919,3.883,3.8736,3.9006,3.8816,3.9614,4.0222,4.0914,4.1168,4.1495,4.2655,4.2281,4.1947,4.297,4.2957,4.2579,4.1762,4.1355,4.0828,4.0173,3.9659,3.9406,3.9227,3.8717,3.8319,3.7964,3.7075,3.6515,3.6443,3.6518,3.6656,3.6707,3.6531,3.6455,3.6606,3.6732,3.6726,3.665,3.649,3.6988,3.7249,3.7449,3.7291,3.7206,3.6871,3.714,3.7782,3.8184,3.8364,3.8434,3.7987,3.6505,3.5591,3.5984,3.6142,3.6156,3.6867,3.7183,3.7625,3.7776,3.8213,3.9009,3.9074,3.882,3.876,3.8721,3.8527,3.8362,3.8108,3.7689,3.7345,3.6866,3.6626,3.6342,3.6073,3.5818,3.5594,3.5489,3.5489,3.5489,3.5489,3.5489,4.6313,4.6313,4.6313,4.5861,4.5133,4.4769,4.4179,4.3501,4.3124,4.2986,4.2986,4.2986,4.2986,4.2986,4.2986,4.2986,4.2986,4.2986,4.2811,4.2597,4.2326,4.1961,4.1467,4.1103,4.0752,4.0312,4.0187,3.9961,3.9722,3.9965,4.0389,4.0363,4.0071,3.9523,3.9348,3.984,4.064,4.1767,4.1951,4.2329,4.3242,4.3411,4.3657,4.4266,4.4266,4.4045,4.4474,4.45,4.4225,4.3794,4.3149,4.2582,4.2022,4.1485,4.1177,4.1132,4.0525,3.9996,3.9038,3.7929,3.7046,3.7337,3.7387,3.7385,3.7381,3.7373,3.7362,3.7387,3.748,3.7715,3.8484,3.8626,3.8802,3.8879,3.8806,3.8543,3.8326,3.809,3.8498,3.951,4.0043,4.0378,4.0379,4.0351,3.8567,3.7045,3.7606,3.8078,3.804,3.8078,3.8457,3.851,3.8683,3.8692,3.9414,3.9478,3.9403,3.9388,3.9388,3.917,3.8841,3.8467,3.8093,3.7808,3.7554,3.724,3.6881,3.6447,3.6118,3.5804,3.5609,3.5489,3.5489,3.5489,3.5489,4.6313,4.6313,4.6313,4.5987,4.546,4.5045,4.4455,4.3802,4.3401,4.3112,4.2986,4.2986,4.2986,4.2986,4.2986,4.2986,4.2986,4.2986,4.2986,4.2823,4.2652,4.2376,4.2137,4.1756,4.1304,4.089,4.0792,4.0591,4.1093,4.0836,4.1732,4.2235,4.1734,4.1328,4.1052,4.1453,4.2759,4.4018,4.4399,4.4124,4.487,4.5069,4.509,4.5185,4.5072,4.5057,4.5125,4.5095,4.514,4.4849,4.4529,4.4177,4.3791,4.3444,4.2934,4.2757,4.2446,4.1907,4.0779,3.8886,3.7734,3.7801,3.7889,3.8099,3.8469,3.8602,3.8714,3.9255,3.9259,3.9542,4.0462,4.0367,4.0353,4.0441,4.0409,4.0191,4.0106,3.9997,4.0628,4.1383,4.1624,4.1609,4.1308,4.1152,4.0335,3.9117,3.9674,3.9942,3.9712,3.9809,4.0053,3.9981,3.975,3.9727,3.9702,3.9568,3.9448,3.9388,3.9388,3.9388,3.914,3.8796,3.8661,3.8586,3.8287,3.7853,3.7479,3.7135,3.6567,3.5968,3.5774,3.5579,3.5489,3.5489,3.5489,4.6313,4.6313,4.6313,4.5999,4.556,4.5472,4.4844,4.4016,4.3765,4.3463,4.3087,4.3024,4.2986,4.2986,4.2986,4.2986,4.2986,4.2986,4.2986,4.2924,4.2861,4.2652,4.2578,4.2397,4.2468,4.155,4.1853,4.2554,4.3173,4.3028,4.3943,4.4779,4.4602,4.3974,4.3464,4.3381,4.3529,4.3728,4.4355,4.4688,4.4996,4.5419,4.5565,4.5633,4.5648,4.5693,4.5693,4.5693,4.5723,4.5609,4.5538,4.5312,4.5226,4.5196,4.5025,4.5037,4.4196,4.3704,4.3268,3.9991,3.8877,3.8845,3.9329,3.9385,3.979,4.0037,4.0393,4.11,4.1404,4.1571,4.1809,4.19,4.2018,4.2265,4.2323,4.2211,4.2207,4.2197,4.2811,4.2963,4.2706,4.2435,4.2016,4.1684,4.1466,4.1242,4.1799,4.1781,4.1275,4.1128,4.1205,4.0861,4.0531,4.0472,4.0277,3.9732,3.9508,3.9433,3.9388,3.9388,3.9388,3.9179,3.9134,3.9209,3.8945,3.8452,3.8138,3.7853,3.721,3.6582,3.5938,3.5669,3.5579,3.5489,3.5504,4.6313,4.6313,4.6313,4.6213,4.5987,4.5635,4.5246,4.4807,4.4166,4.3689,4.3463,4.3175,4.2986,4.2986,4.2986,4.2986,4.2986,4.2986,4.2986,4.2986,4.2986,4.3568,4.3679,4.3713,4.4016,4.4502,4.4624,4.4256,4.4747,4.4875,4.5601,4.6432,4.7059,4.6535,4.5295,4.4812,4.5041,4.5884,4.627,4.6357,4.6328,4.6466,4.6546,4.6531,4.6516,4.6501,4.6471,4.6441,4.6441,4.6456,4.6456,4.6486,4.6486,4.6501,4.6531,4.6576,4.6002,4.5625,4.4784,4.2769,4.182,4.1622,4.1411,4.1528,4.2242,4.227,4.26,4.286,4.312,4.3424,4.3987,4.4169,4.4398,4.4967,4.5068,4.4848,4.473,4.4715,4.4881,4.4652,4.4347,4.4189,4.3853,4.3145,4.2752,4.2555,4.2927,4.2554,4.207,4.1906,4.1901,4.1429,4.1115,4.1085,4.0876,4.0412,4.0127,4.0098,3.9732,3.9388,3.9388,3.9508,3.9388,3.9328,3.923,3.905,3.8751,3.8407,3.7838,3.7225,3.6671,3.6088,3.5848,3.5684,3.5504,4.6313,4.6313,4.6313,4.6313,4.625,4.5924,4.5686,4.5359,4.4493,4.3991,4.374,4.3413,4.315,4.3049,4.2986,4.2986,4.2986,4.2986,4.2986,4.2986,4.2986,4.3411,4.3936,4.4509,4.449,4.5608,4.6014,4.5823,4.6855,4.6806,4.7404,4.838,4.9128,4.8337,4.7281,4.6972,4.7005,4.751,4.7449,4.7343,4.7252,4.7219,4.7234,4.7219,4.7219,4.7249,4.7279,4.7309,4.7309,4.7309,4.7309,4.7309,4.7309,4.7309,4.7309,4.7309,4.7207,4.6799,4.5945,4.5452,4.4715,4.4684,4.4149,4.3773,4.4008,4.4023,4.4436,4.4695,4.4674,4.5132,4.5735,4.5973,4.6153,4.667,4.658,4.6314,4.6284,4.6169,4.599,4.5774,4.5607,4.5574,4.5379,4.4904,4.4221,4.4035,4.3928,4.3359,4.2821,4.2626,4.2491,4.2147,4.1788,4.1728,4.1557,4.1115,4.0876,4.0756,4.0367,3.9918,3.9798,3.9963,3.9709,3.9469,3.9334,3.926,3.926,3.8945,3.8437,3.7988,3.7554,3.6941,3.6282,3.6073,3.5983,4.6313,4.6313,4.6313,4.6313,4.6301,4.6263,4.5987,4.5497,4.4907,4.4367,4.389,4.3865,4.3514,4.3099,4.3011,4.3141,4.3141,4.3141,4.3197,4.3085,4.3141,4.3295,4.3492,4.3784,4.5049,4.5356,4.6014,4.772,4.9061,4.8991,4.9399,4.9883,5.0118,4.9655,4.9237,4.8983,4.876,4.8492,4.8297,4.8102,4.7893,4.7534,4.7534,4.7489,4.7399,4.7324,4.7309,4.7309,4.7309,4.7309,4.7309,4.7309,4.7309,4.7309,4.7309,4.7309,4.7309,4.7207,4.7077,4.6741,4.6785,4.6358,4.5124,4.4837,4.5024,4.5479,4.5779,4.6255,4.6447,4.6741,4.7121,4.7077,4.7062,4.7189,4.7204,4.7101,4.7101,4.6997,4.6787,4.6591,4.6411,4.6217,4.5858,4.5469,4.5214,4.4945,4.4601,4.4032,4.3524,4.311,4.303,4.297,4.2641,4.2455,4.2171,4.1773,4.1587,4.1399,4.116,4.0801,4.0636,4.0382,4.0187,3.9933,3.9523,3.9358,3.9328,3.9239,3.9065,3.8661,3.8302,3.7689,3.7,3.6956,3.6896,4.6313,4.6313,4.6313,4.6313,4.6313,4.6313,4.6213,4.5999,4.5485,4.5121,4.4957,4.4129,4.3727,4.3539,4.3162,4.3585,4.37,4.37,4.3865,4.3755,4.3492,4.3742,4.4372,4.5195,4.6526,4.7721,4.8688,4.9245,5.0272,5.0555,5.0573,5.0866,5.0794,5.069,5.0631,5.0616,4.9898,4.9314,4.906,4.879,4.8506,4.8192,4.8087,4.7952,4.7638,4.7549,4.7489,4.7474,4.7444,4.7354,4.7324,4.7309,4.7309,4.7309,4.7309,4.7309,4.7309,4.7266,4.7309,4.7324,4.7399,4.7578,4.6844,4.683,4.686,4.6801,4.6977,4.727,4.7534,4.7608,4.7474,4.7384,4.7354,4.7324,4.7324,4.7309,4.7309,4.7249,4.707,4.7025,4.686,4.677,4.6396,4.6157,4.5918,4.5663,4.5289,4.4721,4.4167,4.3723,4.3334,4.326,4.3155,4.288,4.2761,4.2462,4.2291,4.2081,4.1833,4.1579,4.1265,4.0995,4.0726,4.0337,3.9873,3.9553,3.9388,3.9284,3.9209,3.9269,3.899,3.8362,3.7853,3.7793,3.7689,4.6313,4.6313,4.6313,4.6313,4.6421,4.6921,4.6921,4.6358,4.5949,4.5711,4.5384,4.4543,4.4016,4.3702,4.3294,4.3338,4.3907,4.3381,4.3394,4.3602,4.4004,4.3907,4.4792,4.6174,4.7197,4.8688,4.9727,5.0143,5.1026,5.1229,5.1199,5.1137,5.1229,5.1229,5.1154,5.1035,5.0765,5.0212,4.9808,4.9553,4.9224,4.8955,4.879,4.8581,4.8192,4.8072,4.8027,4.8027,4.7938,4.7758,4.7683,4.7534,4.7429,4.7309,4.7309,4.7354,4.7638,4.7713,4.7803,4.8057,4.8057,4.8162,4.8401,4.8372,4.8238,4.8134,4.7954,4.7893,4.7967,4.7982,4.7713,4.7474,4.7414,4.7339,4.7324,4.7309,4.7309,4.7309,4.7294,4.7294,4.7264,4.7249,4.7085,4.6845,4.6546,4.6172,4.5813,4.5409,4.4796,4.4172,4.3663,4.3319,4.3305,4.3185,4.312,4.3,4.2821,4.2656,4.2611,4.2327,4.1953,4.1632,4.1309,4.0741,4.0113,3.9888,3.9672,3.9448,3.9358,3.9418,3.9433,3.8955,3.8616,3.8586,3.8467,4.6323,4.6528,4.6588,4.6862,4.6874,4.8139,4.7964,4.6683,4.687,4.6251,4.5628,4.5206,4.4852,4.4558,4.41,4.4139,4.4522,4.4318,4.4372,4.356,4.4792,4.4941,4.5048,4.5925,4.7619,4.7974,4.8787,5.054,5.1011,5.1229,5.1229,5.1229,5.1229,5.1229,5.1229,5.1229,5.105,5.0885,5.0466,5.0152,4.9718,4.9494,4.9389,4.9359,4.9254,4.9179,4.9194,4.9149,4.903,4.8581,4.8297,4.8057,4.7833,4.7653,4.7638,4.7728,4.8147,4.8297,4.8461,4.8745,4.9,4.9149,4.9344,4.9284,4.9179,4.891,4.8611,4.8476,4.8551,4.8476,4.8237,4.8222,4.8177,4.7967,4.7818,4.7728,4.7653,4.7534,4.7309,4.7309,4.7309,4.7309,4.7279,4.701,4.6935,4.6533,4.6381,4.6067,4.5544,4.487,4.4231,4.3663,4.3364,4.3334,4.326,4.317,4.323,4.317,4.311,4.2961,4.2536,4.2207,4.1931,4.1339,4.0786,4.0307,4.0038,3.9873,3.9702,3.9664,3.9597,3.9433,3.9298,3.9215,3.908,4.6598,4.8081,4.918,4.9664,4.9664,4.9988,5.0002,4.9651,4.9651,4.8311,4.6657,4.7192,4.7112,4.6111,4.6008,4.6284,4.7026,4.6181,4.6774,4.6725,4.7012,4.6414,4.6383,4.7661,4.8518,4.9127,4.995,5.0745,5.1073,5.1229,5.1229,5.1229,5.1229,5.1229,5.1229,5.1229,5.1214,5.1199,5.102,5.0795,5.0601,5.0212,4.9956,4.9853,4.9718,4.9509,4.9464,4.9374,4.9269,4.9075,4.9075,4.8925,4.882,4.882,4.882,4.8835,4.8925,4.9,4.9119,4.9299,4.9509,4.9568,4.9688,4.9898,4.9853,4.9494,4.9314,4.9224,4.9164,4.906,4.891,4.891,4.8895,4.8596,4.8312,4.8177,4.8027,4.7698,4.7384,4.7309,4.7309,4.7309,4.7309,4.7279,4.7219,4.7145,4.71,4.6845,4.6352,4.5711,4.511,4.4426,4.3544,4.3379,4.3379,4.3305,4.3305,4.3305,4.3215,4.3125,4.306,4.2716,4.2312,4.2051,4.1602,4.1055,4.0636,4.0427,4.0292,4.0142,3.9948,3.9873,3.9582,3.9469,3.9388,4.6097,4.7937,5.027,5.1012,5.0851,5.1386,5.1386,5.0865,5.1427,5.0449,4.8515,4.8911,4.8872,4.8081,4.8045,4.8321,4.9118,4.8353,4.819,4.8522,4.8849,4.8131,4.8542,4.9299,4.9239,4.979,5.0618,5.1167,5.1229,5.1229,5.1229,5.1229,5.1229,5.1229,5.1229,5.1229,5.1229,5.1229,5.1229,5.1229,5.1229,5.0823,5.0629,5.0496,5.0361,5.0092,5.0137,5.0092,4.9927,4.9658,4.9404,4.9284,4.9194,4.9179,4.9239,4.9314,4.9464,4.9688,4.9763,4.9883,5.0017,5.0182,5.0316,5.0646,5.0661,5.0346,5.0062,5.0002,5.0227,5.0167,4.9479,4.9329,4.9314,4.9075,4.8835,4.8656,4.8371,4.8012,4.7638,4.7309,4.7309,4.7309,4.7309,4.7309,4.7264,4.7264,4.7294,4.7294,4.6875,4.6531,4.5903,4.5289,4.4411,4.3858,4.3828,4.3604,4.3305,4.3305,4.3349,4.3245,4.314,4.3,4.2731,4.2402,4.2096,4.1737,4.1339,4.1085,4.095,4.0831,4.0576,4.0322,4.0053,3.9828,3.9783,4.5809,4.7646,5.0904,5.1937,5.1494,5.2669,5.2562,5.1713,5.2683,5.2562,5.1385,5.0867,5.0521,4.9999,4.9861,4.9746,4.976,5.0052,4.9922,5.0058,5.0457,5.0133,5.0154,5.0549,5.0501,5.0533,5.1045,5.1178,5.1229,5.1229,5.1229,5.1229,5.1229,5.1229,5.1229,5.1229,5.1229,5.1229,5.1229,5.1229,5.1229,5.1229,5.1154,5.1184,5.1229,5.1229,5.1199,5.1094,5.0825,5.0496,4.9972,4.9853,4.9763,4.9808,4.9763,4.9883,5.0167,5.0285,5.039,5.0735,5.0945,5.1139,5.1229,5.1214,5.1169,5.1035,5.075,5.078,5.102,5.087,5.0182,4.9838,4.9778,4.9673,4.9464,4.9134,4.876,4.8371,4.7923,4.7489,4.7399,4.7399,4.7339,4.7339,4.7309,4.7309,4.7309,4.7309,4.7219,4.695,4.6516,4.6037,4.5439,4.496,4.4526,4.4047,4.3633,4.3499,4.3544,4.3409,4.326,4.311,4.297,4.2731,4.2402,4.2252,4.1998,4.1728,4.1609,4.1504,4.11,4.0786,4.0696,4.0457,4.0262,4.7474,5.0459,5.2834,5.3917,5.4296,5.4641,5.4575,5.4406,5.4524,5.4575,5.4142,5.4053,5.3421,5.1671,5.2243,5.2332,5.2071,5.2184,5.2352,5.2551,5.2304,5.2245,5.2147,5.2013,5.2107,5.1995,5.1742,5.1613,5.1678,5.1454,5.1274,5.1349,5.1319,5.1304,5.1289,5.1319,5.1439,5.1454,5.1364,5.1334,5.1274,5.1259,5.1229,5.1229,5.1229,5.1229,5.1214,5.1229,5.1139,5.102,5.0855,5.0705,5.0631,5.0601,5.0586,5.0526,5.081,5.0855,5.0958,5.1094,5.1229,5.1229,5.1229,5.1229,5.1199,5.1199,5.1035,5.1035,5.1184,5.1184,5.0735,5.0735,5.069,5.0541,5.0361,4.9778,4.9284,4.882,4.8341,4.7967,4.7698,4.7593,4.7429,4.7399,4.7309,4.7309,4.7309,4.7309,4.7309,4.7174,4.704,4.6666,4.6232,4.5768,4.5214,4.4586,4.4182,4.3988,4.3708,4.3529,4.3394,4.3305,4.3125,4.297,4.3015,4.2985,4.2701,4.2327,4.2267,4.2102,4.1579,4.1265,4.1242,4.1265,4.1181]}]]